[[[{"header":{"parameterUnit":"kt","parameterCategory":2,"dx":1,"dy":1,"la1":29.285339999999998,"la2":30.599998999999997,"lo1":-89.70041500000002,"lo2":-87.6738589999976,"nx":112,"ny":82,"refTime":"2022-10-27T12:00:00:Z","depth":0,"parameterNumber":1,"parameterNumberName":"U-component_of_WINDS"},"data":[5.5796,5.5616,0.0,5.2684,5.19,0.0,4.9059,0.0,4.6133,4.4948,4.3976,4.3459,4.3649,4.264,4.2333,4.3933,4.319,4.3086,0.0,4.6261,0.0,0.0,0.0,0.0,0.0,0.0,0.0,0.0,0.0,0.0,0.0,0.0,7.6338,7.6338,7.6338,7.6338,7.6338,7.6338,7.6338,7.6338,7.6338,7.6338,7.6338,7.6338,7.6338,7.6338,7.6338,7.6932,7.7815,7.8326,7.8276,7.784,7.8453,7.7802,7.6635,7.6635,7.6635,7.6635,7.6635,7.6635,7.6635,7.6635,7.6635,7.6635,7.6635,7.6635,7.6635,7.6635,7.6635,7.6635,7.6635,7.6635,7.6635,7.6635,7.4146,7.1689,7.1689,6.8969,6.6564,6.6564,6.6049,6.5721,6.5557,6.5392,6.5062,6.4613,6.4613,6.4447,6.4304,6.4304,6.4304,6.4304,6.4304,6.4304,6.4304,6.4304,6.4304,6.4304,6.4304,6.4304,6.4304,6.4304,6.4304,6.4304,6.4304,6.4304,6.4304,6.4304,6.4304,6.4304,6.4304,6.4304,0.0,0.0,5.1218,4.8556,0.0,0.0,0.0,4.5076,4.3856,4.3451,4.2689,4.1825,4.1208,4.1858,4.2659,4.3312,4.3817,4.4616,0.0,0.0,0.0,0.0,0.0,0.0,0.0,0.0,0.0,0.0,0.0,0.0,0.0,7.6338,7.6338,7.6338,7.6338,7.6338,7.6338,7.6338,7.6338,7.6338,7.6338,7.6338,7.6338,7.6338,7.6338,7.6338,7.6338,7.6886,7.7787,7.7916,7.79,7.7768,7.788,7.7383,7.6635,7.6635,7.6635,7.6635,7.6635,7.6635,7.6635,7.6635,7.6635,7.6635,7.6635,7.6635,7.6635,7.6635,7.6635,7.6635,7.6635,7.6635,7.6635,7.6635,7.4146,7.1689,7.1538,6.8837,6.6238,6.6074,6.5721,6.5392,6.5392,6.5227,6.4921,6.4447,6.4304,6.4304,6.4304,6.4304,6.4304,6.4304,6.4304,6.4304,6.4304,6.4304,6.4304,6.4304,6.4304,6.4304,6.4304,6.4304,6.4304,6.4304,6.4304,6.4304,6.4304,6.4304,6.4304,6.4304,6.4304,6.4304,0.0,0.0,0.0,4.5175,4.3772,4.2411,4.2386,4.1829,4.1419,4.1387,4.1419,4.166,4.2345,4.3589,4.4764,4.548,4.6721,0.0,0.0,0.0,0.0,0.0,0.0,0.0,0.0,0.0,0.0,0.0,0.0,0.0,7.6274,7.6338,7.6338,7.6338,7.6338,7.6338,7.6338,7.6338,7.6338,7.6338,7.6338,7.6338,7.6338,7.6338,7.6338,7.6338,7.6338,7.6338,7.6331,7.6503,7.6435,7.6329,7.6626,7.6582,7.6576,7.6576,7.6576,7.6635,7.6635,7.6635,7.6635,7.6635,7.6635,7.6635,7.6635,7.6635,7.6635,7.6635,7.6635,7.6635,7.6635,7.6635,7.6635,7.6635,7.4146,7.1689,7.1235,6.868,6.6238,6.5557,6.5227,6.4921,6.4921,6.4613,6.4304,6.4304,6.4304,6.4304,6.4304,6.4304,6.4304,6.4304,6.4304,6.4304,6.4304,6.4304,6.4304,6.4304,6.4304,6.4304,6.4304,6.4304,6.4304,6.4304,6.4304,6.4304,6.4304,6.4304,6.4304,6.4304,6.4304,6.4304,4.6282,4.5564,4.4816,4.2901,4.3106,4.3438,4.1988,4.158,4.154,4.2016,4.2106,0.0,0.0,0.0,4.5627,4.6853,0.0,4.9549,0.0,5.323,0.0,0.0,0.0,0.0,0.0,0.0,0.0,0.0,0.0,0.0,7.6274,7.6338,7.6338,7.6338,7.6338,7.6338,7.6338,7.6338,7.6338,7.6338,7.6338,7.6338,7.6338,7.6338,7.6338,7.6338,7.6338,7.5855,7.5045,7.5067,7.4543,7.3791,7.4891,7.5193,7.518,7.518,7.5791,7.6635,7.6635,7.6635,7.6635,7.6635,7.6635,7.6635,7.6635,7.6635,7.6635,7.6635,7.6635,7.6635,7.6635,7.6635,7.6635,7.6635,7.4956,7.3146,7.1538,6.9256,6.711,6.5392,6.4755,6.4447,6.4447,6.4447,6.4304,6.4304,6.4304,6.4304,6.4304,6.4304,6.4304,6.4304,6.4304,6.4304,6.4304,6.4304,6.4304,6.4304,6.4304,6.4304,6.4304,6.4304,6.4304,6.4304,6.4304,6.4304,6.4304,6.4304,6.4304,6.4304,6.4304,6.4304,4.3619,4.303,4.2853,4.138,4.2274,4.3213,4.2101,4.2048,4.25,4.3493,0.0,0.0,0.0,0.0,0.0,0.0,5.116,0.0,0.0,0.0,0.0,0.0,0.0,0.0,0.0,0.0,0.0,0.0,0.0,7.5501,7.6306,7.6338,7.6338,7.6338,7.6338,7.6338,7.6338,7.6338,7.6338,7.6338,7.6338,7.6338,7.6338,7.6338,7.6338,7.6338,7.6338,7.5992,7.5153,7.4077,7.3671,7.3465,7.3151,7.337,7.3872,7.4424,7.5471,7.6635,7.6635,7.6635,7.6635,7.6635,7.6635,7.6635,7.6635,7.6635,7.6635,7.6635,7.6635,7.6635,7.6635,7.6635,7.6635,7.6635,7.53,7.3617,7.2168,6.9724,6.7432,6.6049,6.4921,6.4304,6.4304,6.4304,6.4304,6.4304,6.4304,6.4304,6.4304,6.4304,6.4304,6.4304,6.4304,6.4304,6.4304,6.4304,6.4304,6.4304,6.4304,6.4304,6.4304,6.4304,6.4304,6.4304,6.4304,6.4304,6.4304,6.4304,6.4304,6.4304,6.4304,6.4304,4.1036,4.0089,4.0421,4.0548,4.145,4.2435,4.2757,0.0,4.4288,4.5899,0.0,0.0,0.0,0.0,0.0,0.0,0.0,0.0,0.0,0.0,0.0,0.0,0.0,0.0,0.0,0.0,0.0,7.6338,7.6338,7.6338,7.6338,7.6338,7.6338,7.6338,7.6338,7.6338,7.6338,7.6338,7.6338,7.6338,7.6338,7.6338,7.6338,7.6338,7.6338,7.6338,7.6338,7.6234,7.5781,7.3551,7.3261,7.3799,7.154,7.1458,7.2679,7.393,7.5268,7.6431,7.6576,7.6635,7.6635,7.6635,7.6635,7.6635,7.6635,7.6635,7.6635,7.6635,7.6635,7.6635,7.6635,7.6635,7.6635,7.6465,7.5128,7.3764,7.2942,7.037,6.7778,6.7025,6.5582,6.4613,6.4613,6.4471,6.4304,6.4304,6.4304,6.4304,6.4304,6.4304,6.4304,6.4304,6.4304,6.4304,6.4304,6.4304,6.4304,6.4304,6.4304,6.4304,6.4304,6.4304,6.4304,6.4304,6.4304,6.4304,6.4304,6.4304,6.4304,6.4304,6.4304,6.4304,4.1949,4.1119,4.0518,4.1113,4.1779,4.3009,0.0,0.0,0.0,0.0,0.0,0.0,0.0,0.0,0.0,0.0,0.0,0.0,0.0,0.0,0.0,0.0,0.0,0.0,0.0,7.646,7.6681,7.6442,7.6338,7.6338,7.6338,7.6338,7.6338,7.6338,7.6338,7.6338,7.6338,7.6338,7.6338,7.6338,7.6338,7.6338,7.6338,7.6338,7.6338,7.6338,7.6338,7.5292,7.3325,7.287,7.1653,7.009,6.9617,7.0149,7.1429,7.265,7.3901,7.5151,7.6257,7.6635,7.6635,7.6635,7.6635,7.6635,7.6635,7.6635,7.6635,7.6635,7.6635,7.6635,7.6635,7.6635,7.6465,7.6154,7.5871,7.4927,7.2914,7.1867,7.0497,6.7483,6.6539,6.6376,6.6376,6.5252,6.4304,6.4304,6.4304,6.4304,6.4304,6.4304,6.4304,6.4304,6.4304,6.4304,6.4304,6.4304,6.4304,6.4304,6.4304,6.4304,6.4304,6.4304,6.4304,6.4304,6.4304,6.4304,6.4304,6.4304,6.4304,6.4304,6.4304,6.4304,4.1603,4.117,4.1051,4.172,4.2944,0.0,0.0,4.6871,4.8595,5.2245,5.2409,0.0,0.0,0.0,0.0,0.0,0.0,0.0,0.0,0.0,0.0,0.0,0.0,0.0,0.0,7.6681,7.6546,7.6442,7.6338,7.6338,7.6338,7.6338,7.6338,7.6338,7.6338,7.6338,7.6338,7.6338,7.6338,7.6338,7.6338,7.6338,7.6338,7.6338,7.6097,7.5367,7.5367,7.436,7.2641,7.1944,7.0723,6.9015,6.9015,6.98,7.1051,7.2272,7.3523,7.4831,7.6169,7.6635,7.6635,7.6635,7.6635,7.6635,7.6635,7.6635,7.6635,7.6635,7.6635,7.6635,7.6635,7.6635,7.6465,7.6324,7.6154,7.5558,7.4146,7.309,7.1717,6.9621,6.9465,6.9282,6.8205,6.665,6.5746,6.5885,6.4921,6.4447,6.4921,6.4613,6.4447,6.4613,6.4613,6.4613,6.4304,6.4447,6.4613,6.4304,6.4304,6.4304,6.4304,6.4304,6.4304,6.4304,6.4304,6.4304,6.4304,6.4304,6.4304,6.4304,6.4304,6.4304,4.0636,4.0864,4.1783,4.2751,4.4243,0.0,4.6919,4.8037,5.0237,0.0,0.0,0.0,0.0,0.0,0.0,0.0,0.0,0.0,0.0,0.0,0.0,0.0,0.0,0.0,0.0,7.6578,7.6442,7.6338,7.6338,7.6338,7.6338,7.6338,7.6338,7.6338,7.6338,7.6338,7.6338,7.6338,7.6338,7.6338,7.6338,7.6338,7.6338,7.6338,7.5718,7.4407,7.4407,7.3632,7.2294,7.1145,7.002,6.9015,6.9015,6.9655,7.0702,7.1923,7.3174,7.4453,7.5762,7.6402,7.6635,7.6635,7.6635,7.6635,7.6635,7.6635,7.6635,7.6635,7.6635,7.6635,7.6635,7.6635,7.6635,7.6465,7.6183,7.5871,7.5529,7.4146,7.2794,7.2401,7.2346,7.184,7.0162,6.8496,6.7618,6.7912,6.6625,6.5671,6.6437,6.5999,6.5532,6.5532,6.5532,6.5227,6.4447,6.4755,6.4755,6.4304,6.4304,6.4304,6.4304,6.4304,6.4304,6.4304,6.4304,6.4304,6.4304,6.4304,6.4304,6.4304,6.4304,6.4304,3.9423,4.0772,4.2576,4.4627,4.5283,0.0,5.1884,5.3164,5.5148,0.0,0.0,0.0,0.0,0.0,0.0,0.0,0.0,0.0,0.0,0.0,0.0,0.0,0.0,0.0,0.0,7.6681,7.6681,7.6442,7.6338,7.6338,7.6338,7.6338,7.6338,7.6338,7.6338,7.6338,7.6338,7.6338,7.6338,7.6338,7.6338,7.6338,7.6338,7.6338,7.5718,7.4407,7.4407,7.3181,7.0935,7.0814,7.002,6.9015,6.9015,6.9102,6.9364,7.0673,7.1894,7.3116,7.4395,7.5617,7.6635,7.6635,7.6635,7.6635,7.6635,7.6635,7.6635,7.6635,7.6635,7.6635,7.6635,7.6635,7.6465,7.6154,7.6013,7.5871,7.5529,7.5243,7.4956,7.455,7.3266,7.2318,7.1991,7.0624,6.9542,6.9927,6.9927,6.9773,6.9773,6.9773,6.9177,6.786,6.7701,6.6923,6.5087,6.4921,6.4755,6.4304,6.4304,6.4304,6.4304,6.4304,6.4304,6.4304,6.4304,6.4304,6.4304,6.4304,6.4304,6.4304,6.4304,6.4304,3.9868,4.1698,4.3543,4.4961,0.0,0.0,5.2278,5.4152,0.0,0.0,0.0,0.0,0.0,0.0,0.0,0.0,0.0,0.0,0.0,0.0,0.0,0.0,0.0,0.0,0.0,0.0,0.0,7.6442,7.6338,7.6338,7.6338,7.6338,7.6338,7.6338,7.6338,7.6338,7.6338,7.6338,7.6338,7.6338,7.6338,7.6338,7.6338,7.5612,7.4548,7.3407,7.261,7.1264,6.9679,6.9679,6.9459,6.9015,6.9015,6.9015,6.916,7.044,7.169,7.2912,7.4192,7.55,7.6635,7.6635,7.6635,7.6635,7.6635,7.6635,7.6635,7.6635,7.6635,7.6635,7.6635,7.6635,7.6494,7.6324,7.6324,7.6183,7.5842,7.57,7.57,7.5586,7.4956,7.4465,7.4146,7.2766,7.1689,7.2168,7.118,7.0543,7.1028,7.0696,7.0236,6.9852,6.9852,6.9229,6.786,6.8311,6.7701,6.5911,6.6024,6.5532,6.4447,6.4304,6.4304,6.4304,6.4304,6.4304,6.4304,6.4304,6.4304,6.4304,6.4304,6.4304,3.9872,0.0,0.0,0.0,0.0,0.0,5.3361,5.5369,5.794,6.1352,0.0,0.0,0.0,0.0,0.0,0.0,0.0,0.0,0.0,0.0,0.0,0.0,0.0,0.0,0.0,0.0,0.0,0.0,7.6338,7.6338,7.6338,7.6338,7.6338,7.6338,7.6338,7.6338,7.6338,7.6338,7.6338,7.6338,7.596,7.5855,7.5855,7.4548,7.3294,7.2061,7.1145,7.0143,6.9015,6.9015,6.9015,6.9015,6.9015,6.9015,6.9131,7.0062,7.1371,7.2854,7.3784,7.521,7.6635,7.6635,7.6635,7.6635,7.6635,7.6635,7.6635,7.6635,7.6635,7.6635,7.6635,7.6635,7.6635,7.6635,7.6635,7.6465,7.6183,7.6154,7.6154,7.6013,7.6013,7.5957,7.616,7.4837,7.3995,7.4857,7.3285,7.2263,7.2914,7.2113,7.1511,7.2018,7.1538,7.093,7.0162,7.0777,7.0189,6.7752,6.7886,6.7245,6.5087,6.5392,6.5227,6.4304,6.478,6.478,6.4304,6.4304,6.4304,6.4304,6.4304,6.4304,0.0,0.0,0.0,4.8393,5.0508,5.2934,5.7025,5.818,5.9793,6.4718,0.0,0.0,0.0,0.0,0.0,0.0,0.0,0.0,0.0,0.0,0.0,0.0,0.0,0.0,0.0,0.0,0.0,0.0,0.0,7.6338,7.6338,7.6338,7.6338,7.6338,7.6338,7.6338,7.6338,7.6338,7.6338,7.6338,7.5121,7.4548,7.4438,7.3294,7.2061,7.0814,7.0814,7.0143,6.9015,6.9015,6.9015,6.9015,6.9015,6.9015,6.9015,6.9073,7.0614,7.2708,7.2767,7.4453,7.6635,7.6635,7.6635,7.6635,7.6635,7.6635,7.6635,7.6635,7.6635,7.6635,7.6635,7.6635,7.6635,7.6635,7.6635,7.6635,7.6635,7.6635,7.6465,7.6013,7.6013,7.6388,7.763,7.6821,7.6446,7.8149,7.7278,7.6465,7.6465,7.5128,7.4085,7.4085,7.2672,7.1538,7.1082,7.1082,7.0777,6.9697,6.9697,6.8811,6.6863,6.8179,6.7541,6.4447,6.5885,6.6074,6.4304,6.4304,6.4304,6.4304,6.4304,6.4304,4.1915,4.5019,4.8265,5.1146,5.3749,5.6006,5.7546,5.9525,6.1821,6.4182,0.0,0.0,0.0,0.0,0.0,0.0,0.0,0.0,0.0,0.0,0.0,0.0,0.0,0.0,0.0,0.0,0.0,0.0,0.0,0.0,7.6338,7.6338,7.6338,7.6338,7.5612,7.5121,7.5121,7.5992,7.6338,7.6338,7.5121,7.4407,7.4407,7.2263,7.1145,7.0693,6.9926,6.9363,6.9015,6.9015,6.9015,6.9015,6.9015,6.9015,6.9015,6.9015,7.0062,7.1632,7.2447,7.3843,7.5442,7.6344,7.6635,7.6635,7.6635,7.6635,7.6635,7.6635,7.6635,7.6635,7.6635,7.6635,7.6635,7.6635,7.6635,7.6635,7.6635,7.6635,7.6494,7.6465,7.6324,7.6469,7.7046,7.5873,7.5443,7.7046,7.6016,7.5443,7.6465,7.6183,7.5758,7.5758,7.5272,7.4783,7.4465,7.461,7.3854,7.1991,7.184,7.093,6.8969,6.8045,6.7136,6.6049,6.5417,6.5417,6.6049,6.4946,6.4304,6.4304,6.4304,6.4304,4.3698,4.7004,5.0363,5.3204,5.5775,5.7936,5.8975,6.087,6.2841,6.446,0.0,0.0,0.0,0.0,0.0,0.0,0.0,0.0,0.0,0.0,0.0,0.0,0.0,0.0,0.0,0.0,0.0,0.0,0.0,0.0,7.6338,7.6338,7.6202,7.5749,7.4905,7.4187,7.3855,7.5045,7.5505,7.5045,7.4218,7.3632,7.3067,7.1025,7.0143,7.0143,6.9363,6.9015,6.9015,6.9015,6.9015,6.9015,6.9015,6.9015,6.9015,6.9015,6.9829,7.1109,7.2301,7.3552,7.4831,7.6169,7.6635,7.6635,7.6635,7.6635,7.6635,7.6635,7.6635,7.6635,7.6635,7.6635,7.6635,7.6635,7.6635,7.6635,7.6635,7.6635,7.6635,7.6635,7.6635,7.678,7.7216,7.5586,7.4692,7.616,7.5124,7.455,7.5586,7.5729,7.6042,7.6465,7.6042,7.5871,7.6154,7.6465,7.5842,7.4146,7.4,7.309,7.093,7.0061,6.9152,6.7912,6.6625,6.6325,6.6863,6.5111,6.4304,6.4304,6.4304,6.4304,4.4215,4.7963,5.1951,5.4744,5.6714,5.8585,6.1181,6.2123,6.3115,6.5681,0.0,0.0,0.0,0.0,0.0,0.0,0.0,0.0,0.0,0.0,0.0,0.0,0.0,0.0,0.0,0.0,0.0,0.0,0.0,7.6338,7.6338,7.6338,7.5749,7.4516,7.4407,7.3855,7.2756,7.3743,7.3743,7.2756,7.2641,7.1944,7.0693,6.9584,6.9015,6.9015,6.9015,6.9015,6.9015,6.9015,6.9015,6.9015,6.9015,6.9015,6.9015,6.9015,6.9771,7.1022,7.2272,7.3523,7.4744,7.6169,7.6635,7.6635,7.6635,7.6635,7.6635,7.6635,7.6635,7.6635,7.6635,7.6635,7.6635,7.6635,7.6635,7.6635,7.6635,7.6635,7.6635,7.6635,7.6635,7.7013,7.8234,7.6072,7.4626,7.5875,7.4964,7.4259,7.4405,7.4405,7.4984,7.6494,7.53,7.4984,7.6494,7.6494,7.6324,7.6013,7.6013,7.5071,7.309,7.4057,7.3146,7.0007,6.9386,6.8496,6.6863,6.5111,6.4304,6.4304,6.4304,6.4304,4.5888,5.0325,5.3848,5.7378,5.9419,6.0644,6.1386,6.3395,6.5519,0.0,0.0,0.0,0.0,0.0,0.0,0.0,0.0,0.0,0.0,0.0,0.0,0.0,0.0,0.0,0.0,0.0,0.0,0.0,0.0,7.4905,7.4905,7.4905,7.4765,7.4438,7.3632,7.2984,7.2756,7.2061,7.2061,7.2641,7.1708,7.1025,7.0693,6.9584,6.9015,6.9015,6.9015,6.9015,6.9015,6.9015,6.9015,6.9015,6.9015,6.9015,6.9015,6.9015,6.9218,6.98,7.1981,7.2941,7.3581,7.5878,7.6635,7.6635,7.6635,7.6635,7.6635,7.6635,7.6635,7.6635,7.6635,7.6635,7.6635,7.6635,7.6635,7.6635,7.6635,7.6635,7.6635,7.6635,7.6635,7.6722,7.7042,7.55,7.4809,7.6274,7.5183,7.4724,7.5871,7.6042,7.6183,7.6494,7.6013,7.57,7.6154,7.6154,7.6154,7.6013,7.6013,7.57,7.4783,7.3561,7.2346,7.1316,6.9932,6.8548,6.6863,6.5111,6.4304,6.4304,6.4304,6.4304,4.5572,5.0816,5.5337,5.8517,6.0318,6.154,6.2236,6.4191,6.6279,6.7549,6.8263,0.0,0.0,0.0,0.0,0.0,0.0,0.0,0.0,0.0,0.0,0.0,0.0,0.0,0.0,0.0,0.0,0.0,0.0,7.4407,7.4407,7.3966,7.3407,7.2839,7.2177,7.1621,7.1055,7.0359,7.0602,7.1826,7.1145,7.048,6.9897,6.9363,6.9015,6.9015,6.9015,6.9015,6.9015,6.9015,6.9015,6.9015,6.9015,6.9015,6.9015,6.9015,6.9015,6.9306,7.1254,7.2272,7.3057,7.5093,7.614,7.6635,7.6635,7.6635,7.6635,7.6635,7.6635,7.6635,7.6635,7.6635,7.6635,7.6635,7.6635,7.6315,7.5151,7.489,7.5064,7.5646,7.6227,7.6635,7.6635,7.53,7.455,7.5443,7.4868,7.455,7.5443,7.6183,7.6635,7.6635,7.6324,7.6154,7.6013,7.6154,7.6154,7.6013,7.6013,7.5558,7.461,7.3882,7.2672,7.0984,6.9906,6.8837,6.7886,6.5557,6.4304,6.4304,6.4304,6.4304,4.4628,5.0182,5.5629,5.8451,6.0447,6.2043,6.3266,6.4812,6.6325,6.7581,6.6866,0.0,0.0,0.0,0.0,0.0,0.0,0.0,0.0,0.0,0.0,0.0,0.0,0.0,0.0,0.0,0.0,0.0,0.0,0.0,7.4187,7.3067,7.1944,7.0814,7.0814,7.0143,6.9015,6.9015,6.9459,7.048,7.048,7.005,6.9015,6.9015,6.9015,6.9015,6.9015,6.9015,6.9015,6.9015,6.9015,6.9015,6.9015,6.9015,6.9015,6.9015,6.9015,6.9218,7.0469,7.1603,7.2679,7.3959,7.5268,7.6373,7.6373,7.6489,7.6635,7.6635,7.6635,7.6576,7.6402,7.6373,7.6315,7.614,7.6111,7.5471,7.3203,7.2708,7.3057,7.4133,7.5326,7.6111,7.6111,7.5071,7.4352,7.4522,7.455,7.455,7.455,7.5729,7.6635,7.6635,7.6494,7.6324,7.6013,7.6324,7.6324,7.6013,7.6013,7.5243,7.3561,7.4377,7.3146,6.9542,6.9099,6.8785,6.8469,6.5696,6.4304,6.4304,6.4304,6.4304,4.609,4.8932,5.173,5.6833,6.0732,6.3234,6.346,6.5552,6.7549,6.7774,6.6289,6.5233,0.0,0.0,0.0,0.0,0.0,0.0,0.0,0.0,0.0,0.0,0.0,0.0,0.0,0.0,0.0,0.0,0.0,0.0,7.2984,7.1826,7.1025,7.0814,7.0814,7.0143,6.9015,6.9015,6.9112,6.9363,6.9363,6.9238,6.9015,6.9015,6.9015,6.9015,6.9015,6.9015,6.9015,6.9015,6.9015,6.9015,6.9015,6.9015,6.9015,6.9015,6.9015,6.9218,7.0469,7.1051,7.1429,7.265,7.393,7.4977,7.4977,7.5733,7.6635,7.6635,7.6635,7.6373,7.5268,7.4977,7.4686,7.3639,7.3406,7.3261,7.2825,7.2708,7.2767,7.2999,7.3232,7.3406,7.3406,7.3977,7.4911,7.601,7.6183,7.6183,7.6183,7.6465,7.6635,7.6635,7.6324,7.6013,7.6013,7.6013,7.6013,7.6013,7.6324,7.5586,7.3764,7.4667,7.2942,6.7994,6.7432,6.6513,6.5227,6.4613,6.4304,6.4304,6.4304,6.4304,4.4236,4.7114,5.018,5.3611,5.8187,6.1914,6.1914,6.4051,6.6063,6.6063,6.4868,6.3869,6.4419,0.0,0.0,0.0,0.0,0.0,0.0,0.0,0.0,0.0,0.0,0.0,0.0,0.0,0.0,0.0,0.0,0.0,0.0,7.048,6.9803,6.9803,6.9803,6.9584,6.9015,6.9015,6.9015,6.9015,6.9015,6.9015,6.9015,6.9015,6.9015,6.9015,6.9015,6.9015,6.9015,6.9015,6.9015,6.9015,6.9015,6.9015,6.9015,6.9015,6.9015,6.9102,6.9713,7.0382,7.1022,7.1603,7.2621,7.3639,7.3639,7.4075,7.4599,7.4599,7.4599,7.4424,7.3784,7.3639,7.3494,7.2854,7.172,7.0789,7.0789,7.0789,7.0992,7.1661,7.1778,7.1981,7.2621,7.3232,7.4075,7.5384,7.6169,7.6635,7.6635,7.6635,7.6635,7.6635,7.6465,7.6183,7.6013,7.6154,7.6183,7.6013,7.6154,7.5415,7.3589,7.4783,7.3414,6.9126,6.8363,6.7271,6.5582,6.478,6.4304,6.4304,6.4304,6.4304,4.2753,4.5946,4.9463,5.1189,5.5274,5.9119,6.0167,6.1953,6.3487,6.3693,6.3132,6.2653,6.2976,6.2761,0.0,0.0,0.0,0.0,0.0,0.0,0.0,0.0,0.0,0.0,0.0,0.0,0.0,0.0,0.0,0.0,0.0,0.0,0.0,6.9015,6.9015,6.9015,6.9015,6.9015,6.9015,0.0,6.9015,6.9015,6.9015,6.9015,6.9015,6.9015,6.9015,6.9015,6.9015,6.9015,6.9015,6.9015,6.9015,6.9015,6.9015,6.9015,6.9015,6.9015,6.9015,6.9684,7.0498,7.0498,7.1341,7.233,7.233,7.2505,7.2708,7.2708,7.2708,7.265,7.2388,7.233,7.2272,7.1981,7.044,6.9015,6.9015,6.9015,6.9306,7.0324,7.0498,7.0818,7.1749,7.2156,7.2679,7.3668,7.518,7.6198,7.6198,7.646,7.6635,7.6635,7.6635,7.6465,7.6154,7.6465,7.6465,7.6154,7.6154,7.5415,7.3708,7.4465,7.3882,7.1316,6.9568,6.8179,6.7,6.5252,6.4304,6.4304,6.4304,6.4304,4.4421,4.6764,4.8777,5.2087,5.3314,5.4879,5.9428,6.0146,6.0094,6.1151,6.139,6.1725,6.2761,6.2137,6.1696,0.0,0.0,0.0,0.0,0.0,0.0,0.0,0.0,0.0,0.0,0.0,0.0,0.0,0.0,0.0,0.0,0.0,0.0,6.9015,6.9015,6.9015,6.9015,6.9015,6.9015,0.0,6.9015,6.9015,6.9015,6.9015,6.9015,6.9015,6.9015,6.9015,6.9015,6.9015,6.9015,6.9015,6.9015,6.9015,6.9015,6.9015,6.9015,6.9015,6.9015,6.9102,6.9189,6.9189,7.0062,7.108,7.108,7.1865,7.2708,7.2708,7.2708,7.2476,7.1371,7.108,7.0789,6.9626,6.9189,6.9015,6.9015,6.9015,6.9044,6.916,6.9189,6.9218,6.9335,7.0324,7.1138,7.1254,7.329,7.4802,7.4802,7.5878,7.6635,7.6635,7.6635,7.6635,7.6465,7.6635,7.6635,7.6465,7.6465,7.5871,7.4259,7.3882,7.3533,7.3238,6.9542,6.7541,6.7406,6.5392,6.4304,6.4304,6.4304,6.4304,4.1697,4.4527,4.7172,4.9334,5.1627,5.4141,5.6899,5.7272,5.7603,5.9624,6.0035,6.0196,6.0712,6.1058,0.0,6.0829,0.0,0.0,0.0,0.0,0.0,0.0,0.0,0.0,0.0,0.0,0.0,0.0,0.0,0.0,0.0,0.0,0.0,0.0,6.9015,6.9015,6.9015,6.9015,6.9015,6.9015,6.9015,6.9015,6.9015,6.9015,6.9015,6.9015,6.9015,6.9015,6.9015,6.9015,6.9015,6.9015,6.9015,6.9015,6.9015,6.9015,6.9015,6.9015,6.9015,6.9015,6.9015,6.9015,6.9364,6.9771,6.9771,7.012,7.0498,7.0498,7.0498,7.0382,6.9887,6.9771,6.9655,6.9131,6.9015,6.9015,6.9015,6.9015,6.9015,6.9015,6.9015,6.9015,6.9015,6.9451,7.0033,7.0818,7.1749,7.2941,7.4424,7.5093,7.5733,7.6547,7.6635,7.6635,7.6635,7.6635,7.6635,7.6635,7.6635,7.6324,7.5729,7.5243,7.4465,7.3533,7.0804,6.8811,6.786,6.5696,6.478,6.478,6.4447,6.4304,3.9358,4.2306,4.5283,4.7261,4.9907,5.2437,5.4531,5.4997,5.5607,5.776,5.8196,5.8312,5.869,5.9534,5.997,5.9388,6.1035,0.0,0.0,0.0,0.0,0.0,0.0,0.0,0.0,0.0,0.0,0.0,0.0,0.0,0.0,0.0,0.0,0.0,6.9015,6.9015,6.9015,6.9015,6.9015,6.9015,6.9015,6.9015,6.9015,6.9015,6.9015,6.9015,6.9015,6.9015,6.9015,6.9015,6.9015,6.9015,6.9015,6.9015,6.9015,6.9015,6.9015,6.9015,6.9015,6.9015,6.9015,6.9015,6.9015,6.9015,6.9015,6.9015,6.9015,6.9015,6.9015,6.9015,6.9015,6.9015,6.9015,6.9015,6.9015,6.9015,6.9015,6.9015,6.9015,6.9015,6.9015,6.9015,6.9015,6.9015,6.9335,7.0236,7.0353,7.1138,7.3261,7.3523,7.4163,7.5849,7.6373,7.6635,7.6635,7.6635,7.6635,7.6635,7.6635,7.6635,7.6635,7.6324,7.5558,7.4465,7.2045,7.0215,6.8916,6.63,6.5062,6.5062,6.478,6.4447,3.8473,4.0621,4.3131,4.6911,4.7812,4.8918,5.2728,5.3699,5.4008,5.5346,5.5636,5.6015,5.7294,5.7527,5.7934,5.9097,6.0435,6.1308,0.0,0.0,0.0,0.0,0.0,0.0,0.0,0.0,0.0,0.0,0.0,0.0,0.0,0.0,0.0,0.0,6.9015,6.9015,6.9015,6.9015,6.9015,6.9015,6.9015,6.9015,6.9015,6.9015,6.9015,6.9015,6.9015,6.9015,6.9015,6.9015,6.9015,6.9015,6.9015,6.9015,6.9015,6.9015,6.9015,6.9015,6.9015,6.9015,6.9015,6.9015,6.9015,6.9015,6.9015,6.9015,6.9015,6.9015,6.9015,6.9015,6.9015,6.9015,6.9015,6.9015,6.9015,6.9015,6.9015,6.9015,6.9015,6.9015,6.9015,6.9015,6.9015,6.9015,6.9015,6.9044,6.9044,6.948,7.0789,7.0963,7.1894,7.4366,7.582,7.6635,7.6635,7.6635,7.6635,7.6635,7.6635,7.6635,7.6635,7.6635,7.6635,7.6494,7.2914,7.1082,7.1082,6.738,6.5532,6.5532,6.5062,6.4921,3.7839,4.0051,4.2177,4.5609,4.7871,4.9733,5.1827,5.2961,5.3455,5.3019,5.363,5.4357,5.4764,5.6974,5.8574,5.8138,5.9883,6.1195,0.0,0.0,0.0,0.0,0.0,0.0,0.0,0.0,0.0,0.0,0.0,0.0,0.0,0.0,0.0,0.0,6.9015,6.9015,6.9015,6.9015,6.9015,6.9015,6.9015,6.9015,6.9015,6.9015,6.9015,6.9015,6.9015,6.9015,6.9015,6.9015,6.9015,6.9015,6.9015,6.9015,6.9015,6.9015,6.9015,6.9015,6.9015,6.9015,6.9015,6.9015,6.9015,6.9015,6.9015,6.9015,6.9015,6.9015,6.9015,6.9015,6.9015,6.9015,6.9015,6.9015,6.9015,6.9247,7.0149,6.9626,6.9277,7.0149,6.9596,6.9015,6.9015,6.9015,6.9015,6.9015,6.9015,6.916,6.9567,7.0382,7.1225,7.201,7.3988,7.5617,7.6547,7.6635,7.6635,7.6635,7.6635,7.6635,7.6635,7.6635,7.6635,7.6635,7.4377,7.2672,7.1538,6.8916,6.711,6.6074,6.5557,6.5227,3.6749,3.8852,4.1031,4.4392,4.5961,4.7012,4.8664,5.0398,5.1532,5.1035,5.1594,5.2146,5.2146,5.488,5.7062,5.68,5.8894,6.0726,6.1108,0.0,0.0,0.0,0.0,0.0,0.0,0.0,0.0,0.0,0.0,0.0,0.0,0.0,0.0,6.9015,6.9015,6.9015,6.9015,6.9015,6.9015,6.9015,6.9015,6.9015,6.9015,6.9015,6.9015,6.9015,6.9015,6.9015,6.9015,6.9015,6.9015,6.9015,6.9015,6.9015,6.9015,6.9015,6.9015,6.9015,6.9015,6.9015,6.9015,6.9015,6.9015,6.9015,6.9015,6.9015,6.9015,6.9015,6.9015,6.9015,6.9015,6.9015,6.9015,6.9015,6.9015,6.9364,7.0643,6.9916,6.9393,7.0673,6.9887,6.9015,6.9015,6.9015,6.9015,6.9015,6.9015,6.9015,6.9015,6.9713,7.0382,7.0876,7.2301,7.3959,7.5733,7.6344,7.6635,7.6635,7.6042,7.6013,7.6635,7.6635,7.6324,7.5729,7.4057,7.2523,7.0804,6.8969,6.7432,6.6564,6.6049,6.5721,3.5198,3.7089,3.9569,4.2842,4.2603,4.2139,4.4265,4.6616,4.8529,4.928,4.9434,4.9434,4.9554,5.1557,5.3833,5.5462,5.7643,5.9621,6.0847,0.0,0.0,0.0,0.0,0.0,0.0,0.0,0.0,0.0,0.0,0.0,0.0,0.0,0.0,6.9015,6.9015,6.9015,6.9015,6.9015,6.9015,6.9015,6.9015,6.9015,6.9015,6.9015,6.9015,6.9015,6.9015,6.9015,6.9015,6.9015,6.9015,6.9015,6.9015,6.9015,6.9015,6.9015,6.9015,6.9015,6.9015,6.9015,6.9015,6.9015,6.9015,6.9015,6.9015,6.9015,6.9015,6.9015,6.9015,6.9015,6.9015,6.9015,6.9015,6.9015,6.9015,6.9364,7.0643,6.9916,6.9393,7.0673,6.9887,6.9015,6.9015,6.9015,6.9015,6.9015,6.9015,6.9015,6.9015,6.9015,6.948,7.0673,7.0876,7.1865,7.4163,7.5675,7.6349,7.6179,7.4783,7.4695,7.6154,7.6183,7.5586,7.4085,7.2495,7.0957,6.9335,6.7778,6.7025,6.6863,6.6564,6.6238,3.4208,3.5022,3.6184,3.8631,4.1063,4.3257,4.4596,4.6125,4.7023,4.6203,4.6102,4.6289,4.7053,4.8546,5.1289,5.626,5.7556,5.837,5.9592,5.8981,5.9243,6.1482,0.0,0.0,0.0,0.0,0.0,0.0,0.0,0.0,0.0,0.0,6.9015,6.9015,6.9015,6.9015,6.9015,6.9015,6.9015,6.9015,6.9015,6.9015,6.9015,6.9015,6.9015,6.9015,6.9015,6.9015,6.9015,6.9015,6.9015,6.9015,6.9015,6.9015,6.9015,6.9015,6.9015,6.9015,6.9015,6.9015,6.9015,6.9015,6.9015,6.9015,6.9015,6.9015,6.9015,6.9015,6.9015,6.9015,6.9015,6.9015,6.9015,6.9015,6.9015,6.9364,7.0643,6.9916,6.9393,7.0673,6.9887,6.9015,6.9015,6.9015,6.9015,6.9015,6.9015,6.9015,6.9015,6.9015,6.9131,6.9422,7.0324,7.1167,7.1749,7.3814,7.4094,7.1755,7.2147,7.2495,7.2914,7.2914,7.2617,7.2318,7.184,7.0957,6.9335,6.9021,6.8097,6.6863,6.6701,6.6564,3.3809,3.4678,3.5655,3.6786,3.9444,4.1873,4.2466,4.3545,4.4314,4.4106,4.3969,4.4346,4.5546,4.6257,4.8274,5.3367,5.6128,5.7934,5.9126,5.9272,5.9766,0.0,0.0,0.0,0.0,0.0,0.0,0.0,0.0,0.0,0.0,0.0,6.9015,6.9015,6.9015,6.9015,6.9015,6.9015,6.9015,6.9015,6.9015,6.9015,6.9015,6.9015,6.9015,6.9015,0.0,6.9015,6.9015,6.9015,6.9015,6.9015,6.9015,6.9015,6.9015,6.9015,6.9015,6.9015,6.9015,6.9015,6.9015,6.9015,6.9015,6.9015,6.9015,6.9015,6.9015,6.9015,6.9015,6.9015,6.9015,6.9015,6.9015,6.9015,6.9015,6.9364,7.0643,6.9916,6.9393,7.0673,6.9887,6.9015,6.9015,6.9015,6.9015,6.9015,6.9015,6.9015,6.9015,6.9015,6.9015,6.9015,6.9626,7.0007,6.9816,7.1079,7.135,7.0235,7.0745,7.1143,7.1662,7.1689,7.1414,7.0677,7.0677,6.9906,6.8256,6.8256,6.7778,6.6863,6.6863,6.6701,3.4053,3.5266,3.6445,3.6734,3.8244,3.9722,4.0061,4.0812,4.1617,4.2401,4.2585,4.2882,4.4164,4.4347,4.5605,4.9386,5.3769,5.7276,5.8807,5.9999,6.0784,6.0959,0.0,0.0,0.0,0.0,0.0,0.0,0.0,0.0,0.0,6.9015,6.9015,6.9015,6.9015,6.9015,6.9015,6.9015,6.9015,6.9015,6.9015,6.9015,6.9015,6.9015,6.9015,0.0,0.0,6.9015,6.9015,6.9015,6.9015,6.9015,6.9015,6.9015,6.9015,6.9015,6.9015,6.9015,6.9015,6.9015,6.9015,6.9015,6.9015,6.9015,6.9015,6.9015,6.9015,6.9015,6.9015,6.9015,6.9015,6.9015,6.9015,6.9015,6.9015,6.9306,7.0382,6.9771,6.9335,7.044,6.9771,6.9015,6.9015,6.9015,6.9015,6.9015,6.9015,6.9015,6.9015,6.9015,6.9015,6.9015,6.9015,6.8882,6.8755,6.8581,6.8748,6.9194,6.9009,6.9458,7.0633,7.0687,7.0182,6.9021,6.9021,6.8256,6.6863,6.6863,6.6863,6.6863,6.6863,6.6863,3.523,3.5807,3.6657,3.8489,3.8863,3.9182,4.0956,4.085,4.0526,4.0596,4.0596,4.0936,4.1949,4.3018,4.483,4.8207,5.1055,5.4023,5.7334,5.7963,5.8458,5.9475,6.0784,0.0,0.0,0.0,0.0,0.0,0.0,0.0,0.0,6.9015,6.9015,6.9015,6.9015,6.9015,6.9015,6.9015,6.9015,6.9015,6.9015,6.9015,6.9015,6.9015,6.9015,0.0,0.0,0.0,6.9015,6.9015,6.9015,6.9015,6.9015,6.9015,6.9015,6.9015,6.9015,6.9015,6.9015,6.9015,6.9015,6.9015,6.9015,6.9015,6.9015,6.9015,6.9015,6.9015,6.9015,6.9015,6.9015,6.9015,6.9015,6.9015,6.9015,6.9073,6.9247,6.916,6.9073,6.9277,6.916,6.9015,6.9015,6.9015,6.9015,6.9015,6.9015,6.9015,6.9015,6.9015,6.9015,6.9015,6.9015,6.8946,6.8993,6.882,6.7611,6.5249,6.3837,6.407,6.6178,6.6281,6.656,6.7322,6.7322,6.7187,6.6863,6.6863,6.6863,6.6863,6.6863,6.6863,3.567,3.7308,3.8971,3.9268,3.9799,4.0263,4.0781,4.0526,4.0235,4.0235,4.0235,4.0332,4.0814,4.1779,4.3375,4.6122,4.8045,5.0608,5.489,5.7268,5.8952,6.0232,6.093,6.1921,0.0,0.0,0.0,0.0,0.0,6.9015,0.0,6.9015,6.9015,6.9015,6.9015,6.9015,6.9015,6.9015,6.9015,6.9015,6.9015,6.9015,6.9015,6.9015,6.9015,0.0,0.0,0.0,6.9015,6.9015,6.9015,6.9015,6.9015,6.9015,6.9015,6.9015,6.9015,6.9015,6.9015,6.9015,6.9015,6.9015,6.9015,6.9015,6.9015,6.9015,6.9015,6.9015,6.9015,6.9015,6.9015,6.9015,6.9015,6.9015,6.9015,6.9015,6.9015,6.9015,6.9015,6.9015,6.9015,6.9015,6.9015,6.9015,6.9015,6.9015,6.9015,6.9015,6.9015,6.9015,6.9015,6.9015,6.9015,6.8704,6.785,6.6139,6.4661,6.3333,6.2392,6.2367,6.3408,6.4043,6.4882,6.5999,6.6558,6.6863,6.6863,6.6863,6.6863,6.6863,6.6863,6.6863,3.6856,0.0,4.0737,3.9893,4.0474,4.117,0.0,4.0429,4.0235,4.0235,4.0235,4.0235,4.0235,4.0814,4.2093,4.4724,4.5726,4.8003,5.2742,5.6089,5.8569,6.015,6.0668,6.1337,6.2616,0.0,0.0,0.0,0.0,6.9015,0.0,6.9015,6.9015,6.9015,6.9015,6.9015,6.9015,6.9015,6.9015,6.9015,6.9015,6.9015,6.9112,6.9015,0.0,0.0,0.0,0.0,6.9015,6.9015,6.9015,6.9015,6.9015,6.9015,6.9015,6.9015,6.9015,6.9015,6.9015,6.9015,6.9015,6.9015,6.9015,6.9015,6.9015,6.9015,6.9015,6.9015,6.9015,6.9015,6.9015,6.9015,6.9015,6.9015,6.9015,6.9015,6.9015,6.9015,6.9015,6.9015,6.9015,6.9015,6.9015,6.9015,6.9015,6.9015,6.9015,6.9015,6.9015,6.9015,6.9015,6.9015,6.8732,6.8008,6.6829,6.3988,6.2346,6.2346,6.1851,6.163,6.1734,6.2697,6.3713,6.4856,6.5669,6.6076,6.6076,6.6355,6.6482,6.6508,6.6736,6.6863,0.0,4.0179,4.0138,4.0902,4.0667,4.0526,4.136,4.0814,0.0,4.0235,4.0235,4.0235,4.0235,4.0332,4.144,4.4623,4.5169,4.6828,5.1507,5.3384,5.5098,5.7509,5.8748,5.997,6.1195,0.0,0.0,0.0,0.0,0.0,0.0,6.9015,6.9015,6.9015,6.9015,6.9015,6.9015,6.9015,6.9015,6.9015,6.9015,6.9112,6.9371,6.9112,0.0,0.0,0.0,0.0,0.0,6.9015,6.9015,6.9015,6.9015,6.9015,6.9015,6.9015,6.9015,6.9015,6.9015,6.9015,6.9015,6.9015,6.9015,6.9015,6.9015,6.9015,6.9015,6.9015,6.9015,6.9015,6.9015,6.9015,6.9015,6.9015,6.9015,6.9015,6.9015,6.9015,6.9015,6.9015,6.9015,6.9015,6.9015,6.9015,6.9015,6.9015,6.9015,6.9015,6.9015,6.9015,6.9015,6.9015,6.7693,6.6829,6.6698,6.3988,6.2346,6.2346,6.1103,6.0817,6.1859,6.181,6.2545,6.3637,6.3739,6.3789,6.3789,6.4882,6.5415,6.5441,6.6406,6.6863,4.2364,4.1478,4.0494,4.2043,4.1353,4.0332,4.0718,4.0526,4.0235,4.0235,4.0235,4.0235,4.0235,4.0235,4.1073,4.3734,4.4172,4.5499,4.9365,5.1562,5.3691,5.6203,5.8807,6.0726,0.0,6.2907,0.0,0.0,0.0,0.0,0.0,6.9015,6.8576,6.7564,6.7564,6.7564,6.7564,6.7564,6.7564,6.7564,6.7564,6.7822,6.8391,6.9054,0.0,0.0,0.0,0.0,0.0,6.9112,6.9015,6.9015,6.9015,6.9015,6.9015,6.9015,6.9015,6.9015,6.9015,6.9015,6.9015,6.9015,6.9015,6.9015,6.9015,6.9015,6.9015,6.9015,6.9015,6.9015,6.9015,6.9015,6.9015,6.9015,6.9015,6.9015,6.9015,6.9015,6.8732,6.7722,6.7564,6.7305,6.6387,6.6227,6.6227,6.6227,6.6227,6.6491,6.7434,6.7564,6.7564,6.7564,6.6988,6.6011,6.4125,6.2231,6.1026,6.1026,6.0499,6.0411,6.0842,6.0868,6.1376,6.2494,6.2519,6.2849,6.3535,6.3993,6.4221,6.4221,6.4628,6.4806,4.4899,4.3939,4.2475,4.3078,4.222,4.1127,4.0414,4.0235,4.0235,4.0235,4.0235,4.0235,4.0235,4.0541,4.1307,4.3263,4.3796,4.5086,4.8177,5.0214,5.2463,5.4921,5.7719,5.9759,6.0499,0.0,0.0,0.0,0.0,0.0,6.7687,6.8091,6.7592,6.6039,6.6039,6.6039,6.6039,6.6039,6.6039,6.6039,6.6039,6.6595,6.7722,6.8078,0.0,0.0,0.0,0.0,0.0,6.9083,6.9238,6.9238,6.9141,6.9015,6.9112,6.9015,6.9015,6.9015,6.9015,6.9015,6.9015,6.9015,6.9015,6.9015,6.9015,6.9015,6.9015,6.9015,6.9015,6.9015,6.9015,6.9015,6.8888,6.842,6.8293,6.8165,6.7621,6.7621,6.7333,6.6171,6.6039,6.5612,6.4725,6.4561,6.4561,6.4561,6.4561,6.4833,6.5906,6.6039,6.6039,6.6039,6.5612,6.4398,6.1975,6.0763,6.0233,6.0233,6.0233,6.0233,6.0233,6.0233,6.0588,6.1351,6.1376,6.1732,6.2494,6.2494,6.2672,6.3027,6.3027,6.3205,4.7799,4.7496,4.6337,4.4101,4.3622,4.3037,4.0796,4.0286,4.0286,4.0235,4.0235,4.0235,4.0235,4.1053,4.2196,4.3365,4.4457,4.593,4.8217,4.9518,5.1119,5.3551,5.4866,5.6585,5.9076,6.1657,6.3198,0.0,0.0,0.0,6.4949,6.6049,6.6011,6.4561,6.4561,6.4561,6.4561,6.4561,6.4561,6.4561,6.4561,6.5506,6.7248,6.6199,6.6754,0.0,0.0,0.0,0.0,6.9121,6.9649,6.9926,6.9238,6.9208,6.9371,6.9112,6.9015,6.9015,6.9015,6.9015,6.9015,6.9015,6.9015,6.9015,6.9015,6.9015,6.9015,6.9015,6.9015,6.9015,6.9015,6.9015,6.8576,6.6988,6.6698,6.6303,6.4833,6.4561,6.4561,6.4561,6.4561,6.4561,6.4425,6.4425,6.4425,6.4425,6.4425,6.4425,6.4561,6.4561,6.4561,6.4561,6.3186,6.1833,6.0353,6.0233,6.0233,6.0233,6.0233,6.0233,6.0233,6.0233,6.0233,6.0233,6.0233,6.0233,6.0233,6.0233,6.0792,6.1734,6.1734,6.2468,4.9001,4.8271,4.7099,4.7988,4.7023,4.5295,4.306,4.2526,4.2145,4.0566,4.0235,4.0235,4.0235,4.1053,4.2171,4.3314,4.5117,4.687,4.8318,5.0219,5.228,5.4859,5.6146,5.7781,6.047,6.1395,6.1866,0.0,0.0,0.0,6.3491,6.2847,6.2202,6.182,6.262,6.3047,6.3047,6.3047,6.3047,6.3047,6.3047,6.3904,6.5455,6.5962,6.6359,6.6913,0.0,0.0,0.0,6.8334,6.8743,6.8898,6.943,6.9679,6.9803,6.943,6.943,6.9584,6.9141,6.9112,6.9305,6.9112,6.9015,6.9141,6.9584,6.9708,6.9584,6.9305,6.9275,6.9179,6.8986,6.8165,6.6988,6.5506,6.5103,6.5103,6.4589,6.4561,6.4289,6.3186,6.3047,6.2654,6.1716,6.1457,6.1457,6.1457,6.1457,6.1859,6.2934,6.3047,6.3047,6.3047,6.1716,6.0763,6.0233,6.0233,6.0233,6.0233,6.0233,6.0233,6.0233,6.0233,6.0233,6.0233,6.0233,6.0233,6.0233,6.0233,6.0385,6.0741,6.0741,6.0893,5.0887,5.0554,4.9639,5.0097,4.9182,4.7505,4.4787,4.3822,4.3062,4.118,4.0566,4.0291,4.0326,4.1536,4.2905,4.4125,4.6112,4.8064,4.9639,5.1009,5.2807,5.5275,5.6222,5.7325,5.951,5.9682,5.9644,5.9605,0.0,0.0,5.9846,5.9018,5.8712,5.918,6.0299,6.0897,6.0897,6.134,6.1574,6.1574,6.1574,6.2566,6.426,6.4643,6.5158,6.615,6.6623,0.0,0.0,6.7664,6.8078,6.8206,6.8646,6.8772,6.884,6.849,6.8519,6.8675,6.8321,6.8548,6.8995,6.883,6.8293,6.775,6.8206,6.805,6.7764,6.7507,6.7478,6.7377,6.7333,6.6491,6.5506,6.4015,6.374,6.3463,6.296,6.282,6.254,6.169,6.1574,6.1288,6.0379,6.0233,6.0233,6.0233,6.0233,6.0499,6.1431,6.1574,6.1574,6.1574,6.0763,6.0233,6.0233,6.0233,6.0233,6.0233,6.0233,6.0233,6.0233,6.0233,6.0233,6.0233,6.0233,6.0233,6.0233,6.0233,6.0233,6.0233,6.0233,6.0233,5.3092,5.3501,5.3018,5.0986,5.0503,4.9614,4.621,4.4584,4.3415,4.2094,4.0926,4.0173,4.0363,4.21,4.384,4.5146,4.7144,4.9297,5.142,5.1825,5.2737,5.5107,5.5364,5.5935,5.723,5.7351,5.7351,5.7351,0.0,0.0,5.5,5.5101,5.5795,5.6839,5.7985,5.848,5.8582,5.9716,6.0277,6.0379,6.0379,6.1483,6.3571,6.2874,6.3709,6.5644,6.6018,0.0,0.0,6.6857,6.7406,6.7693,6.7101,6.7073,6.7248,6.697,6.6867,6.6998,6.6895,6.752,6.8362,6.8235,6.7146,6.5934,6.5934,6.5399,6.486,6.4725,6.4725,6.4725,6.4561,6.4425,6.4015,6.2767,6.2372,6.1833,6.0499,6.0233,6.0233,6.0233,6.0233,6.0233,6.0233,6.0233,6.0233,6.0233,6.0233,6.0233,6.0233,6.0233,6.0233,6.0233,6.0233,6.0233,6.0233,6.0233,6.0233,6.0233,6.0233,6.0233,6.0233,6.0233,6.0233,6.0233,6.0233,6.0233,6.0233,6.0233,6.0233,6.0233,6.0233,6.0233,5.332,5.3501,5.3399,5.2916,5.2815,5.1926,4.8572,4.6947,4.5321,4.2425,4.0377,3.9429,4.026,4.1622,4.2985,4.4007,4.6629,4.9094,5.0304,5.1275,5.2833,5.5086,5.5364,5.5935,5.723,5.7351,5.7351,5.7351,5.6645,0.0,5.2672,5.4271,5.5546,5.631,5.7444,5.85,5.9236,6.0169,6.0741,6.1196,6.1769,6.2452,6.3571,6.3432,6.3874,6.4889,6.4997,0.0,0.0,6.6123,6.6491,6.6623,6.7305,6.7693,6.7664,6.7276,6.7434,6.7592,6.6998,6.7073,6.7406,6.7231,6.7333,6.7406,6.7406,6.7276,6.6988,6.6095,6.5962,6.5695,6.4725,6.374,6.2767,6.2487,6.1574,6.0618,6.0353,6.0233,6.0233,6.0233,6.0233,6.0233,6.0233,6.0233,6.0233,6.0233,6.0233,6.0233,6.0233,6.0233,6.0233,6.0233,6.0233,6.0233,6.0233,6.0233,6.0233,6.0233,6.0233,6.0233,6.0233,6.0233,6.0233,6.0233,6.0233,6.0233,6.0233,6.0233,6.0233,6.0233,6.0233,6.0233,5.3501,5.3501,5.3501,5.3501,5.3501,5.2788,4.9989,4.8513,4.6702,4.342,4.112,3.9918,4.0484,4.158,4.2869,4.44,4.69,4.9016,5.0024,5.1161,5.2324,5.3579,5.4094,5.4732,5.5436,5.5436,5.5285,5.4781,5.4579,5.345,5.1236,5.2286,5.3253,5.4075,5.5566,5.6839,5.7863,5.9774,6.0777,6.1075,6.1906,6.2874,6.3571,6.3571,6.4012,6.478,6.478,0.0,6.4752,6.5241,6.551,6.5644,6.615,6.6283,6.6283,6.615,6.615,6.6311,6.594,6.6283,6.6754,6.6073,6.5778,6.5801,6.5801,6.5534,6.513,6.4616,6.448,6.4343,6.3655,6.268,6.2001,6.2001,6.1026,6.0233,6.0233,6.0639,6.0868,6.0334,6.0665,6.0868,6.0334,6.0233,6.0233,6.0233,6.0233,6.0233,6.0233,6.0233,6.0233,6.0233,6.0233,6.0233,6.0233,6.0233,6.0233,6.0233,6.0233,6.0233,6.0233,6.0233,6.0233,6.0233,6.0233,6.0233,6.0233,6.0233,6.0233,6.0233,6.0233,6.0233,5.345,5.3501,5.3346,5.2988,5.2938,5.2376,5.0073,4.8788,4.7269,4.4607,4.2208,4.0733,4.0999,4.1653,4.28,4.4884,4.6701,4.8285,4.9595,5.0568,5.1175,5.1637,5.2431,5.298,5.298,5.298,5.2587,5.1661,5.2456,5.2167,5.027,5.0405,5.0834,5.1661,5.3278,5.4631,5.5633,5.8322,5.9801,6.0174,6.1442,6.2555,6.3413,6.3629,6.4177,6.478,6.478,0.0,6.478,6.478,6.478,6.478,6.478,6.478,6.478,6.478,6.478,6.478,6.478,6.5268,6.5884,6.4997,6.4315,6.3709,6.3709,6.3293,6.2733,6.2593,6.2593,6.2593,6.2452,6.2027,6.1626,6.1626,6.1077,6.0644,6.0499,6.1244,6.1805,6.0944,6.1554,6.1833,6.0715,6.0512,6.0461,6.0258,6.0233,6.0233,6.0233,6.0233,6.0233,6.0233,6.0233,6.0233,6.0233,6.0233,6.0233,6.0233,6.0233,6.0233,6.0233,6.0233,6.0233,6.0233,6.0233,6.0233,6.0233,6.0233,6.0233,6.0233,6.0233,6.0233,5.3247,5.3501,5.3013,5.121,5.0705,5.0152,4.7905,4.6644,4.5706,4.5198,4.287,4.1022,4.2036,4.176,4.17,4.2856,4.3889,4.5409,4.7352,4.7759,4.8489,5.0309,5.0675,5.081,5.081,5.081,5.0675,5.054,5.0968,5.0699,4.9477,5.0294,5.0968,5.0992,5.1577,5.2469,5.3864,5.4926,5.6371,5.8265,6.0179,6.1743,6.3117,6.4153,6.4616,6.478,0.0,0.0,6.478,6.478,6.478,6.478,6.478,6.478,6.478,6.478,6.478,6.478,6.478,6.4752,6.4889,6.4752,6.4616,6.4616,6.4616,6.4479,6.4342,6.3571,6.3432,6.3293,6.2593,6.231,6.231,6.231,6.2169,6.1885,6.1339,6.21,6.2836,6.3103,6.323,6.2976,6.1859,6.1681,6.1351,6.0385,6.0233,6.0233,6.0233,6.0233,6.0233,6.0233,6.0233,6.0233,6.0233,6.0233,6.0233,6.0233,6.0233,6.0233,6.0233,6.0233,6.0233,6.0233,6.0233,6.0233,6.0233,6.0233,6.0233,6.0233,6.0233,6.0233,5.0131,5.0127,4.9876,4.9003,4.8754,4.8226,4.6677,4.5753,4.5034,4.4683,4.2497,4.0728,4.1294,4.1001,4.0686,4.0947,4.2914,4.475,4.5725,4.702,4.8416,4.9246,4.9975,5.0405,5.0405,5.0405,5.0134,4.943,4.8927,4.8674,4.8281,4.8835,4.9249,4.9386,4.9863,5.0573,5.1574,5.3332,5.4826,5.6057,5.7565,5.9224,6.0859,6.2041,6.2577,6.2468,0.0,6.4177,6.3544,6.4315,6.478,6.478,6.478,6.478,6.478,6.478,6.478,6.478,6.478,6.4177,6.3266,6.2399,6.268,6.3405,6.3405,6.4012,6.4616,6.4315,6.4177,6.4177,6.3763,6.3459,6.3014,6.3014,6.3237,6.348,6.3193,6.3939,6.4819,6.5201,6.4302,6.3205,6.2087,6.1376,6.0792,6.0309,6.0233,6.0233,6.0233,6.0233,6.0233,6.0233,6.0233,6.0233,6.0233,6.0233,6.0233,6.0233,6.0233,6.0233,6.0233,6.0233,6.0233,6.0233,6.0233,6.0233,6.0233,6.0233,6.0233,6.0233,6.0233,5.9915,4.7496,4.7466,4.7188,4.6502,4.6374,4.6035,4.4804,4.42,4.3908,4.3655,4.1958,4.0476,4.0631,4.0288,3.9928,3.9631,4.1752,4.3481,4.3732,4.5425,4.6897,4.7469,4.8328,4.9018,4.9453,4.9453,4.8743,0.0,4.6364,4.6124,4.6408,4.6855,4.716,4.7559,4.8397,4.9041,4.9703,5.1622,5.3098,5.382,5.4921,5.6406,5.8098,5.925,5.9774,5.9853,6.2193,6.2535,6.1503,6.2993,6.3598,6.3598,6.3598,6.3598,6.3598,6.3598,6.3736,6.4012,6.3736,6.282,6.1638,6.0465,6.0923,6.178,6.178,6.268,6.3598,6.3598,6.3598,6.3598,6.3598,6.3127,6.268,6.268,6.3465,6.4219,6.4073,6.5315,6.6372,6.6331,6.52,6.3892,6.3071,6.1821,6.083,6.055,6.0379,6.0233,6.0233,6.0233,6.0233,6.0233,6.0233,6.0233,6.0233,6.0233,6.0233,6.0233,6.0233,6.0233,6.0233,6.0233,6.0233,6.0233,6.0233,6.0087,5.9768,5.9768,5.9622,5.9302,5.9302,5.8858,4.7177,4.7466,4.6782,4.4203,4.3521,4.3095,4.1408,4.1084,4.1347,4.2281,4.1609,4.0861,4.0861,3.9977,3.9257,3.9317,3.9397,3.9896,4.0942,4.1185,4.2084,4.4583,4.4978,4.5574,4.7019,4.716,4.5982,4.2879,0.0,4.2984,4.2964,4.4604,4.5466,4.573,4.6974,4.7885,4.8326,4.8743,4.9821,5.1443,5.2653,5.3964,5.547,5.6567,5.7078,5.7155,5.8278,5.8763,5.8839,5.9911,6.0345,6.0345,6.0345,6.0345,6.0345,6.0345,6.121,6.2372,6.0779,6.02,6.02,6.0055,6.02,6.0175,6.0175,6.02,6.0345,6.0345,6.0345,6.0345,6.0345,6.0345,6.02,6.02,6.2209,6.3942,6.3239,6.5089,6.6727,6.6135,6.5836,6.581,6.5757,6.4167,6.2582,6.1521,6.0789,6.0233,6.0233,6.0233,6.0233,6.0233,6.0233,6.0233,6.0233,6.0233,6.0233,6.0233,6.0233,6.0233,6.0233,6.0233,6.0233,6.0233,6.0233,5.9622,5.8387,5.8387,5.7764,5.6682,5.6682,5.6682,4.1945,4.2278,4.2508,4.1071,4.0673,4.0639,4.0016,3.9544,3.9764,4.1095,4.0336,3.9377,3.9377,3.9125,3.8482,3.7507,3.8668,3.9713,4.017,4.1094,4.2094,4.3151,4.3192,4.3485,4.3922,4.2943,4.2336,4.2437,4.2437,4.2711,4.3298,4.388,4.446,4.5036,4.5266,4.5431,4.5574,4.643,4.7256,4.7794,4.9553,5.1093,5.2737,5.3964,5.4461,5.4373,5.6553,5.6894,5.61,5.7463,5.8469,5.9131,5.9131,5.942,6.0055,6.0055,6.0465,6.049,5.8039,5.7739,5.8462,5.7463,5.7739,5.861,5.861,5.9324,6.0055,6.0055,6.0055,6.0055,6.0055,6.0055,6.0055,6.0055,6.1335,6.2598,6.2302,6.3701,6.4679,6.3434,6.3682,6.342,6.1422,6.1626,6.171,6.0779,5.9129,5.8362,5.9546,5.9693,6.0277,6.1483,6.1196,6.1077,6.1077,6.0499,6.0233,6.0233,5.9474,5.9006,5.9006,5.8213,5.7914,5.7914,5.7914,5.7614,5.7161,5.7161,5.701,5.653,5.653,5.6095,3.7927,3.834,3.9073,3.8623,3.8857,3.901,3.8731,3.8375,3.827,3.8541,3.7769,3.6793,3.6191,3.6075,3.5903,3.4633,3.5955,3.6967,3.685,3.7914,3.8961,3.9538,3.9767,4.0238,4.1321,3.8755,0.0,3.8661,3.8922,3.9525,4.0576,4.1192,4.2082,4.3444,4.3777,4.4089,4.4379,4.5101,4.5553,4.5553,4.6811,4.8328,4.9839,5.11,5.1435,5.1044,5.3746,5.4237,5.3466,5.4795,5.5785,5.643,5.643,5.7099,5.7918,5.7918,5.7918,5.7697,5.6024,5.6143,5.673,5.5705,5.6143,5.701,5.701,5.7739,5.8462,5.8462,5.8462,5.8462,5.8462,5.8462,5.8462,5.8462,5.9729,6.0955,6.0955,6.2165,6.2849,6.1955,6.2051,6.1517,5.9211,6.0064,6.0827,5.9798,5.8189,5.7565,5.8635,5.861,5.9054,6.0251,6.0686,6.0712,6.0712,6.0907,6.0933,6.0644,5.9424,5.8511,5.8387,5.7161,5.653,5.653,5.653,5.6377,5.5942,5.5942,5.5788,5.5326,5.5326,5.4885,3.5429,3.6334,3.6917,3.7118,3.7716,3.8065,3.7503,3.7223,3.6687,3.4575,3.4138,3.3334,3.1126,3.1264,3.1514,3.0843,3.1296,3.1498,3.0828,3.1311,3.2145,3.3719,3.4318,3.5954,3.9036,3.4643,3.1594,3.1578,3.2184,3.3189,3.4794,3.6299,3.8293,4.0784,4.2417,4.3756,4.446,4.446,4.4626,4.4604,4.4626,4.5466,4.6885,4.8328,4.8189,4.693,4.9503,5.0675,5.0768,5.182,5.2288,5.2311,5.2311,5.2942,5.383,5.3657,5.3657,5.3843,5.4845,5.5218,5.5218,5.5241,5.5265,5.5265,5.5265,5.5265,5.5265,5.5265,5.542,5.542,5.542,5.542,5.542,5.542,5.7342,5.9431,5.9431,6.0603,6.1655,6.1655,6.067,5.9935,5.9909,5.9935,5.9642,5.8437,5.8288,5.7865,5.7185,5.6858,5.6682,5.6682,5.8313,5.9496,5.9496,6.1118,6.2027,6.1339,6.0106,5.8932,5.8238,5.701,5.6377,5.6377,5.6377,5.5942,5.4775,5.4775,5.415,5.2933,5.2933,5.2933,3.4838,3.5262,3.5441,3.5036,3.433,3.3672,3.29,3.1964,3.1202,3.058,3.0806,3.0966,3.0323,3.0563,3.0952,3.0765,3.089,3.0952,3.075,3.089,3.1165,3.1567,3.1726,3.1686,3.1369,3.005,2.9672,3.0865,3.1353,3.2123,3.3402,3.4185,3.5185,3.6642,3.7105,3.8043,3.9449,4.0615,4.1806,4.3025,4.4192,4.4893,4.5323,4.5752,4.5752,4.5345,4.7175,4.7876,4.8039,4.9507,5.0511,5.1166,5.1166,5.182,5.2538,5.0655,5.0417,5.121,5.2076,5.2415,5.2373,5.1761,5.1661,5.1661,5.1661,5.2481,5.3634,5.3634,5.444,5.542,5.542,5.542,5.542,5.542,5.5917,5.6569,5.6569,5.6854,5.7161,5.683,5.7056,5.6996,5.5953,5.7199,5.7877,5.6826,5.6095,5.5658,5.511,5.6248,5.7541,5.9029,5.9054,5.9079,5.9079,5.8784,5.8511,5.8362,5.6858,5.5966,5.5812,5.4597,5.3836,5.3836,5.3836,5.3679,5.3386,5.3386,5.325,5.2933,5.2933,5.2933,3.1411,3.1281,3.1713,3.2831,3.1887,3.0737,3.0844,2.992,2.8736,2.7752,2.7873,2.7916,2.6824,2.7151,2.7487,2.7224,2.7489,2.7736,2.7619,2.8042,2.8244,2.8244,2.7052,2.5974,2.4941,2.5169,2.562,2.6667,2.7619,2.8866,3.0129,3.1009,3.2139,3.3594,3.3916,3.4525,3.5601,3.677,3.7987,3.8886,4.0738,4.2102,4.2671,4.2711,4.3464,4.4749,4.5609,4.5894,4.6036,4.6907,4.7667,4.8185,4.8185,4.8793,4.9456,4.7974,4.7833,4.8469,4.9477,5.009,5.0194,4.9786,4.9891,5.0188,5.0188,5.0857,5.1683,5.1683,5.2481,5.3138,5.3138,5.3138,5.3138,5.3138,5.3138,5.3454,5.4128,5.4307,5.444,5.4931,5.5418,5.565,5.4914,5.5754,5.6387,5.5776,5.5396,5.4931,5.4486,5.5504,5.653,5.7565,5.7161,5.7312,5.8039,5.8313,5.8189,5.7914,5.6554,5.5504,5.5086,5.3836,5.3069,5.2933,5.2933,5.2933,5.2933,5.2933,5.2933,5.2774,5.2091,5.1405,2.6581,2.6083,2.7275,3.0232,2.9658,2.8591,0.0,2.8889,2.7508,2.5556,2.508,2.4429,2.247,2.2446,2.2691,2.2105,2.2962,2.3452,2.2786,2.3734,2.4401,2.4317,2.1819,2.023,2.0271,2.0673,2.1092,2.1092,2.2544,2.4319,2.5923,2.7352,2.907,3.1236,3.1471,3.2017,3.2592,3.3319,3.3752,3.392,3.6071,3.78,3.9261,3.943,4.1102,4.388,4.388,4.4171,4.446,4.4604,4.477,4.477,4.477,4.4947,4.5348,4.5687,4.5836,4.5793,4.6767,4.7677,4.8396,4.845,4.8901,4.9411,4.9516,4.97,4.9863,4.9863,5.0026,5.0188,5.0188,5.0188,5.0188,5.0188,5.0188,5.0534,5.2185,5.2503,5.298,5.4463,5.4775,5.4931,5.5086,5.5086,5.5017,5.4784,5.4915,5.4915,5.4583,5.4583,5.4452,5.4032,5.4032,5.4784,5.6618,5.8511,5.9177,5.8487,5.7414,5.6401,5.5265,5.415,5.3363,5.291,5.2933,5.2933,5.2933,5.2592,5.2592,5.2592,5.0717,4.9067,0.0,0.0,0.0,0.0,0.0,0.0,0.0,2.3043,2.215,2.1652,2.1091,2.0853,2.1413,2.1191,2.0841,2.1052,2.188,2.1842,2.0169,2.1152,2.1586,2.0951,2.0323,2.0054,2.025,2.0363,2.0425,2.0425,2.1046,2.2167,2.3714,2.3609,2.4699,2.7131,2.6978,2.7965,3.0134,3.0791,3.1934,3.3281,3.4204,3.4845,3.5148,3.58,3.7004,3.8842,3.8842,4.0334,4.2879,4.4192,4.477,4.477,4.477,4.3274,4.1376,4.27,4.3144,4.3266,4.4053,4.448,4.4577,4.4744,4.4821,4.5074,4.5753,4.6954,4.8098,4.8098,4.9067,5.0188,5.0188,5.0188,5.0188,5.0188,5.0188,5.0209,5.0534,5.0695,5.0857,5.1179,5.1179,5.1661,5.316,5.3318,5.2778,5.1308,5.2028,5.2794,5.2794,5.2794,5.2794,5.2669,5.2669,5.312,5.4389,5.5341,5.5812,5.5658,5.5086,5.4643,5.4509,5.4196,5.3859,5.3363,5.3341,5.3205,5.2933,5.1384,5.0695,5.0717,4.8923,4.7601,0.0,0.0,0.0,0.0,0.0,0.0,0.0,0.0,0.0,0.0,0.0,1.8126,1.8889,0.0,1.8693,1.8948,1.9716,2.0047,1.8969,1.9668,1.956,1.7775,1.7717,1.8036,1.8227,1.8427,1.8391,1.8391,1.9164,1.9951,2.083,2.1738,2.2834,2.407,2.4615,2.5553,2.6787,2.7407,2.8165,2.9072,3.0933,3.1717,3.187,3.3637,3.4896,3.5849,3.6092,3.7619,4.0053,4.0784,4.1678,4.2209,3.9774,3.7861,3.6587,3.7438,3.7714,3.7788,3.8215,3.8749,3.9426,3.946,4.0615,4.2094,4.2889,4.4325,4.5756,4.6186,4.6934,4.7581,4.7581,4.7581,4.7581,4.7581,4.7581,4.7767,4.8738,4.8551,4.8544,4.9348,4.9126,4.9145,5.0085,4.9616,4.9158,4.9881,5.0644,5.143,5.2211,5.2358,5.2545,5.3059,5.3129,5.3339,5.3854,5.4193,5.411,5.3599,5.3911,5.4136,5.4196,5.4219,5.3882,5.3228,5.2344,5.1705,5.1566,4.9742,4.8902,4.8882,4.5365,4.3514,0.0,0.0,0.0,0.0,0.0,0.0,0.0,0.0,0.0,0.0,0.0,0.0,0.0,0.0,0.0,1.6791,1.7612,1.8107,1.7795,1.8135,1.7494,1.5346,1.5629,1.604,1.6103,1.6266,1.6305,1.6305,1.6867,1.7359,1.7516,1.9477,2.0888,2.1216,2.2382,2.3288,2.3612,2.425,2.4725,2.4896,0.0,0.0,2.8912,3.1501,3.2876,3.34,3.384,3.5031,3.6599,3.6599,3.7493,3.8269,3.4568,3.3063,3.3063,3.3063,3.3063,3.3063,3.3063,3.3852,3.4893,3.5183,3.6954,3.9371,4.0134,4.1322,0.0,4.326,4.3446,4.3446,4.3446,4.3446,4.3446,4.3446,4.3446,4.3934,4.5423,4.5353,4.5509,4.6951,4.6847,4.6813,4.7121,4.577,4.5523,4.8104,4.8723,4.9466,5.1001,5.1292,5.1617,5.2895,5.2989,5.3059,5.3246,5.332,5.2984,5.2281,5.303,5.3544,5.372,5.3561,5.2891,5.1805,5.0267,4.9336,4.9174,4.7406,4.6624,4.6584,4.1598,3.9332,0.0,0.0,0.0,0.0,0.0,0.0,0.0,0.0,0.0,0.0,0.0,0.0,0.0,0.0,0.0,0.0,1.6613,1.6705,1.5233,1.5103,1.5126,1.5191,1.5416,1.5763,1.6079,1.5399,1.4899,1.4899,1.3845,1.347,1.431,0.0,0.0,0.0,0.0,2.0414,2.2061,2.2764,2.335,2.4175,2.5126,2.5889,2.6479,2.7314,2.8953,3.0961,3.104,3.1966,3.3609,3.3609,3.3609,3.3739,3.3277,3.3063,3.3063,3.3063,3.3063,3.3063,3.3063,0.0,0.0,3.4238,3.5185,3.5998,3.6887,3.7585,3.8295,3.838,3.8397,3.8397,3.8397,3.8397,3.8397,3.8397,3.8397,3.8397,3.8563,3.9668,4.0778,4.0941,4.22,4.3622,4.5142,4.381,4.274,4.3185,4.4361,4.5791,4.722,4.7503,4.7994,4.9554,0.0,0.0,5.1002,5.1247,5.1557,5.2258,5.2587,5.2308,5.1726,5.0853,4.9696,4.83,4.7368,4.6504,4.5877,4.3996,4.3053,4.3034,3.923,3.7396,0.0,0.0,0.0,0.0,0.0,0.0,0.0,0.0,0.0,0.0,0.0,0.0,0.0,0.0,0.0,0.0,1.4802,1.5009,1.4338,1.4256,1.4087,1.3821,1.3984,1.4061,1.3415,1.3199,1.3103,1.3264,1.2602,1.2499,1.2993,1.3686,1.4536,1.522,1.7117,1.8716,1.9881,2.1014,2.1921,2.2929,2.3646,2.4124,2.4372,2.5853,2.7062,0.0,2.8802,3.0153,3.1593,3.1593,3.2183,0.0,0.0,0.0,0.0,0.0,2.9135,2.9135,2.9135,2.9396,2.9765,3.0056,3.1331,3.2772,3.3497,3.4703,3.5823,3.6228,3.6667,3.6903,3.6464,3.6667,3.7004,3.7004,3.7004,3.7122,3.7395,3.7653,3.7995,3.8998,3.9456,0.0,4.1929,4.1479,4.129,4.231,4.2879,4.4171,4.6581,4.6178,4.6683,4.974,4.9342,4.922,5.0675,5.0794,0.0,0.0,0.0,5.0951,4.963,4.9337,0.0,0.0,0.0,0.0,0.0,0.0,0.0,0.0,3.5575,3.4354,0.0,0.0,0.0,0.0,0.0,0.0,0.0,0.0,0.0,0.0,0.0,0.0,0.0,0.0,0.0,0.0,1.3372,1.3476,1.2903,1.3344,1.3221,1.2341,1.269,1.2762,1.1534,1.1451,1.1389,1.1643,1.117,1.1086,1.1091,1.2101,1.2771,1.2771,1.4877,1.6619,1.7798,1.8754,2.001,2.1545,2.2177,2.2755,2.3106,2.4613,2.5286,2.5606,2.6846,2.7954,2.9076,2.9207,3.0011,3.079,2.7553,2.6226,2.6226,2.6226,2.6226,2.6226,2.6226,2.6539,2.6923,2.6923,2.8174,2.9806,3.0338,3.1661,3.2795,3.3451,3.3815,3.4107,3.3727,3.3831,3.422,3.422,3.422,3.4366,3.49,3.5219,3.5925,3.7218,3.6937,3.7028,3.8716,3.9467,4.0065,4.1213,4.1142,0.0,4.487,4.4365,4.5015,4.8725,4.81,4.7812,4.8981,4.905,4.8968,4.8558,4.8952,4.8828,4.7956,4.7585,4.6462,4.455,4.2609,4.1733,0.0,0.0,0.0,0.0,0.0,0.0,0.0,0.0,0.0,0.0,0.0,0.0,0.0,0.0,0.0,0.0,0.0,0.0,0.0,0.0,0.0,0.0,0.0,0.0,1.0327,1.1493,1.204,1.0784,1.1967,1.2615,1.1404,1.0413,0.9866,0.9934,0.8659,0.7854,0.7862,0.9314,0.9959,0.9959,1.1655,1.3449,1.578,1.5943,1.7629,2.0674,2.0655,2.1591,2.3117,2.3255,2.3617,2.4208,2.5035,2.5382,2.5476,2.6094,2.6424,2.6424,2.6254,2.6226,2.6226,2.6226,2.6226,2.6226,2.6226,2.6254,2.6268,2.6268,2.6695,2.7354,2.7382,2.7811,2.8312,2.8478,2.8493,2.8507,2.8478,2.8493,2.8507,2.8507,2.8507,2.8521,2.8536,3.1389,3.4104,3.4104,3.407,3.4675,3.6378,3.7862,3.8744,3.8744,3.8223,0.0,4.0881,4.1145,4.2063,4.4562,4.4813,4.4813,4.4935,4.5008,4.554,4.6855,4.5765,4.5671,4.6855,4.4841,4.3295,4.2558,3.9681,3.7955,3.7195,0.0,0.0,0.0,0.0,0.0,0.0,0.0,0.0,0.0,0.0,0.0,0.0,0.0,0.0,0.0,0.0,0.0,0.0,0.0,0.0,0.0,0.0,0.0,0.0,0.0,1.1379,0.9467,1.0609,1.0607,0.8572,0.8044,0.7871,0.7904,0.7733,0.7544,0.7663,0.8262,0.8488,0.8488,0.9852,1.1353,1.2807,1.5036,1.7063,1.8669,1.9991,2.104,2.1986,2.2459,2.2867,2.347,2.4196,2.442,2.4535,2.5315,2.5302,2.4748,2.4748,2.4748,2.4748,2.4748,2.4748,2.4748,2.4748,2.5098,2.5738,2.6083,2.6382,2.6553,2.6553,2.6695,2.6866,2.6866,2.7179,2.7406,2.6979,2.7193,2.7491,2.7491,2.7491,2.7619,2.8032,2.9173,3.0505,3.1496,3.2313,3.3169,3.4101,3.5541,3.6449,3.6449,3.7091,3.8133,4.0076,3.9765,4.0651,4.3508,4.3381,4.361,4.4626,4.4759,4.5012,4.5366,4.5074,4.4549,4.3901,4.2888,4.1459,3.9585,3.8288,3.7456,3.6902,0.0,0.0,0.0,0.0,0.0,0.0,0.0,0.0,0.0,0.0,0.0,0.0,0.0,0.0,0.0,0.0,0.0,0.0,0.0,0.0,0.0,0.0,0.0,0.0,0.0,0.0,0.9071,0.9905,0.0,0.7559,0.6985,0.6778,0.6949,0.6624,0.6728,0.7298,0.7,0.7089,0.756,0.8476,0.9658,1.0761,1.3574,1.5718,1.7151,1.9239,2.0508,2.1107,2.1768,2.2185,2.2622,2.3411,2.3743,2.3696,2.409,2.3913,2.3422,2.3511,2.3655,2.3655,2.3655,2.3655,2.3655,2.412,2.4485,2.4821,2.559,2.5464,2.5004,2.5004,2.4852,2.4575,2.5004,2.545,2.5982,2.5858,2.6368,2.6837,2.6837,2.6837,2.6951,2.7363,2.8041,2.8321,2.8378,2.9535,3.0893,3.1476,3.2752,3.3852,3.4132,3.5072,3.6239,3.7636,3.7755,3.8739,4.1451,4.134,4.1674,4.3005,4.3025,4.3318,4.3901,4.3318,4.2736,4.1973,4.1094,3.9841,3.7872,3.6831,3.6011,0.0,0.0,0.0,0.0,0.0,0.0,0.0,0.0,0.0,0.0,0.0,0.0,0.0,0.0,0.0,0.0,0.0,0.0,0.0,0.0,0.0,0.0,0.0,0.0,0.0,0.0,0.0,0.9402,0.9929,0.0,0.0,0.0,0.0,0.675,0.5495,0.536,0.679,0.5791,0.572,0.689,0.7369,0.8174,0.9727,1.1845,1.3908,1.6155,1.8234,1.9673,2.049,2.1086,2.1306,2.151,2.2633,2.3128,2.2956,2.246,2.2247,2.2289,2.25,2.2697,2.2697,2.2697,2.2673,2.2805,2.3957,2.3991,2.3613,2.4726,2.4053,2.2895,2.2909,2.2204,0.0,0.0,2.3161,2.3862,2.4835,2.5685,2.614,2.614,2.614,2.614,2.614,2.7376,2.7706,0.0,2.6004,2.7818,2.8413,0.0,3.0927,3.1629,3.2403,3.3063,3.3847,3.522,3.6827,3.8421,3.863,3.8972,3.9788,3.9845,4.0576,4.2021,4.0725,4.0209,4.0778,3.93,3.8049,3.7236,3.4818,0.0,0.0,0.0,0.0,0.0,0.0,0.0,0.0,0.0,0.0,0.0,0.0,0.0,0.0,0.0,0.0,0.0,0.0,0.0,0.0,0.0,0.0,0.0,0.0,0.0,0.0,0.9288,0.9363,0.822,0.8317,0.792,0.0,0.0,0.0,0.0,0.0,0.0,0.66,0.6489,0.6438,0.6865,0.7072,0.7779,0.9118,1.1737,1.3554,1.4641,1.7823,1.9216,1.9397,1.9982,2.072,2.1348,2.1673,2.2038,2.2172,2.1856,2.145,2.1118,2.117,2.1084,2.1084,2.1084,2.1019,2.0862,2.1887,2.2154,2.2218,2.2633,0.0,2.2762,2.2071,0.0,0.0,0.0,0.0,2.2278,2.3257,2.3647,2.389,2.4698,2.4818,2.4818,2.4818,2.5085,2.5114,0.0,2.4127,2.4598,2.4891,0.0,0.0,0.0,0.0,3.2984,3.3063,3.4869,3.639,3.6808,3.7434,3.789,3.8117,3.8117,3.8261,3.8692,3.8405,3.8166,3.8365,3.6483,3.494,3.3985,0.0,0.0,0.0,0.0,0.0,0.0,0.0,0.0,0.0,0.0,0.0,0.0,0.0,0.0,0.0,0.0,0.0,0.0,0.0,0.0,0.0,0.0,0.0,0.0,0.0,0.0,0.0,0.9597,0.9806,0.919,0.8546,0.7905,0.0,0.0,0.0,0.0,0.0,0.0,0.0,0.0,0.0,0.6572,0.681,0.7229,0.7949,1.0934,1.2453,1.2902,1.6261,1.8099,1.8346,1.9206,1.9972,2.0783,2.1181,2.0676,1.9535,1.9558,1.9379,1.8824,0.0,0.0,0.0,0.0,1.9297,1.9222,2.0213,2.0533,0.0,2.1076,0.0,0.0,0.0,0.0,0.0,0.0,0.0,0.0,0.0,0.0,0.0,2.4217,2.4334,2.4334,2.4334,2.353,2.2616,0.0,2.231,2.2714,2.2869,0.0,0.0,0.0,0.0,3.1481,3.1481,3.3936,3.5821,3.6063,3.6656,3.7092,3.7453,3.7491,3.7491,3.7491,3.7491,3.6887,3.558,3.4275,3.2668,0.0,0.0,0.0,0.0,0.0,0.0,0.0,0.0,0.0,0.0,0.0,0.0,0.0,0.0,0.0,0.0,0.0,0.0,0.0,0.0,0.0,0.0,0.0,0.0,0.0,0.0,0.0,0.0,0.0,1.0977,1.0813,0.0,0.0,0.0,0.0,0.0,0.0,0.0,0.0,0.0,0.0,0.0,0.0,0.0,0.6882,0.7047,0.9708,1.1108,1.1254,1.4364,1.6239,1.6816,1.7705,1.8683,1.9408,2.0175,0.0,1.6451,1.7159,0.0,0.0,0.0,0.0,0.0,0.0,0.0,0.0,0.0,0.0,0.0,0.0,0.0,0.0,0.0,0.0,0.0,0.0,0.0,0.0,0.0,0.0,2.3632,2.3738,2.3883,2.3973,0.0,2.2259,2.0636,2.0258,2.0963,0.0,0.0,0.0,0.0,0.0,0.0,0.0,2.9673,3.2597,3.5003,3.5855,3.6067,3.6371,3.7111,3.7168,3.7168,3.7168,3.7168,3.5895,3.3278,3.2715,0.0,0.0,0.0,0.0,0.0,0.0,0.0,0.0,0.0,0.0,0.0,0.0,0.0,0.0,0.0,0.0,0.0,0.0,0.0,0.0,0.0,0.0,0.0,0.0,0.0,0.0,0.0,0.0,0.0,0.0,0.0,0.0,0.0,0.0,0.0,0.0,0.0,0.0,0.0,0.0,0.0,0.0,0.0,0.0,0.0,0.0,0.0,0.0,0.0,0.0,1.2703,1.343,1.3026,1.4125,1.5341,1.6225,1.563,1.5847,1.679,0.0,0.0,0.0,0.0,0.0,0.0,0.0,0.0,0.0,0.0,0.0,0.0,0.0,0.0,0.0,0.0,0.0,0.0,0.0,0.0,0.0,0.0,0.0,0.0,0.0,2.1828,2.2008,0.0,0.0,0.0,0.0,0.0,0.0,0.0,0.0,0.0,0.0,0.0,0.0,2.9525,3.1783,3.3673,3.5061,3.5213,3.527,3.5422,3.5441,3.5441,3.5441,3.5441,3.4872,0.0,0.0,0.0,0.0,0.0,0.0,0.0,0.0,0.0,0.0,0.0,0.0,0.0,0.0,0.0,0.0,0.0,0.0,0.0,0.0,0.0,0.0,0.0,0.0,0.0,0.0,0.0,0.0,0.0,0.0,0.0,0.0,0.0,0.0,0.0,0.0,0.0,0.0,0.0,0.0,0.0,0.0,0.0,0.0,0.0,0.0,0.0,0.0,0.0,0.0,0.0,0.0,0.0,0.0,0.0,0.0,0.0,0.0,0.0,1.2565,0.0,0.0,0.0,0.0,0.0,0.0,0.0,0.0,0.0,0.0,0.0,0.0,0.0,0.0,0.0,0.0,0.0,0.0,0.0,0.0,0.0,0.0,0.0,0.0,0.0,0.0,0.0,0.0,0.0,0.0,0.0,0.0,0.0,0.0,0.0,0.0,0.0,0.0,0.0,0.0,2.9088,3.1388,3.3333,3.4872,3.5004,3.5004,3.5004,3.5004,3.4721,3.3886,3.3631,0.0,0.0,0.0,0.0,0.0,0.0,0.0,0.0,0.0,0.0,0.0,0.0,0.0,0.0,0.0,0.0,0.0,0.0,0.0,0.0,0.0,0.0,0.0,0.0,0.0,0.0,0.0,0.0,0.0,0.0,0.0,0.0,0.0,0.0,0.0,0.0,0.0,0.0,0.0,0.0,0.0,0.0,0.0,0.0,0.0,0.0,0.0,0.0,0.0,0.0,0.0,0.0,0.0,0.0,0.0,0.0,0.0,0.0,0.0,1.0681,0.0,0.0,0.0,0.0,0.0,0.0,0.0,0.0,0.0,0.0,0.0,0.0,0.0,0.0,0.0,0.0,0.0,0.0,0.0,0.0,0.0,0.0,0.0,0.0,0.0,0.0,0.0,0.0,0.0,0.0,0.0,0.0,0.0,0.0,0.0,0.0,0.0,0.0,0.0,0.0,0.0,2.8188,3.0353,3.2643,3.4322,3.4588,3.4588,3.5004,3.4739,3.3963,3.268,3.1809,0.0,0.0,0.0,0.0,0.0,0.0,0.0,0.0,0.0,0.0,0.0,0.0,0.0,0.0,0.0,0.0,0.0,0.0,0.0,0.0,0.0,0.0,0.0,0.0,0.0,0.0,0.0,0.0,0.0,0.0,0.0,0.0,0.0,0.0,0.0,0.0,0.0,0.0,0.0,0.0,0.0,0.0,0.0,0.0,0.0,0.0,0.0,0.0,0.0,0.0,0.0,0.0,0.0,0.0,0.0,0.0,0.0,0.0,0.0,0.0,0.0,0.0,0.0,0.0,0.0,0.0,0.0,0.0,0.0,0.0,0.0,0.0,0.0,0.0,0.0,0.0,0.0,0.0,0.0,0.0,0.0,0.0,0.0,0.0,0.0,0.0,0.0,0.0,0.0,0.0,0.0,0.0,0.0,0.0,0.0,0.0,0.0,0.0,0.0,0.0,0.0,2.668,2.7969,2.9904,3.2778,3.3047,3.3619,3.4872,3.3752,3.2741,3.2022,0.0,0.0,0.0,0.0,0.0,0.0,0.0,0.0,0.0,0.0,0.0,0.0,0.0,0.0,0.0,0.0,0.0,0.0,0.0,0.0,0.0,0.0,0.0,0.0,0.0,0.0,0.0,0.0,0.0,0.0,0.0,0.0,0.0,0.0,0.0,0.0,0.0,0.0,0.0,0.0,0.0,0.0,0.0,0.0,0.0,0.0,0.0,0.0,0.0,0.0,0.0,0.0,0.0,0.0,0.0,0.0,0.0,0.0,0.0,0.0,0.0,0.0,0.0,0.0,0.0,0.0,0.0,0.0,0.0,0.0,0.0,0.0,0.0,0.0,0.0,0.0,0.0,0.0,0.0,0.0,0.0,0.0,0.0,0.0,0.0,0.0,0.0,0.0,0.0,0.0,0.0,0.0,0.0,0.0,0.0,0.0,0.0,0.0,0.0,0.0,0.0,0.0,2.5865,2.7451,2.9055,3.0793,3.1287,3.2104,3.3619,3.2615,3.1678,3.0594,0.0,0.0,0.0,0.0,0.0,0.0,0.0,0.0,0.0,0.0,0.0,0.0,0.0,0.0,0.0,0.0,0.0,0.0,0.0,0.0,0.0,0.0,0.0,0.0,0.0,0.0,0.0,0.0,0.0,0.0,0.0,0.0,0.0,0.0,0.0,0.0,0.0,0.0,0.0,0.0,0.0,0.0,0.0,0.0,0.0,0.0,0.0,0.0,0.0,0.0,0.0,0.0,0.0,0.0,0.0,0.0,0.0,0.0,0.0,0.0,0.0,0.0,0.0,0.0,0.0,0.0,0.0,0.0,0.0,0.0,0.0,0.0,0.0,0.0,0.0,0.0,0.0,0.0,0.0,0.0,0.0,0.0,0.0,0.0,0.0,0.0,0.0,0.0,0.0,0.0,0.0,0.0,0.0,0.0,0.0,0.0,0.0,0.0,0.0,0.0,0.0,0.0,2.5899,2.7671,2.9298,2.9908,3.0107,3.0696,3.1772,3.0794,2.9628,2.8391,0.0,0.0,0.0,0.0,0.0,0.0,0.0,0.0,0.0,0.0,0.0,0.0,0.0,0.0,0.0,0.0,0.0,0.0,0.0,0.0,0.0,0.0,0.0,0.0,0.0,0.0,0.0,0.0,0.0,0.0,0.0,0.0,0.0,0.0,0.0,0.0,0.0,0.0,0.0,0.0,0.0,0.0,0.0,0.0,0.0,0.0,0.0,0.0,0.0,0.0,0.0,0.0,0.0,0.0,0.0,0.0,0.0,0.0,0.0,0.0,0.0,0.0,0.0,0.0,0.0,0.0,0.0,0.0,0.0,0.0,0.0,0.0,0.0,0.0,0.0,0.0,0.0,0.0,0.0,0.0,0.0,0.0,0.0,0.0,0.0,0.0,0.0,0.0,0.0,0.0,0.0,0.0,0.0,0.0,0.0,0.0,0.0,0.0,0.0,0.0,0.0,0.0,2.6551,2.8924,3.047,3.0453,3.0091,2.9805,2.9805,2.7854,2.6271,0.0,0.0,0.0,0.0,0.0,0.0,0.0,0.0,0.0,0.0,0.0,0.0,0.0,0.0,0.0,0.0,0.0,0.0,0.0,0.0,0.0,0.0,0.0,0.0,0.0,0.0,0.0,0.0,0.0,0.0,0.0,0.0,0.0,0.0,0.0,0.0,0.0,0.0,0.0,0.0,0.0,0.0,0.0,0.0,0.0,0.0,0.0,0.0,0.0,0.0,0.0,0.0,0.0,0.0,0.0,0.0,0.0,0.0,0.0,0.0,0.0,0.0,0.0,0.0,0.0,0.0,0.0,0.0,0.0,0.0,0.0,0.0,0.0,0.0,0.0,0.0,0.0,0.0,0.0,0.0,0.0,0.0,0.0,0.0,0.0,0.0,0.0,0.0,0.0,0.0,0.0,0.0,0.0,0.0,0.0,0.0,0.0,0.0,0.0,0.0,0.0,0.0,0.0,2.3858,2.5318,2.6062,0.0,2.5923,2.6468,2.7514,2.648,2.5477,2.5138,0.0,0.0,0.0,0.0,0.0,0.0,0.0,0.0,0.0,0.0,0.0,0.0,0.0,0.0,0.0,0.0,0.0,0.0,0.0,0.0,0.0,0.0,0.0,0.0,0.0,0.0,0.0,0.0,0.0,0.0,0.0,0.0,0.0,0.0,0.0,0.0,0.0,0.0,0.0,0.0,0.0,0.0,0.0,0.0,0.0,0.0,0.0,0.0,0.0,0.0,0.0,0.0,0.0,0.0,0.0,0.0,0.0,0.0,0.0,0.0,0.0,0.0,0.0,0.0,0.0,0.0,0.0,0.0,0.0,0.0,0.0,0.0,0.0,0.0,0.0,0.0,0.0,0.0,0.0,0.0,0.0,0.0,0.0,0.0,0.0,0.0,0.0,0.0,0.0,0.0,0.0,0.0,0.0,0.0,0.0,0.0,0.0,0.0,0.0,0.0,0.0,0.0,0.0,2.499,2.5592,0.0,2.4651,2.5011,2.5396,2.4513,2.4002,2.377,0.0,0.0,0.0,0.0,0.0,0.0,0.0,0.0,0.0,0.0,0.0,0.0,0.0,0.0,0.0,0.0,0.0,0.0,0.0,0.0,0.0,0.0,0.0,0.0,0.0,0.0,0.0,0.0,0.0,0.0,0.0,0.0,0.0,0.0,0.0,0.0,0.0,0.0,0.0,0.0,0.0,0.0,0.0,0.0,0.0,0.0,0.0,0.0,0.0,0.0,0.0,0.0,0.0,0.0,0.0,0.0,0.0,0.0,0.0,0.0,0.0,0.0,0.0,0.0,0.0,0.0,0.0,0.0,0.0,0.0,0.0,0.0,0.0,0.0,0.0,0.0,0.0,0.0,0.0,0.0,0.0,0.0,0.0,0.0,0.0,0.0,0.0,0.0,0.0,0.0,0.0,0.0,0.0,0.0,0.0,0.0,0.0,0.0,0.0,0.0,0.0,0.0,0.0,2.6861,2.777,2.654,2.5852,2.4828,2.345,2.2428,2.1863,2.1619,2.1252,0.0,0.0,0.0,0.0,0.0,0.0,0.0,0.0,0.0,0.0,0.0,0.0,0.0,0.0,0.0,0.0,0.0,0.0,0.0,0.0,0.0,0.0,0.0,0.0,0.0,0.0,0.0,0.0,0.0,0.0,0.0,0.0,0.0,0.0,0.0,0.0,0.0,0.0,0.0,0.0,0.0,0.0,0.0,0.0,0.0,0.0,0.0,0.0,0.0,0.0,0.0,0.0,0.0,0.0,0.0,0.0,0.0,0.0,0.0,0.0,0.0,0.0,0.0,0.0,0.0,0.0,0.0,0.0,0.0,0.0,0.0,0.0,0.0,0.0,0.0,0.0,0.0,0.0,0.0,0.0,0.0,0.0,0.0,0.0,0.0,0.0,0.0,0.0,0.0,0.0,0.0,0.0,0.0,0.0,0.0,0.0,0.0,0.0,0.0,0.0,0.0,0.0,2.3638,2.3883,2.3529,2.3398,2.3173,2.2821,2.2298,2.1863,2.1619,2.1252,0.0,0.0,0.0,0.0,0.0,0.0,0.0,0.0,0.0,0.0,0.0,0.0,0.0,0.0,0.0,0.0,0.0,0.0,0.0,0.0,0.0,0.0,0.0,0.0,0.0,0.0,0.0,0.0,0.0,0.0,0.0,0.0,0.0,0.0,0.0,0.0,0.0,0.0,0.0,0.0,0.0,0.0,0.0,0.0,0.0,0.0,0.0,0.0,0.0,0.0,0.0,0.0,0.0,0.0,0.0,0.0,0.0,0.0,0.0,0.0,0.0,0.0,0.0,0.0,0.0,0.0,0.0,0.0,0.0,0.0,0.0,0.0,0.0,0.0,0.0,0.0,0.0,0.0,0.0,0.0,0.0,0.0,0.0,0.0,0.0,0.0,0.0,0.0,0.0,0.0,0.0,0.0,0.0,0.0,0.0,0.0,0.0,0.0,0.0,0.0,0.0,0.0,2.1852,2.203,2.2499,2.2592,2.2592,2.2592,2.2107,2.1741,2.1619,2.1252,0.0,0.0,0.0,0.0,0.0,0.0,0.0,0.0,0.0,0.0,0.0,0.0,0.0,0.0,0.0,0.0,0.0,0.0,0.0,0.0,0.0,0.0,0.0,0.0,0.0,0.0,0.0,0.0,0.0,0.0,0.0,0.0,0.0,0.0,0.0,0.0,0.0,0.0,0.0,0.0,0.0,0.0,0.0,0.0,0.0,0.0,0.0,0.0,0.0,0.0,0.0,0.0,0.0,0.0,0.0,0.0,0.0,0.0,0.0,0.0,0.0,0.0,0.0,0.0,0.0,0.0,0.0,0.0,0.0,0.0,0.0,0.0,0.0,0.0,0.0,0.0,0.0,0.0,0.0,0.0,0.0,0.0,0.0,0.0,0.0,0.0,0.0,0.0,0.0,0.0,0.0,0.0,0.0,0.0,0.0,0.0,0.0,0.0,0.0,0.0,0.0,0.0,0.0,2.1539,2.2406,2.2471,2.2592,2.2592,2.1985,2.1619,2.1619,0.0,0.0,0.0,0.0,0.0,0.0,0.0,0.0,0.0,0.0,0.0,0.0,0.0,0.0,0.0,0.0,0.0,0.0,0.0,0.0,0.0,0.0,0.0,0.0,0.0,0.0,0.0,0.0,0.0,0.0,0.0,0.0,0.0,0.0,0.0,0.0,0.0,0.0,0.0,0.0,0.0,0.0,0.0,0.0,0.0,0.0,0.0,0.0,0.0,0.0,0.0,0.0,0.0,0.0,0.0,0.0,0.0,0.0,0.0,0.0,0.0,0.0,0.0,0.0,0.0,0.0,0.0,0.0,0.0,0.0,0.0,0.0,0.0,0.0,0.0,0.0,0.0,0.0,0.0,0.0,0.0,0.0,0.0,0.0,0.0,0.0,0.0,0.0,0.0,0.0,0.0,0.0,0.0,0.0,0.0,0.0,0.0,0.0,0.0,0.0,0.0,0.0,0.0,0.0,2.196,2.1985,2.235,2.2592,2.2592,2.2107,2.1863,2.1619,0.0,0.0,0.0,0.0,0.0,0.0,0.0,0.0,0.0,0.0,0.0,0.0,0.0,0.0]}],[{"header":{"parameterUnit":"kt","parameterCategory":2,"dx":1,"dy":1,"la1":29.285339999999998,"la2":30.599998999999997,"lo1":-89.70041500000002,"lo2":-87.6738589999976,"nx":112,"ny":82,"refTime":"2022-10-27T12:00:00:Z","depth":0,"parameterNumber":2,"parameterNumberName":"V-component_of_WINDS"},"data":[-4.3592,-4.3452,0.0,-4.1162,-4.0005,0.0,-3.6969,0.0,-3.4922,-3.3717,-3.2988,-3.2158,-3.0991,-2.9719,-2.842,-2.7054,-2.6597,-2.6403,0.0,-2.6709,0.0,0.0,0.0,0.0,0.0,0.0,0.0,0.0,0.0,0.0,0.0,0.0,-4.7701,-4.7701,-4.7701,-4.7701,-4.7701,-4.7701,-4.7701,-4.7701,-4.7701,-4.7701,-4.7701,-4.7701,-4.7701,-4.7701,-4.7701,-4.8541,-5.0052,-5.0381,-5.3546,-5.839,-5.8584,-6.1059,-6.4304,-6.4304,-6.4304,-6.4304,-6.4304,-6.4304,-6.4304,-6.4304,-6.4304,-6.4304,-6.4304,-6.4304,-6.4304,-6.4304,-6.4304,-6.4304,-6.4304,-6.4304,-6.4304,-6.4304,-6.6762,-6.9229,-6.9229,-7.2045,-7.4579,-7.4579,-7.4984,-7.5272,-7.5415,-7.5558,-7.5842,-7.6324,-7.6324,-7.6465,-7.6635,-7.6635,-7.6635,-7.6635,-7.6635,-7.6635,-7.6635,-7.6635,-7.6635,-7.6635,-7.6635,-7.6635,-7.6635,-7.6635,-7.6635,-7.6635,-7.6635,-7.6635,-7.6635,-7.6635,-7.6635,-7.6635,-7.6635,-7.6635,0.0,0.0,-4.0016,-3.7936,0.0,0.0,0.0,-3.3355,-3.2452,-3.1137,-3.0309,-2.9559,-2.8587,-2.7969,-2.7439,-2.6542,-2.6589,-2.6808,0.0,0.0,0.0,0.0,0.0,0.0,0.0,0.0,0.0,0.0,0.0,0.0,0.0,-4.7701,-4.7701,-4.7701,-4.7701,-4.7701,-4.7701,-4.7701,-4.7701,-4.7701,-4.7701,-4.7701,-4.7701,-4.7701,-4.7701,-4.7701,-4.7701,-4.8043,-4.8607,-4.9399,-5.2545,-5.7022,-5.7892,-6.0731,-6.4304,-6.4304,-6.4304,-6.4304,-6.4304,-6.4304,-6.4304,-6.4304,-6.4304,-6.4304,-6.4304,-6.4304,-6.4304,-6.4304,-6.4304,-6.4304,-6.4304,-6.4304,-6.4304,-6.4304,-6.6762,-6.9229,-6.9386,-7.2223,-7.4868,-7.5013,-7.5272,-7.5558,-7.5558,-7.57,-7.6013,-7.6465,-7.6635,-7.6635,-7.6635,-7.6635,-7.6635,-7.6635,-7.6635,-7.6635,-7.6635,-7.6635,-7.6635,-7.6635,-7.6635,-7.6635,-7.6635,-7.6635,-7.6635,-7.6635,-7.6635,-7.6635,-7.6635,-7.6635,-7.6635,-7.6635,-7.6635,-7.6635,0.0,0.0,0.0,-3.5295,-3.3134,-3.0955,-3.0796,-2.9289,-2.7806,-2.7785,-2.7806,-2.7444,-2.6589,-2.7105,-2.7297,-2.639,-2.6975,0.0,0.0,0.0,0.0,0.0,0.0,0.0,0.0,0.0,0.0,0.0,0.0,0.0,-4.7661,-4.7701,-4.7701,-4.7701,-4.7701,-4.7701,-4.7701,-4.7701,-4.7701,-4.7701,-4.7701,-4.7701,-4.7701,-4.7701,-4.7701,-4.7701,-4.7701,-4.7701,-4.7928,-5.0397,-5.3272,-5.6223,-5.8797,-6.1739,-6.4255,-6.4255,-6.4255,-6.4304,-6.4304,-6.4304,-6.4304,-6.4304,-6.4304,-6.4304,-6.4304,-6.4304,-6.4304,-6.4304,-6.4304,-6.4304,-6.4304,-6.4304,-6.4304,-6.4304,-6.6762,-6.9229,-6.9697,-7.2373,-7.4868,-7.5415,-7.57,-7.6013,-7.6013,-7.6324,-7.6635,-7.6635,-7.6635,-7.6635,-7.6635,-7.6635,-7.6635,-7.6635,-7.6635,-7.6635,-7.6635,-7.6635,-7.6635,-7.6635,-7.6635,-7.6635,-7.6635,-7.6635,-7.6635,-7.6635,-7.6635,-7.6635,-7.6635,-7.6635,-7.6635,-7.6635,-7.6635,-7.6635,-3.616,-3.5599,-3.5014,-3.3518,-3.263,-3.1415,-2.9128,-2.8178,-2.7625,-2.6896,-2.6825,0.0,0.0,0.0,-2.6742,-2.7051,0.0,-2.8607,0.0,-3.0887,0.0,0.0,0.0,0.0,0.0,0.0,0.0,0.0,0.0,0.0,-4.7661,-4.7701,-4.7701,-4.7701,-4.7701,-4.7701,-4.7701,-4.7701,-4.7701,-4.7701,-4.7701,-4.7701,-4.7701,-4.7701,-4.7701,-4.7701,-4.7701,-4.8325,-4.9436,-5.0158,-5.2926,-5.6878,-5.8248,-6.0619,-6.3084,-6.3084,-6.3596,-6.4304,-6.4304,-6.4304,-6.4304,-6.4304,-6.4304,-6.4304,-6.4304,-6.4304,-6.4304,-6.4304,-6.4304,-6.4304,-6.4304,-6.4304,-6.4304,-6.4304,-6.6024,-6.7912,-6.9386,-7.1717,-7.3882,-7.5558,-7.6154,-7.6465,-7.6465,-7.6465,-7.6635,-7.6635,-7.6635,-7.6635,-7.6635,-7.6635,-7.6635,-7.6635,-7.6635,-7.6635,-7.6635,-7.6635,-7.6635,-7.6635,-7.6635,-7.6635,-7.6635,-7.6635,-7.6635,-7.6635,-7.6635,-7.6635,-7.6635,-7.6635,-7.6635,-7.6635,-7.6635,-7.6635,-3.4079,-3.3167,-3.2586,-3.1324,-3.0433,-2.9423,-2.7602,-2.6916,-2.6557,-2.6392,0.0,0.0,0.0,0.0,0.0,0.0,-2.9537,0.0,0.0,0.0,0.0,0.0,0.0,0.0,0.0,0.0,0.0,0.0,0.0,-4.7178,-4.7681,-4.7701,-4.7701,-4.7701,-4.7701,-4.7701,-4.7701,-4.7701,-4.7701,-4.7701,-4.7701,-4.7701,-4.7701,-4.7701,-4.7701,-4.7701,-4.7701,-4.818,-4.9272,-5.0674,-5.3036,-5.6118,-5.8187,-6.0213,-6.1986,-6.2449,-6.3328,-6.4304,-6.4304,-6.4304,-6.4304,-6.4304,-6.4304,-6.4304,-6.4304,-6.4304,-6.4304,-6.4304,-6.4304,-6.4304,-6.4304,-6.4304,-6.4304,-6.4304,-6.5746,-6.7457,-6.8785,-7.1262,-7.3589,-7.4984,-7.6013,-7.6635,-7.6635,-7.6635,-7.6635,-7.6635,-7.6635,-7.6635,-7.6635,-7.6635,-7.6635,-7.6635,-7.6635,-7.6635,-7.6635,-7.6635,-7.6635,-7.6635,-7.6635,-7.6635,-7.6635,-7.6635,-7.6635,-7.6635,-7.6635,-7.6635,-7.6635,-7.6635,-7.6635,-7.6635,-7.6635,-7.6635,-3.1773,-3.0072,-2.9367,-2.9191,-2.7827,-2.6516,-2.6718,0.0,-2.557,-2.65,0.0,0.0,0.0,0.0,0.0,0.0,0.0,0.0,0.0,0.0,0.0,0.0,0.0,0.0,0.0,0.0,0.0,-4.7701,-4.7701,-4.7701,-4.7701,-4.7701,-4.7701,-4.7701,-4.7701,-4.7701,-4.7701,-4.7701,-4.7701,-4.7701,-4.7701,-4.7701,-4.7701,-4.7701,-4.7701,-4.7701,-4.7701,-4.7868,-4.8511,-5.1501,-5.3472,-5.5108,-5.8191,-5.996,-6.0985,-6.2035,-6.3157,-6.4133,-6.4255,-6.4304,-6.4304,-6.4304,-6.4304,-6.4304,-6.4304,-6.4304,-6.4304,-6.4304,-6.4304,-6.4304,-6.4304,-6.4304,-6.4304,-6.4447,-6.5885,-6.7297,-6.802,-7.0677,-7.3322,-7.4113,-7.5443,-7.6324,-7.6324,-7.6494,-7.6635,-7.6635,-7.6635,-7.6635,-7.6635,-7.6635,-7.6635,-7.6635,-7.6635,-7.6635,-7.6635,-7.6635,-7.6635,-7.6635,-7.6635,-7.6635,-7.6635,-7.6635,-7.6635,-7.6635,-7.6635,-7.6635,-7.6635,-7.6635,-7.6635,-7.6635,-7.6635,-7.6635,-3.1325,-3.015,-2.9169,-2.8256,-2.7262,-2.6745,0.0,0.0,0.0,0.0,0.0,0.0,0.0,0.0,0.0,0.0,0.0,0.0,0.0,0.0,0.0,0.0,0.0,0.0,0.0,-4.6855,-4.7221,-4.7535,-4.7701,-4.7701,-4.7701,-4.7701,-4.7701,-4.7701,-4.7701,-4.7701,-4.7701,-4.7701,-4.7701,-4.7701,-4.7701,-4.7701,-4.7701,-4.7701,-4.7701,-4.7701,-4.7701,-4.9129,-5.1821,-5.2459,-5.4486,-5.7266,-5.79,-5.8862,-5.9936,-6.0961,-6.201,-6.306,-6.3987,-6.4304,-6.4304,-6.4304,-6.4304,-6.4304,-6.4304,-6.4304,-6.4304,-6.4304,-6.4304,-6.4304,-6.4304,-6.4304,-6.4447,-6.4755,-6.5087,-6.5999,-6.7994,-6.9099,-7.0497,-7.3645,-7.455,-7.4695,-7.4695,-7.5729,-7.6635,-7.6635,-7.6635,-7.6635,-7.6635,-7.6635,-7.6635,-7.6635,-7.6635,-7.6635,-7.6635,-7.6635,-7.6635,-7.6635,-7.6635,-7.6635,-7.6635,-7.6635,-7.6635,-7.6635,-7.6635,-7.6635,-7.6635,-7.6635,-7.6635,-7.6635,-7.6635,-7.6635,-3.0645,-2.9366,-2.8346,-2.7353,-2.6705,0.0,0.0,-2.7472,-2.8057,-3.0164,-3.0259,0.0,0.0,0.0,0.0,0.0,0.0,0.0,0.0,0.0,0.0,0.0,0.0,0.0,0.0,-4.7221,-4.7368,-4.7535,-4.7701,-4.7701,-4.7701,-4.7701,-4.7701,-4.7701,-4.7701,-4.7701,-4.7701,-4.7701,-4.7701,-4.7701,-4.7701,-4.7701,-4.7701,-4.7701,-4.8014,-4.8944,-4.8944,-5.0393,-5.2776,-5.3723,-5.5504,-5.791,-5.791,-5.8569,-5.9619,-6.0644,-6.1693,-6.2791,-6.3914,-6.4304,-6.4304,-6.4304,-6.4304,-6.4304,-6.4304,-6.4304,-6.4304,-6.4304,-6.4304,-6.4304,-6.4304,-6.4304,-6.4447,-6.4613,-6.4755,-6.5392,-6.6762,-6.786,-6.9256,-7.1468,-7.162,-7.1744,-7.2821,-7.4348,-7.53,-7.5128,-7.6013,-7.6465,-7.6013,-7.6324,-7.6465,-7.6324,-7.6324,-7.6324,-7.6635,-7.6465,-7.6324,-7.6635,-7.6635,-7.6635,-7.6635,-7.6635,-7.6635,-7.6635,-7.6635,-7.6635,-7.6635,-7.6635,-7.6635,-7.6635,-7.6635,-7.6635,-2.9524,-2.8216,-2.7394,-2.6584,-2.6322,0.0,-2.7088,-2.7734,-2.8858,0.0,0.0,0.0,0.0,0.0,0.0,0.0,0.0,0.0,0.0,0.0,0.0,0.0,0.0,0.0,0.0,-4.7388,-4.7535,-4.7701,-4.7701,-4.7701,-4.7701,-4.7701,-4.7701,-4.7701,-4.7701,-4.7701,-4.7701,-4.7701,-4.7701,-4.7701,-4.7701,-4.7701,-4.7701,-4.7701,-4.847,-5.0188,-5.0188,-5.1318,-5.3251,-5.4838,-5.6449,-5.791,-5.791,-5.8447,-5.9326,-6.0351,-6.14,-6.2474,-6.3572,-6.4109,-6.4304,-6.4304,-6.4304,-6.4304,-6.4304,-6.4304,-6.4304,-6.4304,-6.4304,-6.4304,-6.4304,-6.4304,-6.4304,-6.4447,-6.478,-6.5087,-6.5368,-6.6762,-6.8179,-6.8706,-6.8654,-6.9073,-7.0777,-7.2495,-7.347,-7.3146,-7.432,-7.5214,-7.4437,-7.4927,-7.5386,-7.5386,-7.5386,-7.57,-7.6465,-7.6154,-7.6154,-7.6635,-7.6635,-7.6635,-7.6635,-7.6635,-7.6635,-7.6635,-7.6635,-7.6635,-7.6635,-7.6635,-7.6635,-7.6635,-7.6635,-7.6635,-2.7095,-2.6859,-2.6863,-2.6419,-2.6276,0.0,-3.0106,-3.0849,-3.136,0.0,0.0,0.0,0.0,0.0,0.0,0.0,0.0,0.0,0.0,0.0,0.0,0.0,0.0,0.0,0.0,-4.7221,-4.7221,-4.7535,-4.7701,-4.7701,-4.7701,-4.7701,-4.7701,-4.7701,-4.7701,-4.7701,-4.7701,-4.7701,-4.7701,-4.7701,-4.7701,-4.7701,-4.7701,-4.7701,-4.847,-5.0188,-5.0188,-5.1959,-5.5172,-5.5326,-5.6449,-5.791,-5.791,-5.7984,-5.8203,-5.9301,-6.0326,-6.1351,-6.2425,-6.345,-6.4304,-6.4304,-6.4304,-6.4304,-6.4304,-6.4304,-6.4304,-6.4304,-6.4304,-6.4304,-6.4304,-6.4304,-6.4447,-6.4755,-6.4921,-6.5087,-6.5368,-6.5696,-6.6024,-6.6539,-6.7726,-6.8627,-6.8916,-7.0316,-7.1386,-7.0849,-7.0849,-7.1001,-7.1001,-7.1001,-7.1635,-7.309,-7.3238,-7.4,-7.5871,-7.6013,-7.6154,-7.6635,-7.6635,-7.6635,-7.6635,-7.6635,-7.6635,-7.6635,-7.6635,-7.6635,-7.6635,-7.6635,-7.6635,-7.6635,-7.6635,-7.6635,-2.7787,-2.773,-2.7607,-2.6749,0.0,0.0,-3.0183,-3.1265,0.0,0.0,0.0,0.0,0.0,0.0,0.0,0.0,0.0,0.0,0.0,0.0,0.0,0.0,0.0,0.0,0.0,0.0,0.0,-4.7535,-4.7701,-4.7701,-4.7701,-4.7701,-4.7701,-4.7701,-4.7701,-4.7701,-4.7701,-4.7701,-4.7701,-4.7701,-4.7701,-4.7701,-4.7701,-4.8635,-5.0047,-5.1639,-5.2754,-5.4683,-5.693,-5.693,-5.7258,-5.791,-5.791,-5.791,-5.8032,-5.9106,-6.0155,-6.118,-6.2254,-6.3352,-6.4304,-6.4304,-6.4304,-6.4304,-6.4304,-6.4304,-6.4304,-6.4304,-6.4304,-6.4304,-6.4304,-6.4304,-6.4471,-6.4613,-6.4613,-6.478,-6.5062,-6.5227,-6.5227,-6.5417,-6.6024,-6.6463,-6.6762,-6.8153,-6.9229,-6.8785,-6.9644,-7.0236,-6.9799,-7.0082,-7.0543,-7.1082,-7.1082,-7.1689,-7.309,-7.2617,-7.3238,-7.5157,-7.4956,-7.5386,-7.6465,-7.6635,-7.6635,-7.6635,-7.6635,-7.6635,-7.6635,-7.6635,-7.6635,-7.6635,-7.6635,-7.6635,-2.8178,0.0,0.0,0.0,0.0,0.0,-3.0964,-3.1967,-3.3283,-3.4888,0.0,0.0,0.0,0.0,0.0,0.0,0.0,0.0,0.0,0.0,0.0,0.0,0.0,0.0,0.0,0.0,0.0,0.0,-4.7701,-4.7701,-4.7701,-4.7701,-4.7701,-4.7701,-4.7701,-4.7701,-4.7701,-4.7701,-4.7701,-4.7701,-4.8159,-4.8325,-4.8325,-5.0047,-5.1799,-5.3566,-5.4838,-5.6296,-5.791,-5.791,-5.791,-5.791,-5.791,-5.791,-5.8008,-5.8789,-5.9887,-6.1132,-6.1913,-6.3108,-6.4304,-6.4304,-6.4304,-6.4304,-6.4304,-6.4304,-6.4304,-6.4304,-6.4304,-6.4304,-6.4304,-6.4304,-6.4304,-6.4304,-6.4304,-6.4447,-6.478,-6.4755,-6.4755,-6.4921,-6.4921,-6.5161,-6.5624,-6.6502,-6.7212,-6.7107,-6.8041,-6.8575,-6.7994,-6.8733,-6.9359,-6.8942,-6.9386,-7.0007,-7.0777,-7.0162,-7.0804,-7.3294,-7.3118,-7.3708,-7.5871,-7.5558,-7.57,-7.6635,-7.6183,-7.6183,-7.6635,-7.6635,-7.6635,-7.6635,-7.6635,-7.6635,0.0,0.0,0.0,-2.9221,-2.9751,-3.0716,-3.3423,-3.393,-3.4174,-3.5322,0.0,0.0,0.0,0.0,0.0,0.0,0.0,0.0,0.0,0.0,0.0,0.0,0.0,0.0,0.0,0.0,0.0,0.0,0.0,-4.7701,-4.7701,-4.7701,-4.7701,-4.7701,-4.7701,-4.7701,-4.7701,-4.7701,-4.7701,-4.7701,-4.9251,-5.0047,-5.0209,-5.1799,-5.3566,-5.5326,-5.5326,-5.6296,-5.791,-5.791,-5.791,-5.791,-5.791,-5.791,-5.791,-5.7959,-5.9253,-6.101,-6.1058,-6.2474,-6.4304,-6.4304,-6.4304,-6.4304,-6.4304,-6.4304,-6.4304,-6.4304,-6.4304,-6.4304,-6.4304,-6.4304,-6.4304,-6.4304,-6.4304,-6.4304,-6.4304,-6.4304,-6.4447,-6.4921,-6.4921,-6.5242,-6.6302,-6.5611,-6.5291,-6.5866,-6.5132,-6.4447,-6.4447,-6.5885,-6.7,-6.7,-6.8363,-6.9386,-6.9852,-6.9852,-7.0162,-7.1235,-7.1235,-7.2196,-7.4259,-7.2794,-7.3386,-7.6465,-7.5128,-7.5013,-7.6635,-7.6635,-7.6635,-7.6635,-7.6635,-7.6635,-2.976,-2.9797,-2.9722,-3.1342,-3.2616,-3.3652,-3.4406,-3.5238,-3.6053,-3.743,0.0,0.0,0.0,0.0,0.0,0.0,0.0,0.0,0.0,0.0,0.0,0.0,0.0,0.0,0.0,0.0,0.0,0.0,0.0,0.0,-4.7701,-4.7701,-4.7701,-4.7701,-4.8635,-4.9251,-4.9251,-4.818,-4.7701,-4.7701,-4.9251,-5.0188,-5.0188,-5.3228,-5.4838,-5.5481,-5.6625,-5.7433,-5.791,-5.791,-5.791,-5.791,-5.791,-5.791,-5.791,-5.791,-5.8789,-6.0107,-6.079,-6.1961,-6.3304,-6.406,-6.4304,-6.4304,-6.4304,-6.4304,-6.4304,-6.4304,-6.4304,-6.4304,-6.4304,-6.4304,-6.4304,-6.4304,-6.4304,-6.4304,-6.4304,-6.4304,-6.4471,-6.4447,-6.4613,-6.4736,-6.4936,-6.5666,-6.5871,-6.4936,-6.55,-6.5582,-6.4447,-6.478,-6.5277,-6.5277,-6.5721,-6.6162,-6.6463,-6.63,-6.7084,-6.8916,-6.9073,-7.0007,-7.2045,-7.297,-7.391,-7.4984,-7.5586,-7.5586,-7.4984,-7.6042,-7.6635,-7.6635,-7.6635,-7.6635,-3.1314,-3.1407,-3.1166,-3.2924,-3.4179,-3.5157,-3.5787,-3.6394,-3.7387,-3.9115,0.0,0.0,0.0,0.0,0.0,0.0,0.0,0.0,0.0,0.0,0.0,0.0,0.0,0.0,0.0,0.0,0.0,0.0,0.0,0.0,-4.7701,-4.7701,-4.7848,-4.849,-4.9579,-5.0512,-5.0997,-4.9436,-4.88,-4.9436,-5.0534,-5.1318,-5.2119,-5.4993,-5.6296,-5.6296,-5.7433,-5.791,-5.791,-5.791,-5.791,-5.791,-5.791,-5.791,-5.791,-5.791,-5.8594,-5.9667,-6.0668,-6.1717,-6.2791,-6.3914,-6.4304,-6.4304,-6.4304,-6.4304,-6.4304,-6.4304,-6.4304,-6.4304,-6.4304,-6.4304,-6.4304,-6.4304,-6.4304,-6.4304,-6.4304,-6.4304,-6.4304,-6.4304,-6.4304,-6.4426,-6.4792,-6.5996,-6.6665,-6.5914,-6.6464,-6.6539,-6.5417,-6.5252,-6.4946,-6.4447,-6.4946,-6.5087,-6.4755,-6.4447,-6.5062,-6.6762,-6.6923,-6.786,-7.0007,-7.0984,-7.1922,-7.3146,-7.432,-7.4638,-7.4259,-7.59,-7.6635,-7.6635,-7.6635,-7.6635,-3.183,-3.1746,-3.1991,-3.4042,-3.4754,-3.555,-3.7492,-3.7697,-3.8111,-4.0249,0.0,0.0,0.0,0.0,0.0,0.0,0.0,0.0,0.0,0.0,0.0,0.0,0.0,0.0,0.0,0.0,0.0,0.0,0.0,-4.7701,-4.7701,-4.7701,-4.849,-5.0026,-5.0188,-5.0997,-5.2618,-5.1158,-5.1158,-5.2618,-5.2776,-5.3723,-5.5481,-5.7106,-5.791,-5.791,-5.791,-5.791,-5.791,-5.791,-5.791,-5.791,-5.791,-5.791,-5.791,-5.791,-5.8545,-5.9594,-6.0644,-6.1693,-6.2718,-6.3914,-6.4304,-6.4304,-6.4304,-6.4304,-6.4304,-6.4304,-6.4304,-6.4304,-6.4304,-6.4304,-6.4304,-6.4304,-6.4304,-6.4304,-6.4304,-6.4304,-6.4304,-6.4304,-6.4304,-6.4621,-6.5646,-6.6421,-6.7193,-6.8019,-6.7498,-6.6863,-6.6701,-6.6701,-6.6049,-6.4471,-6.5746,-6.6049,-6.4471,-6.4471,-6.4613,-6.4921,-6.4921,-6.5835,-6.786,-6.6974,-6.7912,-7.093,-7.1538,-7.2495,-7.4259,-7.59,-7.6635,-7.6635,-7.6635,-7.6635,-3.334,-3.4426,-3.5304,-3.6203,-3.6949,-3.7711,-3.8172,-3.9039,-4.015,0.0,0.0,0.0,0.0,0.0,0.0,0.0,0.0,0.0,0.0,0.0,0.0,0.0,0.0,0.0,0.0,0.0,0.0,0.0,0.0,-4.9579,-4.9579,-4.9579,-4.9721,-5.0209,-5.1318,-5.23,-5.2618,-5.3566,-5.3566,-5.2776,-5.4036,-5.4993,-5.5481,-5.7106,-5.791,-5.791,-5.791,-5.791,-5.791,-5.791,-5.791,-5.791,-5.791,-5.791,-5.791,-5.791,-5.8081,-5.8569,-6.0399,-6.1205,-6.1742,-6.367,-6.4304,-6.4304,-6.4304,-6.4304,-6.4304,-6.4304,-6.4304,-6.4304,-6.4304,-6.4304,-6.4304,-6.4304,-6.4304,-6.4304,-6.4304,-6.4304,-6.4304,-6.4304,-6.4304,-6.4377,-6.4646,-6.5921,-6.6477,-6.5433,-6.6225,-6.6401,-6.5087,-6.4946,-6.478,-6.4471,-6.4921,-6.5227,-6.4755,-6.4755,-6.4755,-6.4921,-6.4921,-6.5227,-6.6162,-6.7406,-6.8654,-6.9777,-7.1164,-7.2551,-7.4259,-7.59,-7.6635,-7.6635,-7.6635,-7.6635,-3.4341,-3.5913,-3.6975,-3.71,-3.7874,-3.8642,-3.8889,-3.9916,-4.1015,-4.2209,-4.3071,0.0,0.0,0.0,0.0,0.0,0.0,0.0,0.0,0.0,0.0,0.0,0.0,0.0,0.0,0.0,0.0,0.0,0.0,-5.0188,-5.0188,-5.0835,-5.1639,-5.2437,-5.3408,-5.4215,-5.5017,-5.5966,-5.5658,-5.388,-5.4838,-5.5812,-5.6601,-5.7433,-5.791,-5.791,-5.791,-5.791,-5.791,-5.791,-5.791,-5.791,-5.791,-5.791,-5.791,-5.791,-5.791,-5.8154,-5.9789,-6.0644,-6.1302,-6.3011,-6.3889,-6.4304,-6.4304,-6.4304,-6.4304,-6.4304,-6.4304,-6.4304,-6.4304,-6.4304,-6.4304,-6.4304,-6.4304,-6.4036,-6.306,-6.284,-6.2986,-6.3474,-6.3962,-6.4304,-6.4304,-6.5746,-6.6539,-6.5582,-6.6238,-6.6539,-6.5582,-6.478,-6.4304,-6.4304,-6.4613,-6.4755,-6.4921,-6.4755,-6.4755,-6.4921,-6.4921,-6.5392,-6.63,-6.711,-6.8363,-7.0061,-7.1137,-7.2223,-7.3118,-7.5415,-7.6635,-7.6635,-7.6635,-7.6635,-3.5499,-3.6795,-3.7699,-3.7417,-3.7955,-3.8769,-3.9533,-4.0499,-4.1445,-4.2229,-4.3839,0.0,0.0,0.0,0.0,0.0,0.0,0.0,0.0,0.0,0.0,0.0,0.0,0.0,0.0,0.0,0.0,0.0,0.0,0.0,-5.0512,-5.2119,-5.3723,-5.5326,-5.5326,-5.6296,-5.791,-5.791,-5.7258,-5.5812,-5.5812,-5.6473,-5.791,-5.791,-5.791,-5.791,-5.791,-5.791,-5.791,-5.791,-5.791,-5.791,-5.791,-5.791,-5.791,-5.791,-5.791,-5.8081,-5.913,-6.0082,-6.0985,-6.2059,-6.3157,-6.4084,-6.4084,-6.4182,-6.4304,-6.4304,-6.4304,-6.4255,-6.4109,-6.4084,-6.4036,-6.3889,-6.3865,-6.3328,-6.1424,-6.101,-6.1302,-6.2205,-6.3206,-6.3865,-6.3865,-6.5258,-6.6362,-6.6513,-6.6539,-6.6539,-6.6539,-6.5252,-6.4304,-6.4304,-6.4471,-6.4613,-6.4921,-6.4613,-6.4613,-6.4921,-6.4921,-6.5696,-6.7406,-6.6676,-6.7912,-7.1386,-7.1867,-7.2168,-7.2468,-7.5243,-7.6635,-7.6635,-7.6635,-7.6635,-3.8333,-3.8748,-3.8278,-3.8696,-3.9064,-3.9513,-3.9654,-4.0962,-4.2209,-4.235,-4.4502,-4.6102,0.0,0.0,0.0,0.0,0.0,0.0,0.0,0.0,0.0,0.0,0.0,0.0,0.0,0.0,0.0,0.0,0.0,0.0,-5.23,-5.388,-5.4993,-5.5326,-5.5326,-5.6296,-5.791,-5.791,-5.7735,-5.7433,-5.7433,-5.7584,-5.791,-5.791,-5.791,-5.791,-5.791,-5.791,-5.791,-5.791,-5.791,-5.791,-5.791,-5.791,-5.791,-5.791,-5.791,-5.8081,-5.913,-5.9619,-5.9936,-6.0961,-6.2035,-6.2913,-6.2913,-6.3548,-6.4304,-6.4304,-6.4304,-6.4084,-6.3157,-6.2913,-6.2669,-6.1791,-6.1595,-6.1473,-6.1107,-6.101,-6.1058,-6.1254,-6.1449,-6.1595,-6.1595,-6.2626,-6.3698,-6.4632,-6.478,-6.478,-6.478,-6.4447,-6.4304,-6.4304,-6.4613,-6.4921,-6.4921,-6.4921,-6.4921,-6.4921,-6.4613,-6.5417,-6.7297,-6.6351,-6.802,-7.2914,-7.3589,-7.4522,-7.57,-7.6324,-7.6635,-7.6635,-7.6635,-7.6635,-3.7118,-3.7982,-3.8505,-3.9309,-4.0743,-4.1958,-4.1958,-4.3407,-4.477,-4.477,-4.6484,-4.7911,-4.7234,0.0,0.0,0.0,0.0,0.0,0.0,0.0,0.0,0.0,0.0,0.0,0.0,0.0,0.0,0.0,0.0,0.0,0.0,-5.5812,-5.6778,-5.6778,-5.6778,-5.7106,-5.791,-5.791,-5.791,-5.791,-5.791,-5.791,-5.791,-5.791,-5.791,-5.791,-5.791,-5.791,-5.791,-5.791,-5.791,-5.791,-5.791,-5.791,-5.791,-5.791,-5.791,-5.7984,-5.8496,-5.9057,-5.9594,-6.0082,-6.0936,-6.1791,-6.1791,-6.2157,-6.2596,-6.2596,-6.2596,-6.2449,-6.1913,-6.1791,-6.1668,-6.1132,-6.018,-5.9399,-5.9399,-5.9399,-5.957,-6.0131,-6.0229,-6.0399,-6.0936,-6.1449,-6.2157,-6.3255,-6.3914,-6.4304,-6.4304,-6.4304,-6.4304,-6.4304,-6.4447,-6.478,-6.4921,-6.4755,-6.478,-6.4921,-6.4755,-6.5557,-6.7432,-6.6162,-6.7566,-7.1895,-7.2672,-7.3736,-7.5443,-7.6183,-7.6635,-7.6635,-7.6635,-7.6635,-3.5874,-3.7373,-3.8994,-3.9993,-4.1842,-4.3546,-4.3915,-4.5843,-4.7408,-4.713,-4.8443,-4.9613,-4.9202,-4.9477,0.0,0.0,0.0,0.0,0.0,0.0,0.0,0.0,0.0,0.0,0.0,0.0,0.0,0.0,0.0,0.0,0.0,0.0,0.0,-5.791,-5.791,-5.791,-5.791,-5.791,-5.791,0.0,-5.791,-5.791,-5.791,-5.791,-5.791,-5.791,-5.791,-5.791,-5.791,-5.791,-5.791,-5.791,-5.791,-5.791,-5.791,-5.791,-5.791,-5.791,-5.791,-5.8472,-5.9155,-5.9155,-5.9863,-6.0692,-6.0692,-6.0839,-6.101,-6.101,-6.101,-6.0961,-6.0741,-6.0692,-6.0644,-6.0399,-5.9106,-5.791,-5.791,-5.791,-5.8154,-5.9008,-5.9155,-5.9423,-6.0204,-6.0546,-6.0985,-6.1815,-6.3084,-6.3938,-6.3938,-6.4158,-6.4304,-6.4304,-6.4304,-6.4447,-6.4755,-6.4447,-6.4447,-6.4755,-6.4755,-6.5557,-6.7245,-6.6463,-6.711,-6.9777,-7.1414,-7.2794,-7.4085,-7.5729,-7.6635,-7.6635,-7.6635,-7.6635,-3.7605,-3.9066,-4.0208,-4.1062,-4.1466,-4.211,-4.3574,-4.678,-4.9099,-4.7776,-4.9491,-5.0882,-4.9477,-5.0318,-5.0858,0.0,0.0,0.0,0.0,0.0,0.0,0.0,0.0,0.0,0.0,0.0,0.0,0.0,0.0,0.0,0.0,0.0,0.0,-5.791,-5.791,-5.791,-5.791,-5.791,-5.791,0.0,-5.791,-5.791,-5.791,-5.791,-5.791,-5.791,-5.791,-5.791,-5.791,-5.791,-5.791,-5.791,-5.791,-5.791,-5.791,-5.791,-5.791,-5.791,-5.791,-5.7984,-5.8057,-5.8057,-5.8789,-5.9643,-5.9643,-6.0302,-6.101,-6.101,-6.101,-6.0814,-5.9887,-5.9643,-5.9399,-5.8423,-5.8057,-5.791,-5.791,-5.791,-5.7935,-5.8032,-5.8057,-5.8081,-5.8179,-5.9008,-5.9692,-5.9789,-6.1498,-6.2767,-6.2767,-6.367,-6.4304,-6.4304,-6.4304,-6.4304,-6.4447,-6.4304,-6.4304,-6.4447,-6.4447,-6.5087,-6.6863,-6.711,-6.738,-6.7701,-7.1386,-7.3386,-7.3561,-7.5558,-7.6635,-7.6635,-7.6635,-7.6635,-3.5299,-3.7362,-3.9407,-4.0487,-4.2181,-4.3843,-4.5259,-4.6793,-4.8121,-4.8715,-4.9709,-5.0287,-4.9603,-5.0557,0.0,-4.97,0.0,0.0,0.0,0.0,0.0,0.0,0.0,0.0,0.0,0.0,0.0,0.0,0.0,0.0,0.0,0.0,0.0,0.0,-5.791,-5.791,-5.791,-5.791,-5.791,-5.791,-5.791,-5.791,-5.791,-5.791,-5.791,-5.791,-5.791,-5.791,-5.791,-5.791,-5.791,-5.791,-5.791,-5.791,-5.791,-5.791,-5.791,-5.791,-5.791,-5.791,-5.791,-5.791,-5.8203,-5.8545,-5.8545,-5.8838,-5.9155,-5.9155,-5.9155,-5.9057,-5.8642,-5.8545,-5.8447,-5.8008,-5.791,-5.791,-5.791,-5.791,-5.791,-5.791,-5.791,-5.791,-5.791,-5.8276,-5.8764,-5.9423,-6.0204,-6.1205,-6.2449,-6.3011,-6.3548,-6.4231,-6.4304,-6.4304,-6.4304,-6.4304,-6.4304,-6.4304,-6.4304,-6.4613,-6.5252,-6.5696,-6.6463,-6.738,-7.0189,-7.2196,-7.309,-7.5243,-7.6183,-7.6183,-7.6465,-7.6635,-3.4063,-3.5815,-3.7997,-3.9833,-4.1877,-4.4,-4.5757,-4.6148,-4.666,-4.8466,-4.8832,-4.893,-4.9247,-4.9955,-5.0321,-4.9833,-4.9868,0.0,0.0,0.0,0.0,0.0,0.0,0.0,0.0,0.0,0.0,0.0,0.0,0.0,0.0,0.0,0.0,0.0,-5.791,-5.791,-5.791,-5.791,-5.791,-5.791,-5.791,-5.791,-5.791,-5.791,-5.791,-5.791,-5.791,-5.791,-5.791,-5.791,-5.791,-5.791,-5.791,-5.791,-5.791,-5.791,-5.791,-5.791,-5.791,-5.791,-5.791,-5.791,-5.791,-5.791,-5.791,-5.791,-5.791,-5.791,-5.791,-5.791,-5.791,-5.791,-5.791,-5.791,-5.791,-5.791,-5.791,-5.791,-5.791,-5.791,-5.791,-5.791,-5.791,-5.791,-5.8179,-5.8935,-5.9033,-5.9692,-6.1473,-6.1693,-6.223,-6.3645,-6.4084,-6.4304,-6.4304,-6.4304,-6.4304,-6.4304,-6.4304,-6.4304,-6.4304,-6.4613,-6.5392,-6.6463,-6.8969,-7.0831,-7.1991,-7.461,-7.5842,-7.5842,-7.6183,-7.6465,-3.4946,-3.5156,-3.6191,-3.9363,-4.0298,-4.1047,-4.4244,-4.4859,-4.5318,-4.644,-4.6685,-4.7002,-4.8076,-4.8271,-4.8612,-4.9589,-5.0711,-5.1443,0.0,0.0,0.0,0.0,0.0,0.0,0.0,0.0,0.0,0.0,0.0,0.0,0.0,0.0,0.0,0.0,-5.791,-5.791,-5.791,-5.791,-5.791,-5.791,-5.791,-5.791,-5.791,-5.791,-5.791,-5.791,-5.791,-5.791,-5.791,-5.791,-5.791,-5.791,-5.791,-5.791,-5.791,-5.791,-5.791,-5.791,-5.791,-5.791,-5.791,-5.791,-5.791,-5.791,-5.791,-5.791,-5.791,-5.791,-5.791,-5.791,-5.791,-5.791,-5.791,-5.791,-5.791,-5.791,-5.791,-5.791,-5.791,-5.791,-5.791,-5.791,-5.791,-5.791,-5.791,-5.7935,-5.7935,-5.8301,-5.9399,-5.9545,-6.0326,-6.2401,-6.3621,-6.4304,-6.4304,-6.4304,-6.4304,-6.4304,-6.4304,-6.4304,-6.4304,-6.4304,-6.4304,-6.4471,-6.7994,-6.9852,-6.9852,-7.3533,-7.5386,-7.5386,-7.5842,-7.6013,-3.5131,-3.5747,-3.6664,-3.8611,-4.0169,-4.1731,-4.3488,-4.4439,-4.4854,-4.4488,-4.5001,-4.5611,-4.5952,-4.7807,-4.9149,-4.8783,-5.0247,-5.1577,0.0,0.0,0.0,0.0,0.0,0.0,0.0,0.0,0.0,0.0,0.0,0.0,0.0,0.0,0.0,0.0,-5.791,-5.791,-5.791,-5.791,-5.791,-5.791,-5.791,-5.791,-5.791,-5.791,-5.791,-5.791,-5.791,-5.791,-5.791,-5.791,-5.791,-5.791,-5.791,-5.791,-5.791,-5.791,-5.791,-5.791,-5.791,-5.791,-5.791,-5.791,-5.791,-5.791,-5.791,-5.791,-5.791,-5.791,-5.791,-5.791,-5.791,-5.791,-5.791,-5.791,-5.791,-5.8106,-5.8862,-5.8423,-5.813,-5.8862,-5.8398,-5.791,-5.791,-5.791,-5.791,-5.791,-5.791,-5.8032,-5.8374,-5.9057,-5.9765,-6.0424,-6.2083,-6.345,-6.4231,-6.4304,-6.4304,-6.4304,-6.4304,-6.4304,-6.4304,-6.4304,-6.4304,-6.4304,-6.6676,-6.8363,-6.9386,-7.1991,-7.3882,-7.5013,-7.5415,-7.57,-3.518,-3.5601,-3.6301,-3.7581,-3.9428,-4.1228,-4.1932,-4.3235,-4.4012,-4.3013,-4.3292,-4.3756,-4.3756,-4.605,-4.788,-4.7661,-4.9418,-5.0955,-5.1504,0.0,0.0,0.0,0.0,0.0,0.0,0.0,0.0,0.0,0.0,0.0,0.0,0.0,0.0,-5.791,-5.791,-5.791,-5.791,-5.791,-5.791,-5.791,-5.791,-5.791,-5.791,-5.791,-5.791,-5.791,-5.791,-5.791,-5.791,-5.791,-5.791,-5.791,-5.791,-5.791,-5.791,-5.791,-5.791,-5.791,-5.791,-5.791,-5.791,-5.791,-5.791,-5.791,-5.791,-5.791,-5.791,-5.791,-5.791,-5.791,-5.791,-5.791,-5.791,-5.791,-5.791,-5.8203,-5.9277,-5.8667,-5.8228,-5.9301,-5.8642,-5.791,-5.791,-5.791,-5.791,-5.791,-5.791,-5.791,-5.791,-5.8496,-5.9057,-5.9472,-6.0668,-6.2059,-6.3548,-6.406,-6.4304,-6.4304,-6.4946,-6.4921,-6.4304,-6.4304,-6.4613,-6.5252,-6.6974,-6.8522,-7.0189,-7.2045,-7.3589,-7.4579,-7.4984,-7.5272,-3.5352,-3.5043,-3.5317,-3.6591,-3.836,-3.9814,-4.0032,-4.179,-4.3124,-4.2089,-4.1849,-4.1849,-4.1766,-4.3454,-4.5171,-4.6538,-4.8368,-5.0028,-5.1283,0.0,0.0,0.0,0.0,0.0,0.0,0.0,0.0,0.0,0.0,0.0,0.0,0.0,0.0,-5.791,-5.791,-5.791,-5.791,-5.791,-5.791,-5.791,-5.791,-5.791,-5.791,-5.791,-5.791,-5.791,-5.791,-5.791,-5.791,-5.791,-5.791,-5.791,-5.791,-5.791,-5.791,-5.791,-5.791,-5.791,-5.791,-5.791,-5.791,-5.791,-5.791,-5.791,-5.791,-5.791,-5.791,-5.791,-5.791,-5.791,-5.791,-5.791,-5.791,-5.791,-5.791,-5.8203,-5.9277,-5.8667,-5.8228,-5.9301,-5.8642,-5.791,-5.791,-5.791,-5.791,-5.791,-5.791,-5.791,-5.791,-5.791,-5.8301,-5.9301,-5.9472,-6.0302,-6.223,-6.3499,-6.4349,-6.4491,-6.6162,-6.6376,-6.4755,-6.478,-6.5417,-6.7,-6.8496,-7.0034,-7.1798,-7.3322,-7.4113,-7.4259,-7.4579,-7.4868,-3.6364,-3.5952,-3.5869,-3.6341,-3.8798,-4.1229,-4.2135,-4.339,-4.4042,-4.3085,-4.2803,-4.2602,-4.1813,-4.2761,-4.4585,-4.7417,-4.8295,-4.8978,-5.0003,-4.9491,-4.9711,-5.159,0.0,0.0,0.0,0.0,0.0,0.0,0.0,0.0,0.0,0.0,-5.791,-5.791,-5.791,-5.791,-5.791,-5.791,-5.791,-5.791,-5.791,-5.791,-5.791,-5.791,-5.791,-5.791,-5.791,-5.791,-5.791,-5.791,-5.791,-5.791,-5.791,-5.791,-5.791,-5.791,-5.791,-5.791,-5.791,-5.791,-5.791,-5.791,-5.791,-5.791,-5.791,-5.791,-5.791,-5.791,-5.791,-5.791,-5.791,-5.791,-5.791,-5.791,-5.791,-5.8203,-5.9277,-5.8667,-5.8228,-5.9301,-5.8642,-5.791,-5.791,-5.791,-5.791,-5.791,-5.791,-5.791,-5.791,-5.791,-5.8008,-5.8252,-5.9008,-5.9716,-6.0204,-6.1937,-6.4125,-6.662,-6.7869,-6.8496,-6.7994,-6.7994,-6.8311,-6.8627,-6.9073,-7.0034,-7.1798,-7.21,-7.3025,-7.4259,-7.4405,-7.4579,-3.6735,-3.6703,-3.7083,-3.826,-3.9964,-4.1509,-4.2097,-4.3166,-4.3738,-4.2593,-4.2461,-4.2452,-4.2287,-4.2017,-4.2897,-4.6187,-4.7516,-4.8612,-4.9613,-4.9735,-5.015,0.0,0.0,0.0,0.0,0.0,0.0,0.0,0.0,0.0,0.0,0.0,-5.791,-5.791,-5.791,-5.791,-5.791,-5.791,-5.791,-5.791,-5.791,-5.791,-5.791,-5.791,-5.791,-5.791,0.0,-5.791,-5.791,-5.791,-5.791,-5.791,-5.791,-5.791,-5.791,-5.791,-5.791,-5.791,-5.791,-5.791,-5.791,-5.791,-5.791,-5.791,-5.791,-5.791,-5.791,-5.791,-5.791,-5.791,-5.791,-5.791,-5.791,-5.791,-5.791,-5.8203,-5.9277,-5.8667,-5.8228,-5.9301,-5.8642,-5.791,-5.791,-5.791,-5.791,-5.791,-5.791,-5.791,-5.791,-5.791,-5.791,-5.791,-5.8423,-5.9266,-6.0423,-6.1517,-6.3682,-6.7236,-6.802,-6.8702,-6.9203,-6.9229,-6.9568,-7.037,-7.037,-7.1137,-7.2877,-7.2877,-7.3322,-7.4259,-7.4259,-7.4405,-3.7489,-3.7818,-3.8742,-4.0797,-4.1372,-4.1494,-4.1484,-4.2447,-4.3095,-4.2217,-4.2031,-4.2324,-4.3023,-4.19,-4.1606,-4.4273,-4.6535,-4.8274,-4.9345,-5.0345,-5.1004,-5.115,0.0,0.0,0.0,0.0,0.0,0.0,0.0,0.0,0.0,-5.791,-5.791,-5.791,-5.791,-5.791,-5.791,-5.791,-5.791,-5.791,-5.791,-5.791,-5.791,-5.791,-5.791,0.0,0.0,-5.791,-5.791,-5.791,-5.791,-5.791,-5.791,-5.791,-5.791,-5.791,-5.791,-5.791,-5.791,-5.791,-5.791,-5.791,-5.791,-5.791,-5.791,-5.791,-5.791,-5.791,-5.791,-5.791,-5.791,-5.791,-5.791,-5.791,-5.791,-5.8154,-5.9057,-5.8545,-5.8179,-5.9106,-5.8545,-5.791,-5.791,-5.791,-5.791,-5.791,-5.791,-5.791,-5.791,-5.791,-5.791,-5.791,-5.791,-5.8831,-6.0829,-6.1481,-6.3273,-6.7113,-6.752,-6.8256,-6.9714,-6.9767,-7.0489,-7.21,-7.21,-7.2877,-7.4259,-7.4259,-7.4259,-7.4259,-7.4259,-7.4259,-4.0707,-4.101,-4.1071,-4.1456,-4.2042,-4.2573,-4.2783,-4.3615,-4.4226,-4.411,-4.411,-4.3899,-4.325,-4.3585,-4.3863,-4.3597,-4.5369,-4.7169,-4.8323,-4.8637,-4.9052,-4.9906,-5.1004,0.0,0.0,0.0,0.0,0.0,0.0,0.0,0.0,-5.791,-5.791,-5.791,-5.791,-5.791,-5.791,-5.791,-5.791,-5.791,-5.791,-5.791,-5.791,-5.791,-5.791,0.0,0.0,0.0,-5.791,-5.791,-5.791,-5.791,-5.791,-5.791,-5.791,-5.791,-5.791,-5.791,-5.791,-5.791,-5.791,-5.791,-5.791,-5.791,-5.791,-5.791,-5.791,-5.791,-5.791,-5.791,-5.791,-5.791,-5.791,-5.791,-5.791,-5.7959,-5.8106,-5.8032,-5.7959,-5.813,-5.8032,-5.791,-5.791,-5.791,-5.791,-5.791,-5.791,-5.791,-5.791,-5.791,-5.791,-5.791,-5.791,-5.811,-5.8407,-6.0353,-6.3048,-6.6398,-6.7861,-6.9614,-7.1905,-7.2017,-7.2637,-7.3792,-7.3792,-7.3967,-7.4259,-7.4259,-7.4259,-7.4259,-7.4259,-7.4259,-4.1581,-4.2168,-4.2716,-4.342,-4.3244,-4.3177,-4.3732,-4.4226,-4.449,-4.449,-4.449,-4.4402,-4.396,-4.3834,-4.4139,-4.4931,-4.5394,-4.6374,-4.8137,-4.8695,-4.9467,-5.054,-5.1126,-5.2189,0.0,0.0,0.0,0.0,0.0,-5.791,0.0,-5.791,-5.791,-5.791,-5.791,-5.791,-5.791,-5.791,-5.791,-5.791,-5.791,-5.791,-5.791,-5.791,-5.791,0.0,0.0,0.0,-5.791,-5.791,-5.791,-5.791,-5.791,-5.791,-5.791,-5.791,-5.791,-5.791,-5.791,-5.791,-5.791,-5.791,-5.791,-5.791,-5.791,-5.791,-5.791,-5.791,-5.791,-5.791,-5.791,-5.791,-5.791,-5.791,-5.791,-5.791,-5.791,-5.791,-5.791,-5.791,-5.791,-5.791,-5.791,-5.791,-5.791,-5.791,-5.791,-5.791,-5.791,-5.791,-5.791,-5.791,-5.791,-5.8162,-5.8981,-6.1676,-6.382,-6.5297,-6.7495,-6.9265,-7.0422,-7.1127,-7.2058,-7.33,-7.3921,-7.4259,-7.4259,-7.4259,-7.4259,-7.4259,-7.4259,-7.4259,-4.2212,0.0,-4.3876,-4.4696,-4.417,-4.3574,0.0,-4.4314,-4.449,-4.449,-4.449,-4.449,-4.449,-4.396,-4.4164,-4.6111,-4.5926,-4.6154,-4.8541,-4.9189,-4.9802,-5.0696,-5.0906,-5.1468,-5.2541,0.0,0.0,0.0,0.0,-5.791,0.0,-5.791,-5.791,-5.791,-5.791,-5.791,-5.791,-5.791,-5.791,-5.791,-5.791,-5.791,-5.7735,-5.791,0.0,0.0,0.0,0.0,-5.791,-5.791,-5.791,-5.791,-5.791,-5.791,-5.791,-5.791,-5.791,-5.791,-5.791,-5.791,-5.791,-5.791,-5.791,-5.791,-5.791,-5.791,-5.791,-5.791,-5.791,-5.791,-5.791,-5.791,-5.791,-5.791,-5.791,-5.791,-5.791,-5.791,-5.791,-5.791,-5.791,-5.791,-5.791,-5.791,-5.791,-5.791,-5.791,-5.791,-5.791,-5.791,-5.791,-5.791,-5.8186,-5.8858,-5.9909,-6.2881,-6.4561,-6.4561,-6.691,-6.8447,-6.8864,-6.9632,-7.0761,-7.203,-7.2933,-7.3384,-7.3384,-7.3695,-7.3836,-7.3864,-7.4118,-7.4259,0.0,-4.4234,-4.4578,-4.3671,-4.3993,-4.4226,-4.3394,-4.396,0.0,-4.449,-4.449,-4.449,-4.449,-4.4402,-4.4829,-4.6209,-4.6367,-4.7239,-4.974,-4.9132,-4.8533,-4.847,-4.9296,-5.0321,-5.1577,0.0,0.0,0.0,0.0,0.0,0.0,-5.791,-5.791,-5.791,-5.791,-5.791,-5.791,-5.791,-5.791,-5.791,-5.791,-5.7735,-5.7185,-5.7735,0.0,0.0,0.0,0.0,0.0,-5.791,-5.791,-5.791,-5.791,-5.791,-5.791,-5.791,-5.791,-5.791,-5.791,-5.791,-5.791,-5.791,-5.791,-5.791,-5.791,-5.791,-5.791,-5.791,-5.791,-5.791,-5.791,-5.791,-5.791,-5.791,-5.791,-5.791,-5.791,-5.791,-5.791,-5.791,-5.791,-5.791,-5.791,-5.791,-5.791,-5.791,-5.791,-5.791,-5.791,-5.791,-5.791,-5.791,-5.9104,-5.9909,-6.0055,-6.2881,-6.4561,-6.4561,-6.6101,-6.7544,-6.8701,-6.8949,-6.9463,-7.0676,-7.0789,-7.0845,-7.0845,-7.2058,-7.2651,-7.2679,-7.3751,-7.4259,-4.5629,-4.5464,-4.4973,-4.6285,-4.5527,-4.4402,-4.4049,-4.4226,-4.449,-4.449,-4.449,-4.449,-4.449,-4.449,-4.5217,-4.7311,-4.7577,-4.8155,-5.0016,-4.9792,-4.9415,-4.9289,-5.0226,-5.0955,0.0,-5.2785,0.0,0.0,0.0,0.0,0.0,-5.791,-5.8312,-5.9252,-5.9252,-5.9252,-5.9252,-5.9252,-5.9252,-5.9252,-5.9252,-5.8957,-5.8412,-5.7687,0.0,0.0,0.0,0.0,0.0,-5.7735,-5.791,-5.791,-5.791,-5.791,-5.791,-5.791,-5.791,-5.791,-5.791,-5.791,-5.791,-5.791,-5.791,-5.791,-5.791,-5.791,-5.791,-5.791,-5.791,-5.791,-5.791,-5.791,-5.791,-5.791,-5.791,-5.791,-5.791,-5.791,-5.8186,-5.9129,-5.9252,-5.9546,-6.0567,-6.0686,-6.0686,-6.0686,-6.0686,-6.0396,-5.9399,-5.9252,-5.9252,-5.9252,-5.9789,-6.0753,-6.2741,-6.4725,-6.6018,-6.6018,-6.6604,-6.7093,-6.7572,-6.7601,-6.8165,-6.9406,-6.9435,-6.9801,-7.0563,-7.1071,-7.1325,-7.1325,-7.1776,-7.1974,-4.7938,-4.7741,-4.7174,-4.8265,-4.7097,-4.5476,-4.4687,-4.449,-4.449,-4.449,-4.449,-4.449,-4.449,-4.4828,-4.5876,-4.8048,-4.8641,-4.9419,-5.1213,-5.1098,-5.0663,-5.0546,-5.0842,-5.1039,-5.099,0.0,0.0,0.0,0.0,0.0,-5.8066,-5.8412,-5.9277,-6.0779,-6.0779,-6.0779,-6.0779,-6.0779,-6.0779,-6.0779,-6.0779,-6.0226,-5.9129,-5.866,0.0,0.0,0.0,0.0,0.0,-5.7711,-5.7584,-5.7584,-5.776,-5.791,-5.7735,-5.791,-5.791,-5.791,-5.791,-5.791,-5.791,-5.791,-5.791,-5.791,-5.791,-5.791,-5.791,-5.791,-5.791,-5.791,-5.791,-5.791,-5.8061,-5.8436,-5.8586,-5.8734,-5.9302,-5.9302,-5.9571,-6.0635,-6.0779,-6.1184,-6.2231,-6.2346,-6.2346,-6.2346,-6.2346,-6.2064,-6.0923,-6.0779,-6.0779,-6.0779,-6.1184,-6.246,-6.5023,-6.6311,-6.6895,-6.6895,-6.6895,-6.6895,-6.6895,-6.6895,-6.729,-6.8137,-6.8165,-6.856,-6.9406,-6.9406,-6.9604,-6.9999,-6.9999,-7.0196,-5.0369,-5.1381,-5.1462,-4.8979,-4.8235,-4.7588,-4.511,-4.4547,-4.4547,-4.449,-4.449,-4.449,-4.449,-4.5594,-4.6863,-4.8161,-4.9374,-5.1011,-5.355,-5.287,-5.2019,-5.194,-5.094,-5.0062,-4.9791,-5.1736,-5.303,0.0,0.0,0.0,-5.848,-5.9471,-6.0753,-6.2346,-6.2346,-6.2346,-6.2346,-6.2346,-6.2346,-6.2346,-6.2346,-6.1353,-5.9496,-6.066,-6.0106,0.0,0.0,0.0,0.0,-5.7487,-5.6906,-5.6625,-5.7584,-5.756,-5.7185,-5.7735,-5.791,-5.791,-5.791,-5.791,-5.791,-5.791,-5.791,-5.791,-5.791,-5.791,-5.791,-5.791,-5.791,-5.791,-5.791,-5.791,-5.8312,-5.9789,-6.0055,-6.049,-6.2064,-6.2346,-6.2346,-6.2346,-6.2346,-6.2346,-6.2487,-6.2487,-6.2487,-6.2487,-6.2487,-6.2487,-6.2346,-6.2346,-6.2346,-6.2346,-6.374,-6.5158,-6.6736,-6.6895,-6.6895,-6.6895,-6.6895,-6.6895,-6.6895,-6.6895,-6.6895,-6.6895,-6.6895,-6.6895,-6.6895,-6.6895,-6.7516,-6.8864,-6.8864,-6.9378,-5.371,-5.3142,-5.2309,-5.3296,-5.2224,-5.0305,-4.7823,-4.723,-4.6602,-4.4856,-4.449,-4.449,-4.449,-4.5594,-4.6835,-4.8105,-5.0108,-5.2055,-5.3663,-5.3618,-5.3433,-5.3209,-5.2129,-5.1345,-5.0965,-5.1516,-5.2606,0.0,0.0,0.0,-5.9727,-6.1223,-6.2202,-6.2634,-6.3445,-6.3877,-6.3877,-6.3877,-6.3877,-6.3877,-6.3877,-6.3073,-6.1574,-6.0974,-6.0541,-5.9985,0.0,0.0,0.0,-5.8362,-5.7938,-5.7813,-5.7233,-5.693,-5.6778,-5.7233,-5.7233,-5.7106,-5.776,-5.7735,-5.7385,-5.7735,-5.791,-5.776,-5.7106,-5.6954,-5.7106,-5.7385,-5.7361,-5.7536,-5.7886,-5.8734,-5.9789,-6.1353,-6.178,-6.178,-6.2372,-6.2346,-6.2627,-6.374,-6.3877,-6.4316,-6.532,-6.5617,-6.5617,-6.5617,-6.5617,-6.5186,-6.4042,-6.3877,-6.3877,-6.3877,-6.532,-6.6311,-6.6895,-6.6895,-6.6895,-6.6895,-6.6895,-6.6895,-6.6895,-6.6895,-6.6895,-6.6895,-6.6895,-6.6895,-6.6895,-6.6895,-6.7065,-6.746,-6.746,-6.7629,-5.6765,-5.6146,-5.513,-5.5638,-5.4622,-5.276,-4.9741,-4.8669,-4.7616,-4.5735,-4.4856,-4.4747,-4.5581,-4.6537,-4.786,-4.9874,-5.1664,-5.3381,-5.513,-5.5423,-5.5404,-5.5275,-5.4531,-5.3926,-5.3115,-5.3035,-5.3704,-5.5099,0.0,0.0,-6.0635,-6.1651,-6.2413,-6.2911,-6.41,-6.4736,-6.4736,-6.5206,-6.5455,-6.5455,-6.5455,-6.4507,-6.2874,-6.2425,-6.1833,-6.0882,-6.0251,0.0,0.0,-5.9079,-5.866,-5.8511,-5.8113,-5.7963,-5.7764,-5.8238,-5.8262,-5.8137,-5.861,-5.8287,-5.7638,-5.8012,-5.8586,-5.9154,-5.8511,-5.8635,-5.8907,-5.9202,-5.9177,-5.9349,-5.9571,-6.0396,-6.1353,-6.2907,-6.3186,-6.3463,-6.4069,-6.4206,-6.448,-6.5293,-6.5455,-6.5723,-6.6764,-6.6895,-6.6895,-6.6895,-6.6895,-6.6604,-6.5589,-6.5455,-6.5455,-6.5455,-6.6311,-6.6895,-6.6895,-6.6895,-6.6895,-6.6895,-6.6895,-6.6895,-6.6895,-6.6895,-6.6895,-6.6895,-6.6895,-6.6895,-6.6895,-6.6895,-6.6895,-6.6895,-6.6895,-6.6895,-5.9224,-5.9419,-5.8883,-5.6625,-5.6089,-5.5102,-5.1321,-4.9515,-4.8218,-4.6751,-4.5453,-4.5209,-4.7259,-4.8217,-4.9771,-5.286,-5.3994,-5.5233,-5.7358,-5.7811,-5.7805,-5.7565,-5.7582,-5.692,-5.5509,-5.5384,-5.5384,-5.5384,0.0,0.0,-6.1083,-6.1196,-6.1695,-6.285,-6.4117,-6.4949,-6.5061,-6.6032,-6.6651,-6.6764,-6.6764,-6.5644,-6.3571,-6.426,-6.3432,-6.1483,-6.1026,0.0,0.0,-5.9935,-5.9374,-5.9104,-5.989,-5.9864,-5.9496,-6.0036,-6.0207,-6.0061,-6.0233,-5.9474,-5.8387,-5.8536,-5.9668,-6.0949,-6.0949,-6.1522,-6.209,-6.2231,-6.2231,-6.2231,-6.2346,-6.2487,-6.2907,-6.4152,-6.4589,-6.5158,-6.6604,-6.6895,-6.6895,-6.6895,-6.6895,-6.6895,-6.6895,-6.6895,-6.6895,-6.6895,-6.6895,-6.6895,-6.6895,-6.6895,-6.6895,-6.6895,-6.6895,-6.6895,-6.6895,-6.6895,-6.6895,-6.6895,-6.6895,-6.6895,-6.6895,-6.6895,-6.6895,-6.6895,-6.6895,-6.6895,-6.6895,-6.6895,-6.6895,-6.6895,-6.6895,-6.6895,-5.9479,-5.9419,-5.9306,-5.877,-5.8657,-5.7669,-5.3945,-5.2139,-5.0334,-4.7117,-4.5839,-4.5759,-4.7347,-4.9823,-5.2145,-5.3861,-5.6817,-5.8768,-5.8639,-5.9507,-5.9455,-5.7795,-5.7582,-5.692,-5.5509,-5.5384,-5.5384,-5.5384,-5.6645,0.0,-6.0859,-6.1073,-6.1152,-6.0916,-6.2142,-6.3285,-6.4363,-6.3962,-6.457,-6.5912,-6.5375,-6.4671,-6.3571,-6.3709,-6.3319,-6.2389,-6.2221,0.0,0.0,-6.0856,-6.0396,-6.0251,-5.9546,-5.9104,-5.9079,-5.9521,-5.9399,-5.9277,-6.0061,-5.9864,-5.9374,-5.9743,-5.9571,-5.9374,-5.9374,-5.9521,-5.9789,-6.083,-6.0974,-6.1262,-6.2231,-6.3186,-6.4152,-6.4425,-6.5455,-6.6444,-6.6736,-6.6895,-6.6895,-6.6895,-6.6895,-6.6895,-6.6895,-6.6895,-6.6895,-6.6895,-6.6895,-6.6895,-6.6895,-6.6895,-6.6895,-6.6895,-6.6895,-6.6895,-6.6895,-6.6895,-6.6895,-6.6895,-6.6895,-6.6895,-6.6895,-6.6895,-6.6895,-6.6895,-6.6895,-6.6895,-6.6895,-6.6895,-6.6895,-6.6895,-6.6895,-6.6895,-5.9419,-5.9419,-5.9419,-5.9419,-5.9419,-5.8885,-5.6751,-5.5318,-5.3724,-5.0839,-4.9005,-4.8425,-5.0217,-5.1577,-5.3414,-5.6321,-5.8698,-6.026,-6.0415,-6.0702,-6.0458,-5.9245,-5.8776,-5.8182,-5.7406,-5.7406,-5.7499,-5.798,-5.8274,-5.9362,-6.1332,-6.149,-6.126,-6.0586,-6.1442,-6.2028,-6.2323,-6.2714,-6.3489,-6.4359,-6.4668,-6.426,-6.3571,-6.3571,-6.318,-6.2557,-6.2557,0.0,-6.2531,-6.1911,-6.1626,-6.1483,-6.0882,-6.0737,-6.0737,-6.0882,-6.0882,-6.0763,-6.1221,-6.0737,-6.0106,-6.1077,-6.1339,-6.1092,-6.1092,-6.1379,-6.1806,-6.2399,-6.254,-6.268,-6.3378,-6.4343,-6.505,-6.505,-6.6018,-6.6895,-6.6895,-6.7347,-6.7601,-6.7008,-6.7375,-6.7601,-6.7008,-6.6895,-6.6895,-6.6895,-6.6895,-6.6895,-6.6895,-6.6895,-6.6895,-6.6895,-6.6895,-6.6895,-6.6895,-6.6895,-6.6895,-6.6895,-6.6895,-6.6895,-6.6895,-6.6895,-6.6895,-6.6895,-6.6895,-6.6895,-6.6895,-6.6895,-6.6895,-6.6895,-6.6895,-6.6895,-5.9362,-5.9419,-5.9507,-5.9368,-5.9312,-5.9201,-5.8887,-5.7886,-5.6583,-5.5086,-5.2825,-5.1669,-5.3673,-5.3553,-5.4536,-5.8493,-5.9775,-6.0702,-6.1794,-6.1344,-6.0988,-6.0996,-6.0315,-5.9883,-5.9883,-5.9883,-6.0229,-6.1025,-6.0343,-6.0543,-6.2078,-6.1968,-6.1666,-6.1025,-6.1289,-6.1209,-6.0713,-6.1998,-6.2742,-6.2858,-6.3903,-6.3935,-6.3137,-6.3352,-6.3067,-6.2557,-6.2557,0.0,-6.2557,-6.2557,-6.2557,-6.2557,-6.2557,-6.2557,-6.2557,-6.2557,-6.2557,-6.2557,-6.2557,-6.1937,-6.117,-6.2221,-6.2927,-6.3432,-6.3432,-6.3848,-6.4397,-6.4534,-6.4534,-6.4534,-6.4671,-6.5078,-6.551,-6.551,-6.6073,-6.6472,-6.6604,-6.7721,-6.8341,-6.7685,-6.8362,-6.8673,-6.7431,-6.7206,-6.7149,-6.6924,-6.6895,-6.6895,-6.6895,-6.6895,-6.6895,-6.6895,-6.6895,-6.6895,-6.6895,-6.6895,-6.6895,-6.6895,-6.6895,-6.6895,-6.6895,-6.6895,-6.6895,-6.6895,-6.6895,-6.6895,-6.6895,-6.6895,-6.6895,-6.6895,-6.6895,-6.6895,-5.9136,-5.9419,-5.9397,-5.8911,-5.8846,-5.872,-5.8373,-5.7344,-5.6443,-5.6316,-5.4625,-5.3704,-5.5031,-5.5669,-5.6612,-5.8448,-5.9857,-6.081,-6.1432,-6.1405,-6.1508,-6.1851,-6.1748,-6.1637,-6.1637,-6.1637,-6.1748,-6.1858,-6.1555,-6.1777,-6.2761,-6.2108,-6.1555,-6.1585,-6.1195,-6.1434,-6.2237,-6.1811,-6.1788,-6.2208,-6.259,-6.2284,-6.1218,-6.2222,-6.2672,-6.2557,0.0,0.0,-6.2557,-6.2557,-6.2557,-6.2557,-6.2557,-6.2557,-6.2557,-6.2557,-6.2557,-6.2557,-6.2557,-6.2531,-6.2389,-6.2531,-6.2672,-6.2672,-6.2672,-6.2813,-6.2953,-6.3571,-6.3709,-6.3848,-6.4534,-6.4807,-6.4807,-6.4807,-6.4942,-6.5213,-6.5778,-6.6886,-6.8274,-6.9777,-7.0225,-6.9942,-6.8701,-6.8503,-6.8137,-6.7065,-6.6895,-6.6895,-6.6895,-6.6895,-6.6895,-6.6895,-6.6895,-6.6895,-6.6895,-6.6895,-6.6895,-6.6895,-6.6895,-6.6895,-6.6895,-6.6895,-6.6895,-6.6895,-6.6895,-6.6895,-6.6895,-6.6895,-6.6895,-6.6895,-6.6895,-6.6895,-5.8438,-5.8691,-5.8656,-5.8399,-5.836,-5.8503,-5.8682,-5.9358,-5.9762,-5.9028,-5.7958,-5.7362,-5.7891,-5.8285,-5.9198,-6.0993,-6.2733,-6.391,-6.4104,-6.3255,-6.253,-6.2749,-6.2267,-6.1968,-6.1968,-6.1968,-6.2188,-6.2701,-6.319,-6.3433,-6.3781,-6.3357,-6.3036,-6.2928,-6.2406,-6.2175,-6.2286,-6.1895,-6.1697,-6.1714,-6.2547,-6.2137,-6.0859,-6.2041,-6.2577,-6.2741,0.0,-6.3067,-6.3544,-6.2927,-6.2557,-6.2557,-6.2557,-6.2557,-6.2557,-6.2557,-6.2557,-6.2557,-6.2557,-6.3067,-6.3821,-6.4616,-6.4343,-6.3682,-6.3682,-6.318,-6.2672,-6.2927,-6.3067,-6.3067,-6.3485,-6.3736,-6.4123,-6.4123,-6.4914,-6.5736,-6.6012,-6.7084,-6.8604,-7.0534,-7.0791,-7.0196,-6.8955,-6.8165,-6.7516,-6.698,-6.6895,-6.6895,-6.6895,-6.6895,-6.6895,-6.6895,-6.6895,-6.6895,-6.6895,-6.6895,-6.6895,-6.6895,-6.6895,-6.6895,-6.6895,-6.6895,-6.6895,-6.6895,-6.6895,-6.6895,-6.6895,-6.6895,-6.6895,-6.6895,-6.6895,-6.7129,-5.7874,-5.8095,-5.8272,-5.8724,-5.8825,-5.9187,-6.055,-6.2253,-6.3293,-6.2637,-6.1914,-6.1444,-6.1387,-6.1158,-6.1484,-6.3116,-6.46,-6.5692,-6.6072,-6.4874,-6.3959,-6.4151,-6.3554,-6.3023,-6.2731,-6.2731,-6.3236,0.0,-6.5,-6.5264,-6.5062,-6.4788,-6.4613,-6.4273,-6.3645,-6.3053,-6.2485,-6.2345,-6.1896,-6.137,-6.2626,-6.2371,-6.0956,-6.2165,-6.2714,-6.2797,-6.3013,-6.3636,-6.4528,-6.3823,-6.3598,-6.3598,-6.3598,-6.3598,-6.3598,-6.3598,-6.3459,-6.318,-6.3459,-6.4206,-6.5238,-6.6275,-6.5906,-6.5103,-6.5103,-6.4343,-6.3598,-6.3598,-6.3598,-6.3598,-6.3598,-6.3958,-6.4343,-6.4343,-6.5433,-6.65,-6.664,-6.7341,-6.8431,-7.0205,-7.0225,-6.9726,-6.883,-6.7762,-6.6969,-6.666,-6.6764,-6.6895,-6.6895,-6.6895,-6.6895,-6.6895,-6.6895,-6.6895,-6.6895,-6.6895,-6.6895,-6.6895,-6.6895,-6.6895,-6.6895,-6.6895,-6.6895,-6.6895,-6.6895,-6.7027,-6.726,-6.726,-6.739,-6.7621,-6.7621,-6.8008,-5.7742,-5.8095,-5.855,-6.0285,-6.0733,-6.1546,-6.4686,-6.5431,-6.5849,-6.7011,-6.6267,-6.5391,-6.5391,-6.4288,-6.3438,-6.3535,-6.3664,-6.4159,-6.552,-6.5592,-6.5741,-6.6097,-6.6059,-6.5695,-6.4716,-6.4613,-6.5365,-6.7306,0.0,-6.7148,-6.7116,-6.6129,-6.5539,-6.5309,-6.4655,-6.4126,-6.3841,-6.3523,-6.2633,-6.1308,-6.2473,-6.2352,-6.1067,-6.2276,-6.2838,-6.2922,-6.4159,-6.4693,-6.4777,-6.5957,-6.6435,-6.6435,-6.6435,-6.6435,-6.6435,-6.6435,-6.564,-6.4589,-6.6039,-6.6567,-6.6567,-6.6698,-6.6567,-6.6538,-6.6538,-6.6567,-6.6435,-6.6435,-6.6435,-6.6435,-6.6435,-6.6435,-6.6567,-6.6567,-6.642,-6.6503,-6.7225,-6.7402,-6.7606,-6.8186,-6.8474,-6.8447,-6.8392,-6.7914,-6.7111,-6.5973,-6.6339,-6.6895,-6.6895,-6.6895,-6.6895,-6.6895,-6.6895,-6.6895,-6.6895,-6.6895,-6.6895,-6.6895,-6.6895,-6.6895,-6.6895,-6.6895,-6.6895,-6.6895,-6.6895,-6.739,-6.8362,-6.8362,-6.884,-6.9685,-6.9685,-6.9685,-5.7468,-5.8728,-5.987,-6.2052,-6.2631,-6.2879,-6.4039,-6.5488,-6.6507,-6.6409,-6.6472,-6.6516,-6.6516,-6.6092,-6.5986,-6.6632,-6.6975,-6.742,-6.7856,-6.7389,-6.7038,-6.7086,-6.715,-6.6961,-6.6675,-6.7084,-6.7424,-6.7585,-6.7585,-6.7367,-6.6992,-6.6611,-6.6226,-6.5835,-6.5862,-6.5795,-6.5695,-6.5093,-6.4449,-6.4004,-6.3425,-6.2534,-6.1204,-6.2352,-6.2926,-6.3103,-6.3362,-6.4024,-6.4821,-6.4382,-6.4652,-6.5384,-6.5384,-6.5992,-6.6698,-6.6698,-6.6275,-6.6303,-6.8559,-6.8811,-6.8148,-6.9092,-6.8811,-6.8021,-6.8021,-6.7349,-6.6698,-6.6698,-6.6698,-6.6698,-6.6698,-6.6698,-6.6698,-6.6698,-6.7229,-6.7718,-6.7991,-6.8611,-6.936,-7.045,-7.135,-7.1684,-7.0658,-7.0581,-6.975,-6.6913,-6.7722,-6.8334,-6.7305,-6.7175,-6.6651,-6.5644,-6.5912,-6.6073,-6.6073,-6.6604,-6.6895,-6.6895,-6.752,-6.7879,-6.7879,-6.8461,-6.8714,-6.8714,-6.8714,-6.8966,-6.9342,-6.9342,-6.9466,-6.9808,-6.9808,-7.0207,-5.703,-5.8758,-6.0455,-6.3337,-6.435,-6.4923,-6.5752,-6.7143,-6.7988,-6.7092,-6.7442,-6.7764,-6.7355,-6.7848,-6.824,-6.834,-6.9069,-6.9524,-6.8941,-6.8752,-6.8514,-6.8138,-6.8532,-6.8653,-6.8095,-6.8848,0.0,-6.8683,-6.9146,-6.9154,-6.8542,-6.8218,-6.7673,-6.6897,-6.6771,-6.6611,-6.6418,-6.5929,-6.5664,-6.5664,-6.4726,-6.3554,-6.2376,-6.2822,-6.3235,-6.36,-6.3488,-6.4067,-6.486,-6.444,-6.4742,-6.549,-6.549,-6.6266,-6.7515,-6.7515,-6.7515,-6.7853,-7.0118,-7.0266,-6.9744,-7.0662,-7.0266,-6.9466,-6.9466,-6.8811,-6.8148,-6.8148,-6.8148,-6.8148,-6.8148,-6.8148,-6.8148,-6.8148,-6.871,-6.9201,-6.9201,-6.9345,-6.9801,-7.0647,-7.1068,-7.1079,-7.0253,-7.0326,-6.9666,-6.7589,-6.8432,-6.8908,-6.805,-6.8021,-6.7636,-6.6623,-6.6227,-6.6255,-6.6255,-6.6178,-6.6206,-6.6472,-6.7463,-6.8206,-6.8362,-6.9342,-6.9808,-6.9808,-6.9808,-6.9932,-7.0329,-7.0329,-7.0451,-7.0814,-7.0814,-7.1205,-5.6698,-5.8147,-6.0242,-6.3968,-6.5989,-6.7624,-6.9797,-7.0376,-7.0101,-6.9347,-6.9224,-6.9109,-6.83,-6.9404,-6.9958,-6.847,-6.9474,-6.9924,-6.8435,-6.9508,-7.013,-6.9134,-7.0362,-7.0564,-6.8995,-6.9864,-7.0546,-7.0512,-7.1863,-7.2408,-7.1735,-7.0857,-6.98,-6.8551,-6.7553,-6.6739,-6.6226,-6.6226,-6.616,-6.6129,-6.616,-6.5539,-6.4532,-6.3554,-6.3659,-6.4593,-6.4806,-6.4861,-6.498,-6.6327,-6.6925,-6.6955,-6.6955,-6.7763,-6.89,-6.8987,-6.8987,-6.9227,-7.0515,-7.0995,-7.0995,-7.1025,-7.1055,-7.1055,-7.1055,-7.1055,-7.1055,-7.1055,-7.0934,-7.0934,-7.0934,-7.0934,-7.0934,-7.0934,-7.0812,-7.0514,-7.0514,-6.9409,-6.8475,-6.8475,-6.7677,-6.6857,-6.6829,-6.6857,-6.7118,-6.812,-6.8247,-6.8656,-6.9371,-6.9591,-6.9685,-6.9685,-6.8276,-6.7248,-6.7248,-6.5829,-6.5078,-6.5778,-6.6754,-6.7793,-6.849,-6.9466,-6.9932,-6.9932,-6.9932,-7.0329,-7.1385,-7.1385,-7.186,-7.2856,-7.2856,-7.2856,-5.9144,-5.9863,-6.0771,-6.3532,-6.4906,-6.5378,-6.4919,-6.5174,-6.5416,-6.5206,-6.6064,-6.6786,-6.6538,-6.7847,-6.8712,-6.8297,-6.8574,-6.8712,-6.8262,-6.8574,-6.8783,-6.8474,-6.8819,-6.9129,-6.9232,-6.9525,-6.9481,-6.8918,-6.9198,-6.968,-7.0424,-7.0089,-7.0187,-7.0766,-7.0525,-7.0066,-6.9372,-6.8607,-6.7888,-6.7212,-6.6451,-6.5934,-6.5638,-6.534,-6.534,-6.567,-6.4931,-6.47,-6.4626,-6.4229,-6.4651,-6.5489,-6.5489,-6.6327,-6.7548,-6.7221,-6.7825,-6.8892,-7.0377,-7.0834,-7.1101,-7.2902,-7.3438,-7.3438,-7.3438,-7.2901,-7.2152,-7.2152,-7.1593,-7.0934,-7.0934,-7.0934,-7.0934,-7.0934,-7.093,-7.08,-7.08,-7.0523,-7.0274,-7.0493,-7.1091,-7.1334,-7.0659,-7.0635,-7.0523,-6.9862,-7.0207,-7.0602,-7.1175,-7.0084,-6.8879,-6.7607,-6.7636,-6.7664,-6.7664,-6.7921,-6.8206,-6.8334,-6.9591,-7.0359,-7.048,-7.1474,-7.2096,-7.2096,-7.2096,-7.2213,-7.2477,-7.2477,-7.2624,-7.2856,-7.2856,-7.2856,-5.7553,-5.8831,-6.0277,-6.1747,-6.3262,-6.4081,-6.289,-6.3083,-6.3422,-6.3072,-6.3724,-6.4202,-6.3967,-6.5147,-6.5953,-6.5322,-6.6363,-6.6959,-6.6268,-6.7284,-6.8187,-6.8187,-6.9117,-6.9935,-7.0431,-7.1075,-7.1357,-7.0851,-7.0567,-7.0559,-7.0978,-7.0059,-6.9715,-7.0038,-6.9925,-6.9626,-6.9124,-6.9155,-6.8885,-6.8382,-6.8136,-6.7705,-6.7303,-6.7367,-6.6929,-6.6031,-6.544,-6.524,-6.514,-6.4563,-6.4713,-6.5416,-6.5416,-6.6241,-6.745,-6.7257,-6.7682,-6.8582,-7.0008,-7.0876,-7.1685,-7.312,-7.3966,-7.4407,-7.4407,-7.3997,-7.3469,-7.3469,-7.2901,-7.2471,-7.2471,-7.2471,-7.2471,-7.2471,-7.2471,-7.2238,-7.183,-7.1742,-7.1593,-7.1265,-7.1897,-7.2197,-7.1565,-7.1684,-7.1526,-7.0751,-7.0904,-7.1265,-7.1653,-7.0723,-6.9808,-6.8908,-6.9342,-6.9217,-6.8559,-6.8276,-6.8432,-6.8714,-6.9838,-7.0723,-7.1145,-7.2096,-7.2709,-7.2856,-7.2856,-7.2856,-7.2856,-7.2856,-7.2856,-7.2971,-7.3367,-7.3756,-5.4198,-5.6579,-5.9165,-5.9334,-6.1146,-6.2738,0.0,-6.2308,-6.2516,-6.1698,-6.1688,-6.1622,-6.0909,-6.209,-6.2768,-6.1567,-6.3518,-6.4875,-6.3904,-6.6105,-6.7963,-6.8195,-7.0268,-7.1728,-7.1875,-7.33,-7.4167,-7.4167,-7.3739,-7.3213,-7.2701,-7.0793,-6.9324,-6.8542,-6.8267,-6.7887,-6.757,-6.8695,-6.9202,-6.9162,-7.0036,-6.9982,-6.9042,-6.9339,-6.8405,-6.6611,-6.6611,-6.6419,-6.6226,-6.6129,-6.6063,-6.6063,-6.6063,-6.6951,-6.819,-6.8054,-6.7954,-6.8212,-6.9662,-7.1017,-7.2089,-7.251,-7.3532,-7.4652,-7.481,-7.4734,-7.4625,-7.4625,-7.4516,-7.4407,-7.4407,-7.4407,-7.4407,-7.4407,-7.4407,-7.4218,-7.316,-7.2932,-7.2587,-7.1623,-7.1385,-7.1265,-7.1145,-7.1145,-7.1055,-7.0755,-7.0605,-7.0605,-7.0814,-7.0814,-7.0963,-7.1378,-7.1378,-7.0755,-6.9297,-6.7906,-6.7478,-6.8177,-6.9033,-6.9961,-7.1055,-7.186,-7.2446,-7.2825,-7.2856,-7.2856,-7.2856,-7.3055,-7.3055,-7.3055,-7.4139,-7.5196,0.0,0.0,0.0,0.0,0.0,0.0,0.0,-5.7393,-5.7703,-5.7527,-5.8744,-5.9714,-5.9233,-6.0682,-6.2286,-6.3377,-6.2653,-6.2988,-6.5969,-6.6578,-6.7435,-6.9065,-6.9727,-7.0516,-7.1802,-7.2203,-7.2423,-7.2423,-7.2205,-7.2504,-7.3531,-7.3205,-7.3286,-7.404,-7.264,-7.1451,-7.0563,-6.9159,-6.8094,-6.7488,-6.898,-6.9509,-6.9356,-7.0643,-7.0706,-6.9713,-6.9713,-6.8817,-6.7306,-6.6451,-6.6063,-6.6063,-6.6063,-6.7278,-6.8861,-6.8003,-6.7722,-6.7914,-6.9483,-7.0157,-7.0993,-7.41,-7.5338,-7.5762,-7.6904,-7.6622,-7.5864,-7.5864,-7.5196,-7.4407,-7.4407,-7.4407,-7.4407,-7.4407,-7.4407,-7.4438,-7.4218,-7.4108,-7.3997,-7.3775,-7.3775,-7.3438,-7.2501,-7.2385,-7.1652,-6.9339,-6.842,-6.7878,-6.7878,-6.7878,-6.7878,-6.8023,-6.8023,-6.8298,-6.8992,-6.9885,-7.048,-7.0602,-7.1145,-7.1534,-7.1684,-7.1921,-7.2126,-7.2446,-7.2416,-7.2563,-7.2856,-7.3725,-7.4108,-7.4139,-7.5335,-7.6177,0.0,0.0,0.0,0.0,0.0,0.0,0.0,0.0,0.0,0.0,0.0,-5.8375,-5.8133,0.0,-6.114,-6.1976,-6.2532,-6.3582,-6.5613,-6.6398,-6.7656,-6.9989,-7.1725,-7.3015,-7.3789,-7.46,-7.5157,-7.5157,-7.4101,-7.3814,-7.4478,-7.3387,-7.2974,-7.3535,-7.2513,-7.1664,-7.1171,-7.0935,-7.0596,-7.0186,-7.03,-7.0408,-7.0339,-7.0522,-7.0374,-6.9979,-7.0835,-7.0381,-6.9025,-6.8551,-6.8012,-6.7549,-6.6855,-6.726,-6.8091,-6.754,-6.7343,-6.7475,-6.8237,-6.9548,-7.1126,-7.3055,-7.4415,-7.555,-7.6977,-7.6773,-7.615,-7.6866,-7.659,-7.6145,-7.6145,-7.6145,-7.6145,-7.6145,-7.6145,-7.6073,-7.541,-7.4762,-7.4041,-7.3507,-7.2833,-7.2179,-7.1529,-7.1855,-7.1525,-6.8972,-6.813,-6.7634,-6.7129,-6.7015,-6.7254,-6.7912,-6.8002,-6.8271,-6.893,-6.9676,-6.9884,-6.9224,-6.9942,-7.0871,-7.1921,-7.1951,-7.2156,-7.2593,-7.3046,-7.35,-7.3644,-7.4797,-7.5303,-7.5271,-7.55,-7.575,0.0,0.0,0.0,0.0,0.0,0.0,0.0,0.0,0.0,0.0,0.0,0.0,0.0,0.0,0.0,-6.0548,-6.2447,-6.4201,-6.5272,-6.6518,-6.8258,-7.0678,-7.3529,-7.546,-7.5757,-7.7353,-7.8392,-7.8392,-7.6874,-7.5947,-7.5872,-7.398,-7.2844,-7.2788,-7.2081,-7.1673,-7.1607,-7.2475,-7.2836,-7.2818,0.0,0.0,-7.1114,-7.0339,-6.9707,-6.9246,-7.0551,-7.0646,-6.9933,-6.9933,-6.9414,-6.8685,-6.7478,-6.7045,-6.7045,-6.7045,-6.7045,-6.7045,-6.7045,-6.8645,-7.0757,-7.0952,-7.2526,-7.4437,-7.588,-7.6105,0.0,-7.7247,-7.7578,-7.7578,-7.7578,-7.7578,-7.7578,-7.7578,-7.7578,-7.7259,-7.6349,-7.5108,-7.3901,-7.2993,-7.1794,-7.0726,-7.0521,-7.0818,-7.0435,-6.8699,-6.8308,-6.7772,-6.6767,-6.6544,-6.6965,-6.7703,-6.7823,-6.7912,-6.8152,-6.8864,-6.8739,-6.7219,-6.8799,-7.0414,-7.1614,-7.1401,-7.1805,-7.2964,-7.3481,-7.3836,-7.3943,-7.5134,-7.5711,-7.5647,-7.5044,-7.4758,0.0,0.0,0.0,0.0,0.0,0.0,0.0,0.0,0.0,0.0,0.0,0.0,0.0,0.0,0.0,0.0,-6.1463,-6.2342,-6.732,-6.8127,-6.8938,-7.0711,-7.2527,-7.4161,-7.5646,-7.7414,-7.8478,-7.8478,-7.8517,-7.8389,-7.8163,0.0,0.0,0.0,0.0,-7.4239,-7.3885,-7.22,-7.1334,-7.1219,-7.2458,-7.2108,-7.0354,-7.1621,-7.0769,-6.8333,-6.8506,-6.8163,-6.741,-6.741,-6.741,-6.7302,-6.7109,-6.7045,-6.7045,-6.7045,-6.7045,-6.7045,-6.7045,0.0,0.0,-6.9048,-7.057,-7.2201,-7.3581,-7.4973,-7.5976,-7.6145,-7.6179,-7.6179,-7.6179,-7.6179,-7.6179,-7.6179,-7.6179,-7.6179,-7.6095,-7.5396,-7.4715,-7.4626,-7.3834,-7.2959,-7.1893,-6.9771,-6.8067,-6.7786,-6.7022,-6.6007,-6.4993,-6.4786,-6.4565,-6.3712,0.0,0.0,-6.528,-6.8628,-6.9675,-6.7189,-7.0423,-7.1996,-7.0869,-6.9673,-7.0318,-7.2974,-7.1906,-7.161,-7.2013,-7.3222,-7.3824,-7.3791,-7.3781,-7.3792,0.0,0.0,0.0,0.0,0.0,0.0,0.0,0.0,0.0,0.0,0.0,0.0,0.0,0.0,0.0,0.0,-6.286,-6.4371,-6.6739,-6.7068,-6.7724,-6.9483,-7.1114,-7.2337,-7.3271,-7.4852,-7.6256,-7.7192,-7.738,-7.7819,-7.87,-7.8621,-7.843,-7.83,-7.7208,-7.6484,-7.6189,-7.5136,-7.46,-7.4415,-7.3871,-7.3157,-7.2314,-7.1516,-7.0498,0.0,-6.9107,-6.8528,-6.775,-6.775,-6.7472,0.0,0.0,0.0,0.0,0.0,-6.5823,-6.5823,-6.5823,-6.6413,-6.7247,-6.7906,-6.8749,-6.9881,-7.1428,-7.1947,-7.2245,-7.3061,-7.3946,-7.4422,-7.3537,-7.3946,-7.4626,-7.4626,-7.4626,-7.4864,-7.583,-7.5109,-7.4169,-7.3732,-7.2669,0.0,-7.0476,-6.9374,-6.838,-6.771,-6.7306,-6.6419,-6.4705,-6.5039,-6.5146,-6.4241,-6.4595,-6.5022,-6.4861,-6.6496,0.0,0.0,0.0,-6.8232,-6.831,-6.8849,0.0,0.0,0.0,0.0,0.0,0.0,0.0,0.0,-6.982,-7.0049,0.0,0.0,0.0,0.0,0.0,0.0,0.0,0.0,0.0,0.0,0.0,0.0,0.0,0.0,0.0,0.0,-6.2908,-6.4787,-6.4865,-6.559,-6.6466,-6.7408,-6.9312,-7.0573,-7.0822,-7.2297,-7.3997,-7.5648,-7.5873,-7.6461,-7.7687,-7.7498,-7.7352,-7.7352,-7.7438,-7.7355,-7.7093,-7.7373,-7.7372,-7.7037,-7.5474,-7.4429,-7.3843,-7.1992,-7.0913,-7.0353,-6.9483,-6.8757,-6.8084,-6.7574,-6.7012,-6.6407,-6.5307,-6.4911,-6.4911,-6.4911,-6.4911,-6.4911,-6.4911,-6.5685,-6.6636,-6.6636,-6.7188,-6.8141,-6.9359,-6.9475,-6.9535,-7.0527,-7.1698,-7.2316,-7.111,-7.1733,-7.2557,-7.2557,-7.2557,-7.2866,-7.3999,-7.3427,-7.2449,-7.1878,-7.0955,-7.0007,-6.9132,-6.8705,-6.8358,-6.7584,-6.7137,0.0,-6.4982,-6.5466,-6.5804,-6.5251,-6.5901,-6.6111,-6.5297,-6.6287,-6.5875,-6.3569,-6.5555,-6.6592,-6.6006,-6.8274,-6.9865,-7.0607,-7.1264,-7.1561,0.0,0.0,0.0,0.0,0.0,0.0,0.0,0.0,0.0,0.0,0.0,0.0,0.0,0.0,0.0,0.0,0.0,0.0,0.0,0.0,0.0,0.0,0.0,0.0,-6.1709,-6.4359,-6.5764,-6.4443,-6.7012,-6.8901,-6.9074,-7.0727,-7.2492,-7.4206,-7.4557,-7.4722,-7.4798,-7.4516,-7.4394,-7.4394,-7.5723,-7.6273,-7.5864,-7.7497,-7.791,-7.7158,-7.7084,-7.592,-7.388,-7.3757,-7.2684,-7.0806,-6.8783,-6.7887,-6.7689,-6.5822,-6.4994,-6.4994,-6.4981,-6.4911,-6.4911,-6.4911,-6.4911,-6.4911,-6.4911,-6.4981,-6.5016,-6.5016,-6.6072,-6.728,-6.7351,-6.8406,-6.9637,-6.961,-6.9645,-6.968,-6.961,-6.9645,-6.968,-6.968,-6.968,-6.9715,-6.975,-6.9681,-6.9537,-6.9537,-6.9469,-6.9169,-6.8418,-6.7608,-6.7106,-6.7106,-6.5872,0.0,-6.5424,-6.5527,-6.5709,-6.6066,-6.6126,-6.6126,-6.5996,-6.9638,-6.9791,-6.4788,-6.9143,-6.966,-6.4788,-6.807,-6.9287,-6.7778,-6.7703,-6.7773,-6.815,0.0,0.0,0.0,0.0,0.0,0.0,0.0,0.0,0.0,0.0,0.0,0.0,0.0,0.0,0.0,0.0,0.0,0.0,0.0,0.0,0.0,0.0,0.0,0.0,0.0,-6.4533,-6.4304,-6.6049,-6.6972,-6.6229,-6.6716,-6.7769,-6.937,-7.0611,-7.1777,-7.291,-7.3952,-7.45,-7.45,-7.483,-7.4847,-7.4535,-7.4738,-7.4651,-7.4188,-7.3961,-7.3985,-7.4224,-7.2891,-7.2526,-7.2772,-7.077,-6.993,-6.9769,-6.7709,-6.7673,-6.8928,-6.8928,-6.8928,-6.8928,-6.8928,-6.8928,-6.8928,-6.8928,-6.8032,-6.6614,-6.5377,-6.5298,-6.572,-6.572,-6.6072,-6.6495,-6.6495,-6.7269,-6.7833,-6.6777,-6.7305,-6.8044,-6.8044,-6.8044,-6.8361,-6.9381,-6.9569,-6.9327,-6.8715,-6.7368,-6.6526,-6.729,-6.6842,-6.6438,-6.6438,-6.5559,-6.4738,-6.4136,-6.5531,-6.6013,-6.4808,-6.6167,-6.6834,-6.616,-6.7305,-6.7365,-6.5701,-6.714,-6.7626,-6.6643,-6.7974,-6.8323,-6.7539,-6.7673,-6.7226,-6.6231,0.0,0.0,0.0,0.0,0.0,0.0,0.0,0.0,0.0,0.0,0.0,0.0,0.0,0.0,0.0,0.0,0.0,0.0,0.0,0.0,0.0,0.0,0.0,0.0,0.0,0.0,-6.2559,-6.4353,0.0,-6.3868,-6.3781,-6.449,-6.6114,-6.7253,-6.8311,-6.9436,-7.1069,-7.1976,-7.1928,-7.2973,-7.3362,-7.3093,-7.3241,-7.3161,-7.2838,-7.2433,-7.2715,-7.361,-7.2903,-7.3134,-7.3993,-7.2591,-7.2004,-7.1859,-6.9964,-6.9944,-7.103,-6.976,-6.919,-6.919,-6.919,-6.919,-6.919,-6.9069,-6.7731,-6.5948,-6.4552,-6.3826,-6.3477,-6.3477,-6.3496,-6.3604,-6.3477,-6.4607,-6.554,-6.4404,-6.5263,-6.6425,-6.6425,-6.6425,-6.6706,-6.7727,-6.7696,-6.7126,-6.5657,-6.4435,-6.4048,-6.5622,-6.5334,-6.5028,-6.5567,-6.4594,-6.3728,-6.3576,-6.4739,-6.5438,-6.5064,-6.648,-6.7345,-6.718,-6.7212,-6.7024,-6.6643,-6.7024,-6.7082,-6.6845,-6.7389,-6.7301,-6.66,-6.6444,-6.5639,0.0,0.0,0.0,0.0,0.0,0.0,0.0,0.0,0.0,0.0,0.0,0.0,0.0,0.0,0.0,0.0,0.0,0.0,0.0,0.0,0.0,0.0,0.0,0.0,0.0,0.0,0.0,-5.936,-6.1813,0.0,0.0,0.0,0.0,-6.4226,-6.4422,-6.4509,-6.4603,-6.6187,-6.707,-6.6959,-7.0116,-7.1746,-7.1476,-7.2733,-7.3256,-7.2871,-7.2457,-7.2159,-7.2049,-7.3537,-7.4304,-7.4403,-7.4029,-7.3916,-7.393,-7.2335,-7.1646,-7.1235,-6.7736,-6.6388,-6.6388,-6.6388,-6.6316,-6.623,-6.5822,-6.4596,-6.3157,-6.2771,-6.1852,-6.0831,-6.0867,-6.1006,0.0,0.0,-6.1948,-6.2982,-6.2646,-6.3573,-6.47,-6.47,-6.47,-6.47,-6.47,-6.4104,-6.2968,0.0,-6.0892,-6.1754,-6.3443,0.0,-6.3061,-6.4492,-6.2914,-6.2183,-6.3658,-6.3213,-6.3786,-6.6547,-6.6909,-6.7501,-6.8915,-6.9013,-6.8542,-6.7576,-6.8453,-6.7921,-6.5577,-6.6386,-6.6236,-6.4821,-6.4127,0.0,0.0,0.0,0.0,0.0,0.0,0.0,0.0,0.0,0.0,0.0,0.0,0.0,0.0,0.0,0.0,0.0,0.0,0.0,0.0,0.0,0.0,0.0,0.0,0.0,0.0,-5.7032,-5.8289,-5.7579,-5.8256,-5.8196,0.0,0.0,0.0,0.0,0.0,0.0,-6.2791,-6.4443,-6.5364,-6.5321,-6.7284,-6.8276,-6.811,-6.921,-6.9729,-6.9625,-6.8918,-6.9292,-7.0541,-7.0851,-7.226,-7.445,-7.4356,-7.5,-7.6069,-7.4381,-7.2997,-7.1868,-7.0902,-7.0611,-7.0611,-7.0611,-6.9838,-6.8774,-6.8375,-6.6211,-6.3621,-6.3474,0.0,-6.0881,-6.1054,0.0,0.0,0.0,0.0,-6.1626,-6.1385,-6.1602,-6.1833,-6.1515,-6.1426,-6.1426,-6.1426,-6.1317,-6.1387,0.0,-6.0476,-5.9753,-6.2787,0.0,0.0,0.0,0.0,-6.1709,-6.2183,-6.2583,-6.3029,-6.3753,-6.4838,-6.5627,-6.6021,-6.6021,-6.5938,-6.5686,-6.5854,-6.5774,-6.513,-6.4812,-6.4018,-6.2592,0.0,0.0,0.0,0.0,0.0,0.0,0.0,0.0,0.0,0.0,0.0,0.0,0.0,0.0,0.0,0.0,0.0,0.0,0.0,0.0,0.0,0.0,0.0,0.0,0.0,0.0,0.0,-5.5132,-5.6329,-5.5663,-5.6342,-5.6244,0.0,0.0,0.0,0.0,0.0,0.0,0.0,0.0,0.0,-6.2527,-6.4792,-6.6007,-6.5924,-6.6227,-6.6383,-6.6374,-6.6453,-6.696,-6.7877,-6.9255,-7.0815,-7.2479,-7.3866,-7.393,-7.2904,-7.1127,-6.9877,-6.9045,0.0,0.0,0.0,0.0,-6.7297,-6.6488,-6.6115,-6.4145,0.0,-6.1646,0.0,0.0,0.0,0.0,0.0,0.0,0.0,0.0,0.0,0.0,0.0,-6.0317,-6.0229,-6.0229,-6.0229,-6.0507,-6.0895,0.0,-5.9672,-5.8788,-6.076,0.0,0.0,0.0,0.0,-6.1125,-6.1125,-6.1538,-6.2043,-6.2779,-6.349,-6.4246,-6.4871,-6.4936,-6.4936,-6.4936,-6.4936,-6.4539,-6.3533,-6.3126,-6.2091,0.0,0.0,0.0,0.0,0.0,0.0,0.0,0.0,0.0,0.0,0.0,0.0,0.0,0.0,0.0,0.0,0.0,0.0,0.0,0.0,0.0,0.0,0.0,0.0,0.0,0.0,0.0,0.0,0.0,-5.5184,-5.3746,0.0,0.0,0.0,0.0,0.0,0.0,0.0,0.0,0.0,0.0,0.0,0.0,0.0,-6.4135,-6.4347,-6.3999,-6.381,-6.3823,-6.4791,-6.5129,-6.5022,-6.785,-6.9123,-6.9396,-7.2138,0.0,-6.7228,-6.5757,0.0,0.0,0.0,0.0,0.0,0.0,0.0,0.0,0.0,0.0,0.0,0.0,0.0,0.0,0.0,0.0,0.0,0.0,0.0,0.0,0.0,0.0,-5.9611,-6.0263,-6.0246,-6.0088,0.0,-6.0744,-6.0793,-5.9678,-5.879,0.0,0.0,0.0,0.0,0.0,0.0,0.0,-6.0504,-6.0667,-6.1243,-6.2417,-6.247,-6.2997,-6.4279,-6.4377,-6.4377,-6.4377,-6.4377,-6.3444,-6.1291,-6.1206,0.0,0.0,0.0,0.0,0.0,0.0,0.0,0.0,0.0,0.0,0.0,0.0,0.0,0.0,0.0,0.0,0.0,0.0,0.0,0.0,0.0,0.0,0.0,0.0,0.0,0.0,0.0,0.0,0.0,0.0,0.0,0.0,0.0,0.0,0.0,0.0,0.0,0.0,0.0,0.0,0.0,0.0,0.0,0.0,0.0,0.0,0.0,0.0,0.0,0.0,-6.386,-6.3866,-6.4027,-6.4377,-6.5152,-6.6306,-6.7034,-6.6007,-6.3773,0.0,0.0,0.0,0.0,0.0,0.0,0.0,0.0,0.0,0.0,0.0,0.0,0.0,0.0,0.0,0.0,0.0,0.0,0.0,0.0,0.0,0.0,0.0,0.0,0.0,-5.9971,-5.9258,0.0,0.0,0.0,0.0,0.0,0.0,0.0,0.0,0.0,0.0,0.0,0.0,-6.0535,-6.1054,-6.1378,-6.1035,-6.0991,-6.109,-6.1353,-6.1385,-6.1385,-6.1385,-6.1385,-6.0705,0.0,0.0,0.0,0.0,0.0,0.0,0.0,0.0,0.0,0.0,0.0,0.0,0.0,0.0,0.0,0.0,0.0,0.0,0.0,0.0,0.0,0.0,0.0,0.0,0.0,0.0,0.0,0.0,0.0,0.0,0.0,0.0,0.0,0.0,0.0,0.0,0.0,0.0,0.0,0.0,0.0,0.0,0.0,0.0,0.0,0.0,0.0,0.0,0.0,0.0,0.0,0.0,0.0,0.0,0.0,0.0,0.0,0.0,0.0,-6.1758,0.0,0.0,0.0,0.0,0.0,0.0,0.0,0.0,0.0,0.0,0.0,0.0,0.0,0.0,0.0,0.0,0.0,0.0,0.0,0.0,0.0,0.0,0.0,0.0,0.0,0.0,0.0,0.0,0.0,0.0,0.0,0.0,0.0,0.0,0.0,0.0,0.0,0.0,0.0,0.0,-5.9311,-6.0618,-6.1391,-6.0705,-6.0629,-6.0629,-6.0629,-6.0629,-6.0748,-6.1131,-6.0361,0.0,0.0,0.0,0.0,0.0,0.0,0.0,0.0,0.0,0.0,0.0,0.0,0.0,0.0,0.0,0.0,0.0,0.0,0.0,0.0,0.0,0.0,0.0,0.0,0.0,0.0,0.0,0.0,0.0,0.0,0.0,0.0,0.0,0.0,0.0,0.0,0.0,0.0,0.0,0.0,0.0,0.0,0.0,0.0,0.0,0.0,0.0,0.0,0.0,0.0,0.0,0.0,0.0,0.0,0.0,0.0,0.0,0.0,0.0,-5.9066,0.0,0.0,0.0,0.0,0.0,0.0,0.0,0.0,0.0,0.0,0.0,0.0,0.0,0.0,0.0,0.0,0.0,0.0,0.0,0.0,0.0,0.0,0.0,0.0,0.0,0.0,0.0,0.0,0.0,0.0,0.0,0.0,0.0,0.0,0.0,0.0,0.0,0.0,0.0,0.0,0.0,-5.844,-6.0548,-6.1718,-6.0974,-6.0824,-6.0824,-6.0629,-6.0781,-6.0958,-6.1139,-6.014,0.0,0.0,0.0,0.0,0.0,0.0,0.0,0.0,0.0,0.0,0.0,0.0,0.0,0.0,0.0,0.0,0.0,0.0,0.0,0.0,0.0,0.0,0.0,0.0,0.0,0.0,0.0,0.0,0.0,0.0,0.0,0.0,0.0,0.0,0.0,0.0,0.0,0.0,0.0,0.0,0.0,0.0,0.0,0.0,0.0,0.0,0.0,0.0,0.0,0.0,0.0,0.0,0.0,0.0,0.0,0.0,0.0,0.0,0.0,0.0,0.0,0.0,0.0,0.0,0.0,0.0,0.0,0.0,0.0,0.0,0.0,0.0,0.0,0.0,0.0,0.0,0.0,0.0,0.0,0.0,0.0,0.0,0.0,0.0,0.0,0.0,0.0,0.0,0.0,0.0,0.0,0.0,0.0,0.0,0.0,0.0,0.0,0.0,0.0,0.0,0.0,-5.9227,-6.1728,-6.3049,-6.1646,-6.1503,-6.1279,-6.0705,-6.1205,-6.0934,-5.9596,0.0,0.0,0.0,0.0,0.0,0.0,0.0,0.0,0.0,0.0,0.0,0.0,0.0,0.0,0.0,0.0,0.0,0.0,0.0,0.0,0.0,0.0,0.0,0.0,0.0,0.0,0.0,0.0,0.0,0.0,0.0,0.0,0.0,0.0,0.0,0.0,0.0,0.0,0.0,0.0,0.0,0.0,0.0,0.0,0.0,0.0,0.0,0.0,0.0,0.0,0.0,0.0,0.0,0.0,0.0,0.0,0.0,0.0,0.0,0.0,0.0,0.0,0.0,0.0,0.0,0.0,0.0,0.0,0.0,0.0,0.0,0.0,0.0,0.0,0.0,0.0,0.0,0.0,0.0,0.0,0.0,0.0,0.0,0.0,0.0,0.0,0.0,0.0,0.0,0.0,0.0,0.0,0.0,0.0,0.0,0.0,0.0,0.0,0.0,0.0,0.0,0.0,-5.8095,-6.1295,-6.3026,-6.1092,-6.1736,-6.2,-6.1279,-6.07,-6.021,-6.0044,0.0,0.0,0.0,0.0,0.0,0.0,0.0,0.0,0.0,0.0,0.0,0.0,0.0,0.0,0.0,0.0,0.0,0.0,0.0,0.0,0.0,0.0,0.0,0.0,0.0,0.0,0.0,0.0,0.0,0.0,0.0,0.0,0.0,0.0,0.0,0.0,0.0,0.0,0.0,0.0,0.0,0.0,0.0,0.0,0.0,0.0,0.0,0.0,0.0,0.0,0.0,0.0,0.0,0.0,0.0,0.0,0.0,0.0,0.0,0.0,0.0,0.0,0.0,0.0,0.0,0.0,0.0,0.0,0.0,0.0,0.0,0.0,0.0,0.0,0.0,0.0,0.0,0.0,0.0,0.0,0.0,0.0,0.0,0.0,0.0,0.0,0.0,0.0,0.0,0.0,0.0,0.0,0.0,0.0,0.0,0.0,0.0,0.0,0.0,0.0,0.0,0.0,-5.783,-6.1071,-6.283,-6.132,-6.1729,-6.1905,-6.136,-6.0112,-5.9425,-5.9522,0.0,0.0,0.0,0.0,0.0,0.0,0.0,0.0,0.0,0.0,0.0,0.0,0.0,0.0,0.0,0.0,0.0,0.0,0.0,0.0,0.0,0.0,0.0,0.0,0.0,0.0,0.0,0.0,0.0,0.0,0.0,0.0,0.0,0.0,0.0,0.0,0.0,0.0,0.0,0.0,0.0,0.0,0.0,0.0,0.0,0.0,0.0,0.0,0.0,0.0,0.0,0.0,0.0,0.0,0.0,0.0,0.0,0.0,0.0,0.0,0.0,0.0,0.0,0.0,0.0,0.0,0.0,0.0,0.0,0.0,0.0,0.0,0.0,0.0,0.0,0.0,0.0,0.0,0.0,0.0,0.0,0.0,0.0,0.0,0.0,0.0,0.0,0.0,0.0,0.0,0.0,0.0,0.0,0.0,0.0,0.0,0.0,0.0,0.0,0.0,0.0,0.0,-5.9285,-6.1328,-6.2819,-6.2785,-6.1356,-6.0439,-6.0439,-5.9733,-5.8662,0.0,0.0,0.0,0.0,0.0,0.0,0.0,0.0,0.0,0.0,0.0,0.0,0.0,0.0,0.0,0.0,0.0,0.0,0.0,0.0,0.0,0.0,0.0,0.0,0.0,0.0,0.0,0.0,0.0,0.0,0.0,0.0,0.0,0.0,0.0,0.0,0.0,0.0,0.0,0.0,0.0,0.0,0.0,0.0,0.0,0.0,0.0,0.0,0.0,0.0,0.0,0.0,0.0,0.0,0.0,0.0,0.0,0.0,0.0,0.0,0.0,0.0,0.0,0.0,0.0,0.0,0.0,0.0,0.0,0.0,0.0,0.0,0.0,0.0,0.0,0.0,0.0,0.0,0.0,0.0,0.0,0.0,0.0,0.0,0.0,0.0,0.0,0.0,0.0,0.0,0.0,0.0,0.0,0.0,0.0,0.0,0.0,0.0,0.0,0.0,0.0,0.0,0.0,-5.6894,-5.9286,-6.0661,0.0,-5.9976,-6.0153,-5.9682,-5.8443,-5.7561,-5.713,0.0,0.0,0.0,0.0,0.0,0.0,0.0,0.0,0.0,0.0,0.0,0.0,0.0,0.0,0.0,0.0,0.0,0.0,0.0,0.0,0.0,0.0,0.0,0.0,0.0,0.0,0.0,0.0,0.0,0.0,0.0,0.0,0.0,0.0,0.0,0.0,0.0,0.0,0.0,0.0,0.0,0.0,0.0,0.0,0.0,0.0,0.0,0.0,0.0,0.0,0.0,0.0,0.0,0.0,0.0,0.0,0.0,0.0,0.0,0.0,0.0,0.0,0.0,0.0,0.0,0.0,0.0,0.0,0.0,0.0,0.0,0.0,0.0,0.0,0.0,0.0,0.0,0.0,0.0,0.0,0.0,0.0,0.0,0.0,0.0,0.0,0.0,0.0,0.0,0.0,0.0,0.0,0.0,0.0,0.0,0.0,0.0,0.0,0.0,0.0,0.0,0.0,0.0,-5.8518,-5.921,0.0,-5.8785,-5.8922,-5.8757,-5.74,-5.6545,-5.6684,0.0,0.0,0.0,0.0,0.0,0.0,0.0,0.0,0.0,0.0,0.0,0.0,0.0,0.0,0.0,0.0,0.0,0.0,0.0,0.0,0.0,0.0,0.0,0.0,0.0,0.0,0.0,0.0,0.0,0.0,0.0,0.0,0.0,0.0,0.0,0.0,0.0,0.0,0.0,0.0,0.0,0.0,0.0,0.0,0.0,0.0,0.0,0.0,0.0,0.0,0.0,0.0,0.0,0.0,0.0,0.0,0.0,0.0,0.0,0.0,0.0,0.0,0.0,0.0,0.0,0.0,0.0,0.0,0.0,0.0,0.0,0.0,0.0,0.0,0.0,0.0,0.0,0.0,0.0,0.0,0.0,0.0,0.0,0.0,0.0,0.0,0.0,0.0,0.0,0.0,0.0,0.0,0.0,0.0,0.0,0.0,0.0,0.0,0.0,0.0,0.0,0.0,0.0,-5.8603,-5.822,-5.8916,-5.7726,-5.7099,-5.7679,-5.6575,-5.586,-5.5954,-5.6095,0.0,0.0,0.0,0.0,0.0,0.0,0.0,0.0,0.0,0.0,0.0,0.0,0.0,0.0,0.0,0.0,0.0,0.0,0.0,0.0,0.0,0.0,0.0,0.0,0.0,0.0,0.0,0.0,0.0,0.0,0.0,0.0,0.0,0.0,0.0,0.0,0.0,0.0,0.0,0.0,0.0,0.0,0.0,0.0,0.0,0.0,0.0,0.0,0.0,0.0,0.0,0.0,0.0,0.0,0.0,0.0,0.0,0.0,0.0,0.0,0.0,0.0,0.0,0.0,0.0,0.0,0.0,0.0,0.0,0.0,0.0,0.0,0.0,0.0,0.0,0.0,0.0,0.0,0.0,0.0,0.0,0.0,0.0,0.0,0.0,0.0,0.0,0.0,0.0,0.0,0.0,0.0,0.0,0.0,0.0,0.0,0.0,0.0,0.0,0.0,0.0,0.0,-5.6369,-5.6266,-5.6456,-5.614,-5.5946,-5.6131,-5.5892,-5.586,-5.5954,-5.6095,0.0,0.0,0.0,0.0,0.0,0.0,0.0,0.0,0.0,0.0,0.0,0.0,0.0,0.0,0.0,0.0,0.0,0.0,0.0,0.0,0.0,0.0,0.0,0.0,0.0,0.0,0.0,0.0,0.0,0.0,0.0,0.0,0.0,0.0,0.0,0.0,0.0,0.0,0.0,0.0,0.0,0.0,0.0,0.0,0.0,0.0,0.0,0.0,0.0,0.0,0.0,0.0,0.0,0.0,0.0,0.0,0.0,0.0,0.0,0.0,0.0,0.0,0.0,0.0,0.0,0.0,0.0,0.0,0.0,0.0,0.0,0.0,0.0,0.0,0.0,0.0,0.0,0.0,0.0,0.0,0.0,0.0,0.0,0.0,0.0,0.0,0.0,0.0,0.0,0.0,0.0,0.0,0.0,0.0,0.0,0.0,0.0,0.0,0.0,0.0,0.0,0.0,-5.6556,-5.665,-5.5688,-5.5569,-5.5569,-5.5569,-5.5764,-5.5907,-5.5954,-5.6095,0.0,0.0,0.0,0.0,0.0,0.0,0.0,0.0,0.0,0.0,0.0,0.0,0.0,0.0,0.0,0.0,0.0,0.0,0.0,0.0,0.0,0.0,0.0,0.0,0.0,0.0,0.0,0.0,0.0,0.0,0.0,0.0,0.0,0.0,0.0,0.0,0.0,0.0,0.0,0.0,0.0,0.0,0.0,0.0,0.0,0.0,0.0,0.0,0.0,0.0,0.0,0.0,0.0,0.0,0.0,0.0,0.0,0.0,0.0,0.0,0.0,0.0,0.0,0.0,0.0,0.0,0.0,0.0,0.0,0.0,0.0,0.0,0.0,0.0,0.0,0.0,0.0,0.0,0.0,0.0,0.0,0.0,0.0,0.0,0.0,0.0,0.0,0.0,0.0,0.0,0.0,0.0,0.0,0.0,0.0,0.0,0.0,0.0,0.0,0.0,0.0,0.0,0.0,-5.7609,-5.5808,-5.5618,-5.5569,-5.5569,-5.5812,-5.5954,-5.5954,0.0,0.0,0.0,0.0,0.0,0.0,0.0,0.0,0.0,0.0,0.0,0.0,0.0,0.0,0.0,0.0,0.0,0.0,0.0,0.0,0.0,0.0,0.0,0.0,0.0,0.0,0.0,0.0,0.0,0.0,0.0,0.0,0.0,0.0,0.0,0.0,0.0,0.0,0.0,0.0,0.0,0.0,0.0,0.0,0.0,0.0,0.0,0.0,0.0,0.0,0.0,0.0,0.0,0.0,0.0,0.0,0.0,0.0,0.0,0.0,0.0,0.0,0.0,0.0,0.0,0.0,0.0,0.0,0.0,0.0,0.0,0.0,0.0,0.0,0.0,0.0,0.0,0.0,0.0,0.0,0.0,0.0,0.0,0.0,0.0,0.0,0.0,0.0,0.0,0.0,0.0,0.0,0.0,0.0,0.0,0.0,0.0,0.0,0.0,0.0,0.0,0.0,0.0,0.0,-5.6107,-5.5812,-5.5667,-5.5569,-5.5569,-5.5764,-5.586,-5.5954,0.0,0.0,0.0,0.0,0.0,0.0,0.0,0.0,0.0,0.0,0.0,0.0,0.0,0.0]}]]]